<?xml version='1.0' encoding='UTF-8'?><gpx version="1.1" creator="JPX - https://github.com/jenetics/jpx" xmlns="http://www.topografix.com/GPX/1/1"><trk><trkseg><trkpt lat="45.6342943" lon="11.4154401"><ele>153.0</ele><time>2026-04-19T07:34:15.983Z</time></trkpt><trkpt lat="45.6342466" lon="11.4153804"><ele>153.0</ele><time>2026-04-19T07:34:19.984Z</time></trkpt><trkpt lat="45.6342466" lon="11.4153804"><ele>153.0</ele><time>2026-04-19T07:34:19.984Z</time></trkpt><trkpt lat="45.6342466" lon="11.4153804"><ele>153.0</ele><time>2026-04-19T07:34:19.984Z</time></trkpt><trkpt lat="45.6342466" lon="11.4153804"><ele>153.0</ele><time>2026-04-19T07:34:19.984Z</time></trkpt><trkpt lat="45.6342466" lon="11.4153804"><ele>153.0</ele><time>2026-04-19T07:34:19.984Z</time></trkpt><trkpt lat="45.6342466" lon="11.4153804"><ele>153.0</ele><time>2026-04-19T07:34:19.984Z</time></trkpt><trkpt lat="45.6342466" lon="11.4153804"><ele>153.0</ele><time>2026-04-19T07:34:19.984Z</time></trkpt><trkpt lat="45.6342466" lon="11.4153804"><ele>153.0</ele><time>2026-04-19T07:34:19.984Z</time></trkpt><trkpt lat="45.6342466" lon="11.4153804"><ele>153.0</ele><time>2026-04-19T07:34:19.984Z</time></trkpt><trkpt lat="45.6342466" lon="11.4153804"><ele>153.0</ele><time>2026-04-19T07:34:19.984Z</time></trkpt><trkpt lat="45.6342466" lon="11.4153804"><ele>153.0</ele><time>2026-04-19T07:34:19.984Z</time></trkpt><trkpt lat="45.6342466" lon="11.4153804"><ele>153.0</ele><time>2026-04-19T07:34:19.984Z</time></trkpt><trkpt lat="45.6342466" lon="11.4153804"><ele>153.0</ele><time>2026-04-19T07:34:19.984Z</time></trkpt><trkpt lat="45.6342466" lon="11.4153804"><ele>153.0</ele><time>2026-04-19T07:34:19.984Z</time></trkpt><trkpt lat="45.6342466" lon="11.4153804"><ele>153.0</ele><time>2026-04-19T07:34:19.984Z</time></trkpt><trkpt lat="45.6342466" lon="11.4153804"><ele>153.0</ele><time>2026-04-19T07:34:19.984Z</time></trkpt><trkpt lat="45.6342466" lon="11.4153804"><ele>153.0</ele><time>2026-04-19T07:34:19.984Z</time></trkpt><trkpt lat="45.6342466" lon="11.4153804"><ele>153.0</ele><time>2026-04-19T07:34:19.984Z</time></trkpt><trkpt lat="45.6342466" lon="11.4153804"><ele>153.0</ele><time>2026-04-19T07:34:19.984Z</time></trkpt><trkpt lat="45.6342466" lon="11.4153804"><ele>153.0</ele><time>2026-04-19T07:34:19.984Z</time></trkpt><trkpt lat="45.6342466" lon="11.4153804"><ele>153.0</ele><time>2026-04-19T07:34:19.984Z</time></trkpt><trkpt lat="45.6342466" lon="11.4153804"><ele>153.0</ele><time>2026-04-19T07:34:19.984Z</time></trkpt><trkpt lat="45.6342466" lon="11.4153804"><ele>153.0</ele><time>2026-04-19T07:34:19.984Z</time></trkpt><trkpt lat="45.6342466" lon="11.4153804"><ele>153.0</ele><time>2026-04-19T07:34:19.984Z</time></trkpt><trkpt lat="45.6342466" lon="11.4153804"><ele>153.0</ele><time>2026-04-19T07:34:19.984Z</time></trkpt><trkpt lat="45.6342466" lon="11.4153804"><ele>153.0</ele><time>2026-04-19T07:34:19.984Z</time></trkpt><trkpt lat="45.6342466" lon="11.4153804"><ele>153.0</ele><time>2026-04-19T07:34:19.984Z</time></trkpt><trkpt lat="45.6342466" lon="11.4153804"><ele>153.0</ele><time>2026-04-19T07:34:19.984Z</time></trkpt><trkpt lat="45.6342466" lon="11.4153804"><ele>153.0</ele><time>2026-04-19T07:34:19.984Z</time></trkpt><trkpt lat="45.6342466" lon="11.4153804"><ele>153.0</ele><time>2026-04-19T07:34:19.984Z</time></trkpt><trkpt lat="45.6342466" lon="11.4153804"><ele>153.0</ele><time>2026-04-19T07:34:19.984Z</time></trkpt><trkpt lat="45.6342466" lon="11.4153804"><ele>153.0</ele><time>2026-04-19T07:34:19.984Z</time></trkpt><trkpt lat="45.6342466" lon="11.4153804"><ele>153.0</ele><time>2026-04-19T07:34:19.984Z</time></trkpt><trkpt lat="45.6347462" lon="11.4177997"><ele>150.0</ele><time>2026-04-19T07:35:13.984Z</time></trkpt><trkpt lat="45.6346842" lon="11.4178991"><ele>147.0</ele><time>2026-04-19T07:35:14.983Z</time></trkpt><trkpt lat="45.6346669" lon="11.4180111"><ele>144.0</ele><time>2026-04-19T07:35:15.984Z</time></trkpt><trkpt lat="45.6346221" lon="11.4181405"><ele>141.0</ele><time>2026-04-19T07:35:16.983Z</time></trkpt><trkpt lat="45.6345514" lon="11.4182498"><ele>138.0</ele><time>2026-04-19T07:35:17.984Z</time></trkpt><trkpt lat="45.6345265" lon="11.4183661"><ele>135.8</ele><time>2026-04-19T07:35:18.984Z</time></trkpt><trkpt lat="45.6344568" lon="11.418518"><ele>133.60000000000002</ele><time>2026-04-19T07:35:19.983Z</time></trkpt><trkpt lat="45.6344171" lon="11.4186382"><ele>131.39999999999998</ele><time>2026-04-19T07:35:20.984Z</time></trkpt><trkpt lat="45.6343422" lon="11.4187007"><ele>129.2</ele><time>2026-04-19T07:35:21.984Z</time></trkpt><trkpt lat="45.634323" lon="11.4188186"><ele>127.0</ele><time>2026-04-19T07:35:22.983Z</time></trkpt><trkpt lat="45.6342706" lon="11.4189251"><ele>125.6</ele><time>2026-04-19T07:35:23.984Z</time></trkpt><trkpt lat="45.6341662" lon="11.4190274"><ele>124.19999999999999</ele><time>2026-04-19T07:35:25.983Z</time></trkpt><trkpt lat="45.6341077" lon="11.4191274"><ele>122.8</ele><time>2026-04-19T07:35:26.984Z</time></trkpt><trkpt lat="45.6340973" lon="11.4192297"><ele>121.4</ele><time>2026-04-19T07:35:27.984Z</time></trkpt><trkpt lat="45.6341269" lon="11.4194124"><ele>120.0</ele><time>2026-04-19T07:35:28.984Z</time></trkpt><trkpt lat="45.6341842" lon="11.4195871"><ele>118.0</ele><time>2026-04-19T07:35:29.983Z</time></trkpt><trkpt lat="45.6342376" lon="11.4197616"><ele>116.0</ele><time>2026-04-19T07:35:30.984Z</time></trkpt><trkpt lat="45.6342707" lon="11.4199396"><ele>114.0</ele><time>2026-04-19T07:35:31.983Z</time></trkpt><trkpt lat="45.6343054" lon="11.4201197"><ele>112.0</ele><time>2026-04-19T07:35:32.984Z</time></trkpt><trkpt lat="45.6343577" lon="11.420289"><ele>112.0</ele><time>2026-04-19T07:35:33.984Z</time></trkpt><trkpt lat="45.6344021" lon="11.4204675"><ele>112.0</ele><time>2026-04-19T07:35:34.983Z</time></trkpt><trkpt lat="45.6344337" lon="11.4206552"><ele>112.0</ele><time>2026-04-19T07:35:35.983Z</time></trkpt><trkpt lat="45.6344744" lon="11.4208435"><ele>112.0</ele><time>2026-04-19T07:35:36.983Z</time></trkpt><trkpt lat="45.6345044" lon="11.4210224"><ele>109.75</ele><time>2026-04-19T07:35:37.984Z</time></trkpt><trkpt lat="45.6345558" lon="11.4212112"><ele>107.5</ele><time>2026-04-19T07:35:38.983Z</time></trkpt><trkpt lat="45.6346027" lon="11.421391"><ele>105.25</ele><time>2026-04-19T07:35:39.984Z</time></trkpt><trkpt lat="45.6346452" lon="11.4215822"><ele>103.0</ele><time>2026-04-19T07:35:40.983Z</time></trkpt><trkpt lat="45.6346902" lon="11.4217586"><ele>101.5</ele><time>2026-04-19T07:35:41.984Z</time></trkpt><trkpt lat="45.6347383" lon="11.4219429"><ele>100.0</ele><time>2026-04-19T07:35:42.983Z</time></trkpt><trkpt lat="45.6347901" lon="11.4221127"><ele>98.5</ele><time>2026-04-19T07:35:43.983Z</time></trkpt><trkpt lat="45.6348337" lon="11.422283"><ele>97.0</ele><time>2026-04-19T07:35:44.984Z</time></trkpt><trkpt lat="45.6348783" lon="11.4224471"><ele>96.0</ele><time>2026-04-19T07:35:45.984Z</time></trkpt><trkpt lat="45.6349231" lon="11.4226158"><ele>95.0</ele><time>2026-04-19T07:35:46.982Z</time></trkpt><trkpt lat="45.6349599" lon="11.4227743"><ele>94.0</ele><time>2026-04-19T07:35:47.983Z</time></trkpt><trkpt lat="45.6349924" lon="11.4229086"><ele>93.0</ele><time>2026-04-19T07:35:48.984Z</time></trkpt><trkpt lat="45.6350246" lon="11.4230409"><ele>92.0</ele><time>2026-04-19T07:35:49.983Z</time></trkpt><trkpt lat="45.6350443" lon="11.4231581"><ele>91.6</ele><time>2026-04-19T07:35:51.983Z</time></trkpt><trkpt lat="45.6350296" lon="11.4232726"><ele>91.19999999999999</ele><time>2026-04-19T07:35:54.983Z</time></trkpt><trkpt lat="45.6349532" lon="11.4233283"><ele>90.8</ele><time>2026-04-19T07:35:56.983Z</time></trkpt><trkpt lat="45.6348906" lon="11.4233653"><ele>90.4</ele><time>2026-04-19T07:35:58.984Z</time></trkpt><trkpt lat="45.6347574" lon="11.4233857"><ele>90.0</ele><time>2026-04-19T07:36:00.984Z</time></trkpt><trkpt lat="45.6346619" lon="11.4234295"><ele>90.0</ele><time>2026-04-19T07:36:02.983Z</time></trkpt><trkpt lat="45.6345964" lon="11.4234428"><ele>90.0</ele><time>2026-04-19T07:36:04.983Z</time></trkpt><trkpt lat="45.634517" lon="11.4234895"><ele>90.0</ele><time>2026-04-19T07:36:06.983Z</time></trkpt><trkpt lat="45.6344274" lon="11.4235334"><ele>90.0</ele><time>2026-04-19T07:36:08.983Z</time></trkpt><trkpt lat="45.6343331" lon="11.4235848"><ele>90.0</ele><time>2026-04-19T07:36:10.984Z</time></trkpt><trkpt lat="45.6342606" lon="11.4236378"><ele>90.0</ele><time>2026-04-19T07:36:12.983Z</time></trkpt><trkpt lat="45.6341805" lon="11.4236892"><ele>90.0</ele><time>2026-04-19T07:36:14.983Z</time></trkpt><trkpt lat="45.6340863" lon="11.4237492"><ele>90.0</ele><time>2026-04-19T07:36:16.984Z</time></trkpt><trkpt lat="45.6339882" lon="11.423835"><ele>90.0</ele><time>2026-04-19T07:36:18.984Z</time></trkpt><trkpt lat="45.633883" lon="11.4239089"><ele>90.0</ele><time>2026-04-19T07:36:20.984Z</time></trkpt><trkpt lat="45.6337729" lon="11.4239737"><ele>90.0</ele><time>2026-04-19T07:36:22.984Z</time></trkpt><trkpt lat="45.633684" lon="11.4240324"><ele>90.0</ele><time>2026-04-19T07:36:24.984Z</time></trkpt><trkpt lat="45.6336266" lon="11.4240983"><ele>90.0</ele><time>2026-04-19T07:36:26.983Z</time></trkpt><trkpt lat="45.6335787" lon="11.4242103"><ele>90.0</ele><time>2026-04-19T07:36:29.984Z</time></trkpt><trkpt lat="45.6335086" lon="11.4242679"><ele>90.0</ele><time>2026-04-19T07:36:31.983Z</time></trkpt><trkpt lat="45.6333916" lon="11.4243166"><ele>90.0</ele><time>2026-04-19T07:36:33.983Z</time></trkpt><trkpt lat="45.6333294" lon="11.4243578"><ele>90.0</ele><time>2026-04-19T07:36:34.983Z</time></trkpt><trkpt lat="45.6332711" lon="11.4244082"><ele>90.0</ele><time>2026-04-19T07:36:35.984Z</time></trkpt><trkpt lat="45.6331858" lon="11.4244446"><ele>90.0</ele><time>2026-04-19T07:36:37.983Z</time></trkpt><trkpt lat="45.6331099" lon="11.424395"><ele>90.0</ele><time>2026-04-19T07:36:39.983Z</time></trkpt><trkpt lat="45.6330326" lon="11.4243552"><ele>90.0</ele><time>2026-04-19T07:36:42.982Z</time></trkpt><trkpt lat="45.6329737" lon="11.4243945"><ele>90.0</ele><time>2026-04-19T07:36:44.983Z</time></trkpt><trkpt lat="45.6328949" lon="11.4244736"><ele>90.0</ele><time>2026-04-19T07:36:46.984Z</time></trkpt><trkpt lat="45.6328374" lon="11.4245169"><ele>90.0</ele><time>2026-04-19T07:36:47.983Z</time></trkpt><trkpt lat="45.6327707" lon="11.4245656"><ele>90.0</ele><time>2026-04-19T07:36:48.984Z</time></trkpt><trkpt lat="45.6327091" lon="11.4246046"><ele>90.0</ele><time>2026-04-19T07:36:49.983Z</time></trkpt><trkpt lat="45.6326187" lon="11.4246759"><ele>90.0</ele><time>2026-04-19T07:36:51.983Z</time></trkpt><trkpt lat="45.6325494" lon="11.4247347"><ele>90.0</ele><time>2026-04-19T07:36:53.983Z</time></trkpt><trkpt lat="45.6324789" lon="11.4247623"><ele>90.0</ele><time>2026-04-19T07:36:55.984Z</time></trkpt><trkpt lat="45.6323902" lon="11.4247798"><ele>90.0</ele><time>2026-04-19T07:36:57.982Z</time></trkpt><trkpt lat="45.6323129" lon="11.4247935"><ele>90.0</ele><time>2026-04-19T07:36:59.984Z</time></trkpt><trkpt lat="45.6322002" lon="11.4248083"><ele>90.0</ele><time>2026-04-19T07:37:01.984Z</time></trkpt><trkpt lat="45.6321306" lon="11.4248236"><ele>90.0</ele><time>2026-04-19T07:37:02.984Z</time></trkpt><trkpt lat="45.6318947" lon="11.4249082"><ele>89.2</ele><time>2026-04-19T07:37:03.983Z</time></trkpt><trkpt lat="45.6318269" lon="11.42492"><ele>88.4</ele><time>2026-04-19T07:37:04.983Z</time></trkpt><trkpt lat="45.6317642" lon="11.4249468"><ele>87.6</ele><time>2026-04-19T07:37:05.984Z</time></trkpt><trkpt lat="45.6316423" lon="11.4249854"><ele>86.8</ele><time>2026-04-19T07:37:07.984Z</time></trkpt><trkpt lat="45.6315145" lon="11.4250316"><ele>86.0</ele><time>2026-04-19T07:37:09.983Z</time></trkpt><trkpt lat="45.631449" lon="11.4250698"><ele>86.0</ele><time>2026-04-19T07:37:10.983Z</time></trkpt><trkpt lat="45.6313875" lon="11.4251201"><ele>86.0</ele><time>2026-04-19T07:37:11.983Z</time></trkpt><trkpt lat="45.6313098" lon="11.4252154"><ele>86.0</ele><time>2026-04-19T07:37:13.983Z</time></trkpt><trkpt lat="45.6312453" lon="11.4252405"><ele>86.0</ele><time>2026-04-19T07:37:18.983Z</time></trkpt><trkpt lat="45.6312147" lon="11.4251498"><ele>86.0</ele><time>2026-04-19T07:37:20.983Z</time></trkpt><trkpt lat="45.6311731" lon="11.425008"><ele>86.0</ele><time>2026-04-19T07:37:22.984Z</time></trkpt><trkpt lat="45.6311408" lon="11.4248932"><ele>86.0</ele><time>2026-04-19T07:37:24.983Z</time></trkpt><trkpt lat="45.6311133" lon="11.4247781"><ele>86.0</ele><time>2026-04-19T07:37:26.984Z</time></trkpt><trkpt lat="45.6310749" lon="11.4246531"><ele>86.0</ele><time>2026-04-19T07:37:28.982Z</time></trkpt><trkpt lat="45.6309922" lon="11.4245962"><ele>86.0</ele><time>2026-04-19T07:37:30.984Z</time></trkpt><trkpt lat="45.6309285" lon="11.424601"><ele>86.0</ele><time>2026-04-19T07:37:31.983Z</time></trkpt><trkpt lat="45.6308643" lon="11.4246235"><ele>86.0</ele><time>2026-04-19T07:37:32.984Z</time></trkpt><trkpt lat="45.6308044" lon="11.4246529"><ele>86.0</ele><time>2026-04-19T07:37:33.984Z</time></trkpt><trkpt lat="45.630695" lon="11.4247282"><ele>86.0</ele><time>2026-04-19T07:37:35.983Z</time></trkpt><trkpt lat="45.6306366" lon="11.4247646"><ele>86.0</ele><time>2026-04-19T07:37:36.984Z</time></trkpt><trkpt lat="45.6305264" lon="11.4247963"><ele>86.0</ele><time>2026-04-19T07:37:38.984Z</time></trkpt><trkpt lat="45.6304653" lon="11.4247672"><ele>86.0</ele><time>2026-04-19T07:37:40.984Z</time></trkpt><trkpt lat="45.6303465" lon="11.424759"><ele>85.8</ele><time>2026-04-19T07:37:43.983Z</time></trkpt><trkpt lat="45.6302763" lon="11.4247914"><ele>85.6</ele><time>2026-04-19T07:37:44.984Z</time></trkpt><trkpt lat="45.6302051" lon="11.4248328"><ele>85.4</ele><time>2026-04-19T07:37:45.984Z</time></trkpt><trkpt lat="45.630136" lon="11.4248792"><ele>85.2</ele><time>2026-04-19T07:37:46.983Z</time></trkpt><trkpt lat="45.6300644" lon="11.4249194"><ele>85.0</ele><time>2026-04-19T07:37:47.984Z</time></trkpt><trkpt lat="45.6299411" lon="11.4250339"><ele>85.0</ele><time>2026-04-19T07:37:48.983Z</time></trkpt><trkpt lat="45.6298285" lon="11.4251116"><ele>85.0</ele><time>2026-04-19T07:37:49.983Z</time></trkpt><trkpt lat="45.6296635" lon="11.4252336"><ele>85.0</ele><time>2026-04-19T07:37:51.983Z</time></trkpt><trkpt lat="45.6295738" lon="11.4252714"><ele>85.0</ele><time>2026-04-19T07:37:53.983Z</time></trkpt><trkpt lat="45.629507" lon="11.4253012"><ele>84.4</ele><time>2026-04-19T07:37:54.984Z</time></trkpt><trkpt lat="45.629399" lon="11.4253364"><ele>83.8</ele><time>2026-04-19T07:37:56.984Z</time></trkpt><trkpt lat="45.6293295" lon="11.4253636"><ele>83.19999999999999</ele><time>2026-04-19T07:37:57.983Z</time></trkpt><trkpt lat="45.6292604" lon="11.4254055"><ele>82.6</ele><time>2026-04-19T07:37:58.983Z</time></trkpt><trkpt lat="45.6291904" lon="11.4254344"><ele>82.0</ele><time>2026-04-19T07:37:59.983Z</time></trkpt><trkpt lat="45.629071" lon="11.4255024"><ele>81.8</ele><time>2026-04-19T07:38:01.984Z</time></trkpt><trkpt lat="45.6290001" lon="11.4255557"><ele>81.6</ele><time>2026-04-19T07:38:02.983Z</time></trkpt><trkpt lat="45.6288972" lon="11.4256083"><ele>81.39999999999999</ele><time>2026-04-19T07:38:04.983Z</time></trkpt><trkpt lat="45.6287968" lon="11.4256785"><ele>81.19999999999999</ele><time>2026-04-19T07:38:06.983Z</time></trkpt><trkpt lat="45.6287263" lon="11.4257273"><ele>81.0</ele><time>2026-04-19T07:38:07.984Z</time></trkpt><trkpt lat="45.6286359" lon="11.4258034"><ele>80.6</ele><time>2026-04-19T07:38:09.984Z</time></trkpt><trkpt lat="45.6285292" lon="11.4258625"><ele>80.19999999999999</ele><time>2026-04-19T07:38:11.983Z</time></trkpt><trkpt lat="45.6284367" lon="11.4259148"><ele>79.80000000000001</ele><time>2026-04-19T07:38:13.983Z</time></trkpt><trkpt lat="45.6283638" lon="11.425866"><ele>79.4</ele><time>2026-04-19T07:38:15.984Z</time></trkpt><trkpt lat="45.6283457" lon="11.4257623"><ele>79.0</ele><time>2026-04-19T07:38:17.984Z</time></trkpt><trkpt lat="45.6283215" lon="11.4256075"><ele>79.4</ele><time>2026-04-19T07:38:19.983Z</time></trkpt><trkpt lat="45.6282827" lon="11.4254652"><ele>79.80000000000001</ele><time>2026-04-19T07:38:21.983Z</time></trkpt><trkpt lat="45.6282562" lon="11.425381"><ele>80.19999999999999</ele><time>2026-04-19T07:38:22.984Z</time></trkpt><trkpt lat="45.6282268" lon="11.425231"><ele>80.6</ele><time>2026-04-19T07:38:24.982Z</time></trkpt><trkpt lat="45.6281939" lon="11.4250696"><ele>81.0</ele><time>2026-04-19T07:38:26.984Z</time></trkpt><trkpt lat="45.6281631" lon="11.4249212"><ele>81.0</ele><time>2026-04-19T07:38:28.983Z</time></trkpt><trkpt lat="45.6281541" lon="11.4248304"><ele>81.0</ele><time>2026-04-19T07:38:29.984Z</time></trkpt><trkpt lat="45.6281338" lon="11.4247413"><ele>81.0</ele><time>2026-04-19T07:38:30.984Z</time></trkpt><trkpt lat="45.6281199" lon="11.4246441"><ele>81.0</ele><time>2026-04-19T07:38:31.983Z</time></trkpt><trkpt lat="45.6281297" lon="11.4245371"><ele>81.0</ele><time>2026-04-19T07:38:33.984Z</time></trkpt><trkpt lat="45.6281668" lon="11.4243937"><ele>81.0</ele><time>2026-04-19T07:38:35.984Z</time></trkpt><trkpt lat="45.6281633" lon="11.4242428"><ele>81.0</ele><time>2026-04-19T07:38:37.983Z</time></trkpt><trkpt lat="45.6281389" lon="11.4241527"><ele>81.0</ele><time>2026-04-19T07:38:38.983Z</time></trkpt><trkpt lat="45.6281066" lon="11.4240012"><ele>81.0</ele><time>2026-04-19T07:38:40.984Z</time></trkpt><trkpt lat="45.6280607" lon="11.423858"><ele>81.0</ele><time>2026-04-19T07:38:42.984Z</time></trkpt><trkpt lat="45.6279937" lon="11.4237402"><ele>81.0</ele><time>2026-04-19T07:38:44.984Z</time></trkpt><trkpt lat="45.6279108" lon="11.423638"><ele>81.0</ele><time>2026-04-19T07:38:46.983Z</time></trkpt><trkpt lat="45.6278328" lon="11.4235592"><ele>81.0</ele><time>2026-04-19T07:38:48.984Z</time></trkpt><trkpt lat="45.6277561" lon="11.4234803"><ele>81.0</ele><time>2026-04-19T07:38:50.984Z</time></trkpt><trkpt lat="45.6276852" lon="11.4233947"><ele>81.0</ele><time>2026-04-19T07:38:52.984Z</time></trkpt><trkpt lat="45.627613" lon="11.4232978"><ele>81.0</ele><time>2026-04-19T07:38:54.983Z</time></trkpt><trkpt lat="45.6275377" lon="11.4232071"><ele>81.0</ele><time>2026-04-19T07:38:56.983Z</time></trkpt><trkpt lat="45.6274593" lon="11.423111"><ele>81.0</ele><time>2026-04-19T07:38:58.983Z</time></trkpt><trkpt lat="45.6273937" lon="11.4230298"><ele>81.0</ele><time>2026-04-19T07:39:00.983Z</time></trkpt><trkpt lat="45.6273135" lon="11.4229371"><ele>81.0</ele><time>2026-04-19T07:39:02.984Z</time></trkpt><trkpt lat="45.6277474" lon="11.4234702"><ele>81.0</ele><time>2026-04-19T07:39:07.676Z</time></trkpt><trkpt lat="45.6274453" lon="11.4228526"><ele>81.0</ele><time>2026-04-19T07:39:08.676Z</time></trkpt><trkpt lat="45.6273427" lon="11.4227884"><ele>81.0</ele><time>2026-04-19T07:39:09.676Z</time></trkpt><trkpt lat="45.6273311" lon="11.4226849"><ele>81.0</ele><time>2026-04-19T07:39:11.676Z</time></trkpt><trkpt lat="45.627256" lon="11.4226283"><ele>81.0</ele><time>2026-04-19T07:39:12.677Z</time></trkpt><trkpt lat="45.6271191" lon="11.422493"><ele>81.0</ele><time>2026-04-19T07:39:14.677Z</time></trkpt><trkpt lat="45.6271348" lon="11.4223465"><ele>83.0</ele><time>2026-04-19T07:39:17.676Z</time></trkpt><trkpt lat="45.6268259" lon="11.4220501"><ele>85.0</ele><time>2026-04-19T07:39:20.677Z</time></trkpt><trkpt lat="45.6267687" lon="11.421985"><ele>87.0</ele><time>2026-04-19T07:39:27.983Z</time></trkpt><trkpt lat="45.6267164" lon="11.421922"><ele>87.0</ele><time>2026-04-19T07:39:30.982Z</time></trkpt><trkpt lat="45.6266609" lon="11.4218739"><ele>87.0</ele><time>2026-04-19T07:39:33.983Z</time></trkpt><trkpt lat="45.6266074" lon="11.4218244"><ele>87.0</ele><time>2026-04-19T07:39:36.982Z</time></trkpt><trkpt lat="45.6265522" lon="11.4217562"><ele>87.0</ele><time>2026-04-19T07:39:39.982Z</time></trkpt><trkpt lat="45.6264963" lon="11.4216975"><ele>87.0</ele><time>2026-04-19T07:39:42.983Z</time></trkpt><trkpt lat="45.6264433" lon="11.4216204"><ele>87.0</ele><time>2026-04-19T07:39:46.983Z</time></trkpt><trkpt lat="45.6263922" lon="11.421556"><ele>87.0</ele><time>2026-04-19T07:39:50.983Z</time></trkpt><trkpt lat="45.6263387" lon="11.4214819"><ele>87.0</ele><time>2026-04-19T07:39:54.983Z</time></trkpt><trkpt lat="45.6262795" lon="11.4213974"><ele>87.0</ele><time>2026-04-19T07:39:58.983Z</time></trkpt><trkpt lat="45.6262328" lon="11.421316"><ele>87.0</ele><time>2026-04-19T07:40:01.983Z</time></trkpt><trkpt lat="45.6261946" lon="11.4212368"><ele>87.0</ele><time>2026-04-19T07:40:04.982Z</time></trkpt><trkpt lat="45.6261735" lon="11.421141"><ele>87.0</ele><time>2026-04-19T07:40:07.982Z</time></trkpt><trkpt lat="45.6261475" lon="11.4210359"><ele>87.0</ele><time>2026-04-19T07:40:10.982Z</time></trkpt><trkpt lat="45.6261358" lon="11.4209334"><ele>87.0</ele><time>2026-04-19T07:40:13.983Z</time></trkpt><trkpt lat="45.6261238" lon="11.4208367"><ele>88.14285714285714</ele><time>2026-04-19T07:40:16.983Z</time></trkpt><trkpt lat="45.6261065" lon="11.4207429"><ele>89.28571428571429</ele><time>2026-04-19T07:40:19.983Z</time></trkpt><trkpt lat="45.6260971" lon="11.4206447"><ele>90.42857142857143</ele><time>2026-04-19T07:40:22.982Z</time></trkpt><trkpt lat="45.6260881" lon="11.420536"><ele>91.57142857142857</ele><time>2026-04-19T07:40:25.983Z</time></trkpt><trkpt lat="45.6260786" lon="11.4204305"><ele>92.71428571428572</ele><time>2026-04-19T07:40:28.982Z</time></trkpt><trkpt lat="45.6260739" lon="11.4203331"><ele>93.85714285714286</ele><time>2026-04-19T07:40:31.983Z</time></trkpt><trkpt lat="45.6260748" lon="11.4202322"><ele>95.0</ele><time>2026-04-19T07:40:34.982Z</time></trkpt><trkpt lat="45.6260706" lon="11.4201157"><ele>95.85714285714286</ele><time>2026-04-19T07:40:38.983Z</time></trkpt><trkpt lat="45.62607" lon="11.4200161"><ele>96.71428571428572</ele><time>2026-04-19T07:40:41.983Z</time></trkpt><trkpt lat="45.6260613" lon="11.4199171"><ele>97.57142857142857</ele><time>2026-04-19T07:40:44.982Z</time></trkpt><trkpt lat="45.6260333" lon="11.4198286"><ele>98.42857142857143</ele><time>2026-04-19T07:40:47.983Z</time></trkpt><trkpt lat="45.6260041" lon="11.4197214"><ele>99.28571428571428</ele><time>2026-04-19T07:40:51.982Z</time></trkpt><trkpt lat="45.6259756" lon="11.4196217"><ele>100.14285714285714</ele><time>2026-04-19T07:40:54.982Z</time></trkpt><trkpt lat="45.625938" lon="11.4195387"><ele>101.0</ele><time>2026-04-19T07:40:57.982Z</time></trkpt><trkpt lat="45.6258964" lon="11.4194424"><ele>101.14285714285714</ele><time>2026-04-19T07:41:02.982Z</time></trkpt><trkpt lat="45.6258667" lon="11.4193574"><ele>101.28571428571428</ele><time>2026-04-19T07:41:05.983Z</time></trkpt><trkpt lat="45.6258286" lon="11.4192776"><ele>101.42857142857143</ele><time>2026-04-19T07:41:08.982Z</time></trkpt><trkpt lat="45.6257782" lon="11.4192072"><ele>101.57142857142857</ele><time>2026-04-19T07:41:11.983Z</time></trkpt><trkpt lat="45.6257268" lon="11.4191488"><ele>101.71428571428572</ele><time>2026-04-19T07:41:14.982Z</time></trkpt><trkpt lat="45.6256678" lon="11.4191009"><ele>101.85714285714286</ele><time>2026-04-19T07:41:17.982Z</time></trkpt><trkpt lat="45.6255991" lon="11.4190549"><ele>102.0</ele><time>2026-04-19T07:41:21.983Z</time></trkpt><trkpt lat="45.6255265" lon="11.4190063"><ele>102.0</ele><time>2026-04-19T07:41:26.982Z</time></trkpt><trkpt lat="45.6254499" lon="11.4189645"><ele>102.0</ele><time>2026-04-19T07:41:30.982Z</time></trkpt><trkpt lat="45.6253947" lon="11.4189208"><ele>102.0</ele><time>2026-04-19T07:41:33.983Z</time></trkpt><trkpt lat="45.6253331" lon="11.4188676"><ele>102.0</ele><time>2026-04-19T07:41:37.983Z</time></trkpt><trkpt lat="45.6252541" lon="11.4188248"><ele>102.0</ele><time>2026-04-19T07:41:41.982Z</time></trkpt><trkpt lat="45.6251839" lon="11.418778"><ele>102.0</ele><time>2026-04-19T07:41:44.982Z</time></trkpt><trkpt lat="45.6251125" lon="11.4187293"><ele>103.14285714285714</ele><time>2026-04-19T07:41:47.982Z</time></trkpt><trkpt lat="45.6250544" lon="11.4186664"><ele>104.28571428571429</ele><time>2026-04-19T07:41:50.982Z</time></trkpt><trkpt lat="45.6250099" lon="11.4185918"><ele>105.42857142857142</ele><time>2026-04-19T07:41:53.982Z</time></trkpt><trkpt lat="45.6249623" lon="11.4185185"><ele>106.57142857142857</ele><time>2026-04-19T07:41:56.982Z</time></trkpt><trkpt lat="45.6249249" lon="11.4184294"><ele>107.71428571428571</ele><time>2026-04-19T07:41:59.981Z</time></trkpt><trkpt lat="45.6248985" lon="11.4183344"><ele>108.85714285714285</ele><time>2026-04-19T07:42:02.982Z</time></trkpt><trkpt lat="45.6248812" lon="11.4182316"><ele>110.0</ele><time>2026-04-19T07:42:05.982Z</time></trkpt><trkpt lat="45.6248619" lon="11.4181268"><ele>109.99999999999999</ele><time>2026-04-19T07:42:08.982Z</time></trkpt><trkpt lat="45.6248488" lon="11.4180281"><ele>110.0</ele><time>2026-04-19T07:42:11.983Z</time></trkpt><trkpt lat="45.6248561" lon="11.4179188"><ele>110.0</ele><time>2026-04-19T07:42:15.982Z</time></trkpt><trkpt lat="45.624867" lon="11.417821"><ele>110.0</ele><time>2026-04-19T07:42:18.982Z</time></trkpt><trkpt lat="45.6248837" lon="11.4177122"><ele>110.0</ele><time>2026-04-19T07:42:22.983Z</time></trkpt><trkpt lat="45.6249009" lon="11.4176247"><ele>109.99999999999999</ele><time>2026-04-19T07:42:25.983Z</time></trkpt><trkpt lat="45.6249119" lon="11.4175188"><ele>110.0</ele><time>2026-04-19T07:42:28.983Z</time></trkpt><trkpt lat="45.624908" lon="11.4174109"><ele>110.42857142857142</ele><time>2026-04-19T07:42:31.982Z</time></trkpt><trkpt lat="45.6249049" lon="11.4173146"><ele>110.85714285714286</ele><time>2026-04-19T07:42:34.982Z</time></trkpt><trkpt lat="45.6248953" lon="11.4172198"><ele>111.28571428571428</ele><time>2026-04-19T07:42:37.983Z</time></trkpt><trkpt lat="45.6248802" lon="11.4171321"><ele>111.71428571428571</ele><time>2026-04-19T07:42:40.983Z</time></trkpt><trkpt lat="45.6248593" lon="11.4170169"><ele>112.14285714285714</ele><time>2026-04-19T07:42:44.983Z</time></trkpt><trkpt lat="45.6248483" lon="11.4169281"><ele>112.57142857142857</ele><time>2026-04-19T07:42:47.982Z</time></trkpt><trkpt lat="45.624825" lon="11.4168141"><ele>113.0</ele><time>2026-04-19T07:42:51.982Z</time></trkpt><trkpt lat="45.6248184" lon="11.4167152"><ele>113.28571428571429</ele><time>2026-04-19T07:42:54.982Z</time></trkpt><trkpt lat="45.6248112" lon="11.4166235"><ele>113.57142857142856</ele><time>2026-04-19T07:42:57.982Z</time></trkpt><trkpt lat="45.624779" lon="11.4165166"><ele>113.85714285714285</ele><time>2026-04-19T07:43:01.983Z</time></trkpt><trkpt lat="45.6247546" lon="11.4164326"><ele>114.14285714285714</ele><time>2026-04-19T07:43:04.983Z</time></trkpt><trkpt lat="45.6247165" lon="11.4163283"><ele>114.42857142857142</ele><time>2026-04-19T07:43:08.982Z</time></trkpt><trkpt lat="45.624698" lon="11.4162151"><ele>114.7142857142857</ele><time>2026-04-19T07:43:12.983Z</time></trkpt><trkpt lat="45.6246748" lon="11.416112"><ele>114.99999999999999</ele><time>2026-04-19T07:43:16.983Z</time></trkpt><trkpt lat="45.624639" lon="11.4160164"><ele>115.00000000000001</ele><time>2026-04-19T07:43:20.982Z</time></trkpt><trkpt lat="45.6246064" lon="11.4159179"><ele>115.0</ele><time>2026-04-19T07:43:24.982Z</time></trkpt><trkpt lat="45.6245724" lon="11.4158166"><ele>115.0</ele><time>2026-04-19T07:43:28.982Z</time></trkpt><trkpt lat="45.6245309" lon="11.4157272"><ele>115.0</ele><time>2026-04-19T07:43:32.982Z</time></trkpt><trkpt lat="45.6244841" lon="11.4156347"><ele>115.00000000000001</ele><time>2026-04-19T07:43:36.982Z</time></trkpt><trkpt lat="45.6244437" lon="11.4155387"><ele>115.0</ele><time>2026-04-19T07:43:40.983Z</time></trkpt><trkpt lat="45.6243942" lon="11.4154587"><ele>117.28571428571428</ele><time>2026-04-19T07:43:44.982Z</time></trkpt><trkpt lat="45.6243532" lon="11.4153718"><ele>119.57142857142857</ele><time>2026-04-19T07:43:48.983Z</time></trkpt><trkpt lat="45.6243127" lon="11.4152854"><ele>121.85714285714286</ele><time>2026-04-19T07:43:52.983Z</time></trkpt><trkpt lat="45.6242737" lon="11.4151949"><ele>124.14285714285714</ele><time>2026-04-19T07:43:56.982Z</time></trkpt><trkpt lat="45.6242391" lon="11.4150983"><ele>126.42857142857144</ele><time>2026-04-19T07:44:00.982Z</time></trkpt><trkpt lat="45.6242161" lon="11.4150027"><ele>128.71428571428572</ele><time>2026-04-19T07:44:04.983Z</time></trkpt><trkpt lat="45.624198" lon="11.4149032"><ele>131.0</ele><time>2026-04-19T07:44:08.983Z</time></trkpt><trkpt lat="45.6241729" lon="11.4148091"><ele>131.0</ele><time>2026-04-19T07:44:12.983Z</time></trkpt><trkpt lat="45.6241495" lon="11.4147112"><ele>131.0</ele><time>2026-04-19T07:44:16.983Z</time></trkpt><trkpt lat="45.6241278" lon="11.414618"><ele>131.0</ele><time>2026-04-19T07:44:21.982Z</time></trkpt><trkpt lat="45.6240953" lon="11.4145395"><ele>131.0</ele><time>2026-04-19T07:44:25.981Z</time></trkpt><trkpt lat="45.6240532" lon="11.4144465"><ele>131.0</ele><time>2026-04-19T07:44:30.982Z</time></trkpt><trkpt lat="45.6240425" lon="11.4143306"><ele>131.0</ele><time>2026-04-19T07:44:34.983Z</time></trkpt><trkpt lat="45.6240263" lon="11.4142399"><ele>131.0</ele><time>2026-04-19T07:44:37.982Z</time></trkpt><trkpt lat="45.6240049" lon="11.4141292"><ele>131.0</ele><time>2026-04-19T07:44:41.983Z</time></trkpt><trkpt lat="45.6239838" lon="11.4140277"><ele>131.0</ele><time>2026-04-19T07:44:45.983Z</time></trkpt><trkpt lat="45.623982" lon="11.4139272"><ele>131.0</ele><time>2026-04-19T07:44:50.981Z</time></trkpt><trkpt lat="45.6239728" lon="11.4138213"><ele>131.0</ele><time>2026-04-19T07:44:55.982Z</time></trkpt><trkpt lat="45.6239802" lon="11.4137271"><ele>131.0</ele><time>2026-04-19T07:44:59.983Z</time></trkpt><trkpt lat="45.6239882" lon="11.4136335"><ele>131.0</ele><time>2026-04-19T07:45:04.983Z</time></trkpt><trkpt lat="45.6239963" lon="11.4135324"><ele>131.0</ele><time>2026-04-19T07:45:09.983Z</time></trkpt><trkpt lat="45.6239992" lon="11.4134235"><ele>131.71428571428572</ele><time>2026-04-19T07:45:13.983Z</time></trkpt><trkpt lat="45.6240016" lon="11.413306"><ele>132.42857142857144</ele><time>2026-04-19T07:45:17.983Z</time></trkpt><trkpt lat="45.6240015" lon="11.4132157"><ele>133.14285714285714</ele><time>2026-04-19T07:45:20.982Z</time></trkpt><trkpt lat="45.6240021" lon="11.41312"><ele>133.85714285714286</ele><time>2026-04-19T07:45:23.983Z</time></trkpt><trkpt lat="45.623996" lon="11.4130059"><ele>134.57142857142856</ele><time>2026-04-19T07:45:27.983Z</time></trkpt><trkpt lat="45.6239846" lon="11.4129146"><ele>135.28571428571428</ele><time>2026-04-19T07:45:30.983Z</time></trkpt><trkpt lat="45.6239686" lon="11.4128005"><ele>136.0</ele><time>2026-04-19T07:45:34.983Z</time></trkpt><trkpt lat="45.6239511" lon="11.4126995"><ele>136.14285714285714</ele><time>2026-04-19T07:45:38.983Z</time></trkpt><trkpt lat="45.6239345" lon="11.4126116"><ele>136.28571428571428</ele><time>2026-04-19T07:45:41.982Z</time></trkpt><trkpt lat="45.6239086" lon="11.4125001"><ele>136.42857142857144</ele><time>2026-04-19T07:45:45.983Z</time></trkpt><trkpt lat="45.6238875" lon="11.4124058"><ele>136.57142857142856</ele><time>2026-04-19T07:45:48.982Z</time></trkpt><trkpt lat="45.6238679" lon="11.4123013"><ele>136.71428571428572</ele><time>2026-04-19T07:45:51.983Z</time></trkpt><trkpt lat="45.623851" lon="11.4122071"><ele>136.85714285714286</ele><time>2026-04-19T07:45:54.983Z</time></trkpt><trkpt lat="45.6238308" lon="11.4121171"><ele>137.0</ele><time>2026-04-19T07:45:57.982Z</time></trkpt><trkpt lat="45.6238083" lon="11.4120306"><ele>137.00000000000003</ele><time>2026-04-19T07:46:00.983Z</time></trkpt><trkpt lat="45.6237846" lon="11.4119427"><ele>137.0</ele><time>2026-04-19T07:46:03.982Z</time></trkpt><trkpt lat="45.6237567" lon="11.411857"><ele>137.0</ele><time>2026-04-19T07:46:06.983Z</time></trkpt><trkpt lat="45.623717" lon="11.4117654"><ele>137.0</ele><time>2026-04-19T07:46:09.982Z</time></trkpt><trkpt lat="45.6236787" lon="11.4116801"><ele>137.0</ele><time>2026-04-19T07:46:12.983Z</time></trkpt><trkpt lat="45.6236191" lon="11.4116001"><ele>137.00000000000003</ele><time>2026-04-19T07:46:16.982Z</time></trkpt><trkpt lat="45.6235751" lon="11.4115231"><ele>137.0</ele><time>2026-04-19T07:46:20.981Z</time></trkpt><trkpt lat="45.6235021" lon="11.4115529"><ele>141.0</ele><time>2026-04-19T07:46:30.983Z</time></trkpt><trkpt lat="45.6234261" lon="11.4115837"><ele>145.0</ele><time>2026-04-19T07:46:34.982Z</time></trkpt><trkpt lat="45.6233619" lon="11.411589"><ele>149.0</ele><time>2026-04-19T07:46:37.983Z</time></trkpt><trkpt lat="45.6232983" lon="11.4116048"><ele>153.0</ele><time>2026-04-19T07:46:39.981Z</time></trkpt><trkpt lat="45.6232072" lon="11.4115969"><ele>157.0</ele><time>2026-04-19T07:46:41.982Z</time></trkpt><trkpt lat="45.6230113" lon="11.4115444"><ele>157.0</ele><time>2026-04-19T07:46:43.983Z</time></trkpt><trkpt lat="45.6228971" lon="11.4115604"><ele>157.0</ele><time>2026-04-19T07:46:45.981Z</time></trkpt><trkpt lat="45.6227835" lon="11.4115917"><ele>157.0</ele><time>2026-04-19T07:46:47.983Z</time></trkpt><trkpt lat="45.6226867" lon="11.4116133"><ele>157.0</ele><time>2026-04-19T07:46:49.982Z</time></trkpt><trkpt lat="45.6225746" lon="11.4117039"><ele>156.66666666666669</ele><time>2026-04-19T07:46:52.982Z</time></trkpt><trkpt lat="45.6225048" lon="11.4117174"><ele>156.33333333333334</ele><time>2026-04-19T07:46:54.982Z</time></trkpt><trkpt lat="45.622441" lon="11.4117599"><ele>156.0</ele><time>2026-04-19T07:46:58.983Z</time></trkpt><trkpt lat="45.6223712" lon="11.4118015"><ele>155.66666666666666</ele><time>2026-04-19T07:47:04.982Z</time></trkpt><trkpt lat="45.622318" lon="11.4118528"><ele>155.33333333333331</ele><time>2026-04-19T07:47:08.982Z</time></trkpt><trkpt lat="45.6222998" lon="11.411983"><ele>155.0</ele><time>2026-04-19T07:47:12.982Z</time></trkpt><trkpt lat="45.622304" lon="11.4120989"><ele>155.66666666666666</ele><time>2026-04-19T07:47:15.982Z</time></trkpt><trkpt lat="45.6222953" lon="11.4121956"><ele>156.33333333333331</ele><time>2026-04-19T07:47:18.983Z</time></trkpt><trkpt lat="45.622281" lon="11.4122904"><ele>157.0</ele><time>2026-04-19T07:47:21.982Z</time></trkpt><trkpt lat="45.6222527" lon="11.4123769"><ele>157.66666666666666</ele><time>2026-04-19T07:47:24.983Z</time></trkpt><trkpt lat="45.6222437" lon="11.4125073"><ele>158.33333333333334</ele><time>2026-04-19T07:47:27.981Z</time></trkpt><trkpt lat="45.6222499" lon="11.4126035"><ele>159.0</ele><time>2026-04-19T07:47:29.983Z</time></trkpt><trkpt lat="45.6222517" lon="11.4127363"><ele>159.0</ele><time>2026-04-19T07:47:32.982Z</time></trkpt><trkpt lat="45.6222388" lon="11.4128473"><ele>159.0</ele><time>2026-04-19T07:47:35.982Z</time></trkpt><trkpt lat="45.622235" lon="11.4129719"><ele>159.0</ele><time>2026-04-19T07:47:38.982Z</time></trkpt><trkpt lat="45.6222243" lon="11.4130894"><ele>159.0</ele><time>2026-04-19T07:47:41.983Z</time></trkpt><trkpt lat="45.6221968" lon="11.4131828"><ele>159.0</ele><time>2026-04-19T07:47:44.982Z</time></trkpt><trkpt lat="45.6221694" lon="11.4132839"><ele>159.0</ele><time>2026-04-19T07:47:47.983Z</time></trkpt><trkpt lat="45.6221337" lon="11.4133918"><ele>159.85714285714286</ele><time>2026-04-19T07:47:50.982Z</time></trkpt><trkpt lat="45.6220941" lon="11.4134821"><ele>160.71428571428572</ele><time>2026-04-19T07:47:54.983Z</time></trkpt><trkpt lat="45.6220682" lon="11.4135837"><ele>161.57142857142858</ele><time>2026-04-19T07:47:58.983Z</time></trkpt><trkpt lat="45.6220284" lon="11.4136601"><ele>162.42857142857144</ele><time>2026-04-19T07:48:01.983Z</time></trkpt><trkpt lat="45.6219791" lon="11.4137438"><ele>163.28571428571428</ele><time>2026-04-19T07:48:04.983Z</time></trkpt><trkpt lat="45.6219637" lon="11.4138435"><ele>164.14285714285717</ele><time>2026-04-19T07:48:07.982Z</time></trkpt><trkpt lat="45.6219294" lon="11.4139196"><ele>165.0</ele><time>2026-04-19T07:48:10.983Z</time></trkpt><trkpt lat="45.6219136" lon="11.4140461"><ele>165.71428571428572</ele><time>2026-04-19T07:48:14.982Z</time></trkpt><trkpt lat="45.6219105" lon="11.4141622"><ele>166.42857142857144</ele><time>2026-04-19T07:48:17.983Z</time></trkpt><trkpt lat="45.6219026" lon="11.4142536"><ele>167.14285714285717</ele><time>2026-04-19T07:48:19.983Z</time></trkpt><trkpt lat="45.6218918" lon="11.4143425"><ele>167.85714285714286</ele><time>2026-04-19T07:48:21.982Z</time></trkpt><trkpt lat="45.6218634" lon="11.4144302"><ele>168.57142857142856</ele><time>2026-04-19T07:48:24.983Z</time></trkpt><trkpt lat="45.6218491" lon="11.4145192"><ele>169.2857142857143</ele><time>2026-04-19T07:48:28.983Z</time></trkpt><trkpt lat="45.6218079" lon="11.4145923"><ele>170.0</ele><time>2026-04-19T07:48:31.982Z</time></trkpt><trkpt lat="45.6217366" lon="11.4145977"><ele>170.0</ele><time>2026-04-19T07:48:34.983Z</time></trkpt><trkpt lat="45.6216654" lon="11.4145966"><ele>170.0</ele><time>2026-04-19T07:48:37.982Z</time></trkpt><trkpt lat="45.6215958" lon="11.4146267"><ele>170.0</ele><time>2026-04-19T07:48:40.981Z</time></trkpt><trkpt lat="45.6215334" lon="11.4146711"><ele>170.0</ele><time>2026-04-19T07:48:42.983Z</time></trkpt><trkpt lat="45.6214766" lon="11.4147139"><ele>170.0</ele><time>2026-04-19T07:48:44.982Z</time></trkpt><trkpt lat="45.621411" lon="11.4147491"><ele>170.0</ele><time>2026-04-19T07:48:47.982Z</time></trkpt><trkpt lat="45.6213424" lon="11.4147722"><ele>170.0</ele><time>2026-04-19T07:48:50.983Z</time></trkpt><trkpt lat="45.6212787" lon="11.4147774"><ele>170.0</ele><time>2026-04-19T07:48:53.982Z</time></trkpt><trkpt lat="45.6212155" lon="11.4147708"><ele>170.0</ele><time>2026-04-19T07:48:56.983Z</time></trkpt><trkpt lat="45.6211454" lon="11.4147692"><ele>170.0</ele><time>2026-04-19T07:48:59.982Z</time></trkpt><trkpt lat="45.6210632" lon="11.41477"><ele>170.0</ele><time>2026-04-19T07:49:02.982Z</time></trkpt><trkpt lat="45.6209849" lon="11.4147633"><ele>170.0</ele><time>2026-04-19T07:49:05.983Z</time></trkpt><trkpt lat="45.6209119" lon="11.4147478"><ele>170.0</ele><time>2026-04-19T07:49:08.982Z</time></trkpt><trkpt lat="45.6208398" lon="11.4147374"><ele>170.0</ele><time>2026-04-19T07:49:11.982Z</time></trkpt><trkpt lat="45.6207685" lon="11.4147066"><ele>171.33333333333331</ele><time>2026-04-19T07:49:14.982Z</time></trkpt><trkpt lat="45.6206869" lon="11.4146884"><ele>172.66666666666666</ele><time>2026-04-19T07:49:17.981Z</time></trkpt><trkpt lat="45.6206003" lon="11.4146768"><ele>174.0</ele><time>2026-04-19T07:49:20.981Z</time></trkpt><trkpt lat="45.6205253" lon="11.4146652"><ele>175.33333333333334</ele><time>2026-04-19T07:49:23.983Z</time></trkpt><trkpt lat="45.6204651" lon="11.41472"><ele>176.66666666666669</ele><time>2026-04-19T07:49:29.982Z</time></trkpt><trkpt lat="45.6204299" lon="11.414795"><ele>178.0</ele><time>2026-04-19T07:49:32.982Z</time></trkpt><trkpt lat="45.6203784" lon="11.4148772"><ele>177.99999999999997</ele><time>2026-04-19T07:49:36.983Z</time></trkpt><trkpt lat="45.6203187" lon="11.4149363"><ele>178.0</ele><time>2026-04-19T07:49:39.983Z</time></trkpt><trkpt lat="45.6202563" lon="11.4149676"><ele>178.0</ele><time>2026-04-19T07:49:41.983Z</time></trkpt><trkpt lat="45.6201818" lon="11.4150069"><ele>178.0</ele><time>2026-04-19T07:49:44.982Z</time></trkpt><trkpt lat="45.6201168" lon="11.4150431"><ele>178.0</ele><time>2026-04-19T07:49:47.982Z</time></trkpt><trkpt lat="45.6200526" lon="11.4150616"><ele>177.99999999999997</ele><time>2026-04-19T07:49:50.982Z</time></trkpt><trkpt lat="45.6199872" lon="11.4150756"><ele>178.0</ele><time>2026-04-19T07:49:53.982Z</time></trkpt><trkpt lat="45.6199122" lon="11.4150737"><ele>178.66666666666669</ele><time>2026-04-19T07:49:56.983Z</time></trkpt><trkpt lat="45.6198309" lon="11.4150549"><ele>179.33333333333334</ele><time>2026-04-19T07:49:59.983Z</time></trkpt><trkpt lat="45.6197386" lon="11.4150229"><ele>180.0</ele><time>2026-04-19T07:50:02.982Z</time></trkpt><trkpt lat="45.6196696" lon="11.4149852"><ele>180.66666666666666</ele><time>2026-04-19T07:50:04.982Z</time></trkpt><trkpt lat="45.6196048" lon="11.4149437"><ele>181.33333333333331</ele><time>2026-04-19T07:50:06.982Z</time></trkpt><trkpt lat="45.6195446" lon="11.4148889"><ele>182.0</ele><time>2026-04-19T07:50:08.983Z</time></trkpt><trkpt lat="45.6194878" lon="11.4148165"><ele>182.0</ele><time>2026-04-19T07:50:10.983Z</time></trkpt><trkpt lat="45.6194393" lon="11.4147519"><ele>182.0</ele><time>2026-04-19T07:50:12.982Z</time></trkpt><trkpt lat="45.6193898" lon="11.4146801"><ele>182.0</ele><time>2026-04-19T07:50:14.983Z</time></trkpt><trkpt lat="45.6193416" lon="11.4145979"><ele>182.0</ele><time>2026-04-19T07:50:16.982Z</time></trkpt><trkpt lat="45.6192916" lon="11.4145165"><ele>182.0</ele><time>2026-04-19T07:50:18.982Z</time></trkpt><trkpt lat="45.619255" lon="11.4144362"><ele>182.0</ele><time>2026-04-19T07:50:20.982Z</time></trkpt><trkpt lat="45.6192303" lon="11.4143489"><ele>182.0</ele><time>2026-04-19T07:50:22.982Z</time></trkpt><trkpt lat="45.6192125" lon="11.4142577"><ele>182.5</ele><time>2026-04-19T07:50:24.982Z</time></trkpt><trkpt lat="45.6191985" lon="11.4141565"><ele>183.0</ele><time>2026-04-19T07:50:26.983Z</time></trkpt><trkpt lat="45.6191856" lon="11.4140524"><ele>183.5</ele><time>2026-04-19T07:50:28.983Z</time></trkpt><trkpt lat="45.6191774" lon="11.4139529"><ele>184.0</ele><time>2026-04-19T07:50:30.983Z</time></trkpt><trkpt lat="45.6191778" lon="11.4138594"><ele>184.5</ele><time>2026-04-19T07:50:32.982Z</time></trkpt><trkpt lat="45.619194" lon="11.4137345"><ele>185.0</ele><time>2026-04-19T07:50:35.982Z</time></trkpt><trkpt lat="45.6192013" lon="11.4136006"><ele>183.99999999999997</ele><time>2026-04-19T07:50:38.982Z</time></trkpt><trkpt lat="45.6192093" lon="11.4135045"><ele>183.0</ele><time>2026-04-19T07:50:41.983Z</time></trkpt><trkpt lat="45.6192538" lon="11.4134303"><ele>182.0</ele><time>2026-04-19T07:50:44.983Z</time></trkpt><trkpt lat="45.6193043" lon="11.4133613"><ele>181.0</ele><time>2026-04-19T07:50:47.982Z</time></trkpt><trkpt lat="45.6193581" lon="11.4132923"><ele>180.0</ele><time>2026-04-19T07:50:53.983Z</time></trkpt><trkpt lat="45.6194217" lon="11.4132554"><ele>178.99999999999997</ele><time>2026-04-19T07:50:57.982Z</time></trkpt><trkpt lat="45.6195059" lon="11.4131902"><ele>178.0</ele><time>2026-04-19T07:51:00.983Z</time></trkpt><trkpt lat="45.6195584" lon="11.4131287"><ele>177.99999999999997</ele><time>2026-04-19T07:51:02.982Z</time></trkpt><trkpt lat="45.6196036" lon="11.4130634"><ele>178.0</ele><time>2026-04-19T07:51:04.982Z</time></trkpt><trkpt lat="45.6196637" lon="11.4129711"><ele>178.0</ele><time>2026-04-19T07:51:07.982Z</time></trkpt><trkpt lat="45.6197234" lon="11.4129034"><ele>178.0</ele><time>2026-04-19T07:51:10.983Z</time></trkpt><trkpt lat="45.6197724" lon="11.4128287"><ele>178.0</ele><time>2026-04-19T07:51:13.982Z</time></trkpt><trkpt lat="45.6198056" lon="11.4127332"><ele>177.99999999999997</ele><time>2026-04-19T07:51:16.982Z</time></trkpt><trkpt lat="45.6198318" lon="11.4126453"><ele>178.0</ele><time>2026-04-19T07:51:19.982Z</time></trkpt><trkpt lat="45.6198516" lon="11.4125319"><ele>179.57142857142856</ele><time>2026-04-19T07:51:23.983Z</time></trkpt><trkpt lat="45.6198672" lon="11.4124377"><ele>181.14285714285714</ele><time>2026-04-19T07:51:26.982Z</time></trkpt><trkpt lat="45.6198713" lon="11.4123314"><ele>182.71428571428572</ele><time>2026-04-19T07:51:31.983Z</time></trkpt><trkpt lat="45.6199065" lon="11.412242"><ele>184.28571428571428</ele><time>2026-04-19T07:51:35.983Z</time></trkpt><trkpt lat="45.6199449" lon="11.4121392"><ele>185.85714285714286</ele><time>2026-04-19T07:51:39.983Z</time></trkpt><trkpt lat="45.6199986" lon="11.4120646"><ele>187.42857142857142</ele><time>2026-04-19T07:51:43.982Z</time></trkpt><trkpt lat="45.6200534" lon="11.4120092"><ele>189.0</ele><time>2026-04-19T07:51:47.982Z</time></trkpt><trkpt lat="45.6201101" lon="11.411958"><ele>190.85714285714286</ele><time>2026-04-19T07:51:51.982Z</time></trkpt><trkpt lat="45.6201526" lon="11.4118853"><ele>192.71428571428572</ele><time>2026-04-19T07:51:55.983Z</time></trkpt><trkpt lat="45.6201853" lon="11.4118049"><ele>194.57142857142856</ele><time>2026-04-19T07:51:59.983Z</time></trkpt><trkpt lat="45.6202234" lon="11.4117271"><ele>196.42857142857144</ele><time>2026-04-19T07:52:05.982Z</time></trkpt><trkpt lat="45.620276" lon="11.4116694"><ele>198.28571428571428</ele><time>2026-04-19T07:52:09.982Z</time></trkpt><trkpt lat="45.6203255" lon="11.411595"><ele>200.14285714285714</ele><time>2026-04-19T07:52:13.982Z</time></trkpt><trkpt lat="45.6203582" lon="11.4115094"><ele>202.0</ele><time>2026-04-19T07:52:17.982Z</time></trkpt><trkpt lat="45.6203902" lon="11.411408"><ele>199.66666666666666</ele><time>2026-04-19T07:52:21.982Z</time></trkpt><trkpt lat="45.6204237" lon="11.4113024"><ele>197.33333333333331</ele><time>2026-04-19T07:52:25.983Z</time></trkpt><trkpt lat="45.62045" lon="11.4112099"><ele>195.0</ele><time>2026-04-19T07:52:28.982Z</time></trkpt><trkpt lat="45.6204712" lon="11.4111041"><ele>192.66666666666666</ele><time>2026-04-19T07:52:32.983Z</time></trkpt><trkpt lat="45.6204661" lon="11.4109908"><ele>190.33333333333331</ele><time>2026-04-19T07:52:34.983Z</time></trkpt><trkpt lat="45.6204395" lon="11.4108922"><ele>188.0</ele><time>2026-04-19T07:52:37.983Z</time></trkpt><trkpt lat="45.6203833" lon="11.4108299"><ele>188.0</ele><time>2026-04-19T07:52:42.982Z</time></trkpt><trkpt lat="45.620319" lon="11.4108276"><ele>188.0</ele><time>2026-04-19T07:52:46.983Z</time></trkpt><trkpt lat="45.620247" lon="11.4107955"><ele>188.0</ele><time>2026-04-19T07:52:51.982Z</time></trkpt><trkpt lat="45.6201736" lon="11.4107848"><ele>188.0</ele><time>2026-04-19T07:52:55.983Z</time></trkpt><trkpt lat="45.6200941" lon="11.4107616"><ele>188.0</ele><time>2026-04-19T07:52:59.982Z</time></trkpt><trkpt lat="45.620021" lon="11.4107441"><ele>188.0</ele><time>2026-04-19T07:53:03.982Z</time></trkpt><trkpt lat="45.6199422" lon="11.4107303"><ele>188.0</ele><time>2026-04-19T07:53:06.983Z</time></trkpt><trkpt lat="45.6198758" lon="11.4106818"><ele>191.28571428571428</ele><time>2026-04-19T07:53:10.983Z</time></trkpt><trkpt lat="45.6197987" lon="11.4106728"><ele>194.57142857142856</ele><time>2026-04-19T07:53:13.983Z</time></trkpt><trkpt lat="45.619726" lon="11.4107221"><ele>197.85714285714286</ele><time>2026-04-19T07:53:17.982Z</time></trkpt><trkpt lat="45.6196681" lon="11.4107853"><ele>201.14285714285714</ele><time>2026-04-19T07:53:21.983Z</time></trkpt><trkpt lat="45.619613" lon="11.4108343"><ele>204.42857142857144</ele><time>2026-04-19T07:53:24.983Z</time></trkpt><trkpt lat="45.6195473" lon="11.4108843"><ele>207.71428571428572</ele><time>2026-04-19T07:53:27.983Z</time></trkpt><trkpt lat="45.6194794" lon="11.410923"><ele>211.0</ele><time>2026-04-19T07:53:30.983Z</time></trkpt><trkpt lat="45.6194078" lon="11.4109514"><ele>213.14285714285714</ele><time>2026-04-19T07:53:33.982Z</time></trkpt><trkpt lat="45.6193336" lon="11.4109978"><ele>215.28571428571428</ele><time>2026-04-19T07:53:37.982Z</time></trkpt><trkpt lat="45.6192731" lon="11.4110308"><ele>217.42857142857144</ele><time>2026-04-19T07:53:41.983Z</time></trkpt><trkpt lat="45.6192098" lon="11.4110625"><ele>219.57142857142856</ele><time>2026-04-19T07:53:45.983Z</time></trkpt><trkpt lat="45.6191507" lon="11.4111083"><ele>221.7142857142857</ele><time>2026-04-19T07:53:48.982Z</time></trkpt><trkpt lat="45.6190862" lon="11.4111481"><ele>223.85714285714286</ele><time>2026-04-19T07:53:51.983Z</time></trkpt><trkpt lat="45.6190175" lon="11.4111962"><ele>226.0</ele><time>2026-04-19T07:53:54.983Z</time></trkpt><trkpt lat="45.6189491" lon="11.4112484"><ele>226.0</ele><time>2026-04-19T07:53:57.983Z</time></trkpt><trkpt lat="45.6188793" lon="11.411299"><ele>226.0</ele><time>2026-04-19T07:54:00.983Z</time></trkpt><trkpt lat="45.6188155" lon="11.4113554"><ele>226.0</ele><time>2026-04-19T07:54:03.982Z</time></trkpt><trkpt lat="45.6187454" lon="11.4113863"><ele>226.0</ele><time>2026-04-19T07:54:06.983Z</time></trkpt><trkpt lat="45.6186752" lon="11.4114178"><ele>226.0</ele><time>2026-04-19T07:54:09.983Z</time></trkpt><trkpt lat="45.6186157" lon="11.4114767"><ele>226.0</ele><time>2026-04-19T07:54:12.982Z</time></trkpt><trkpt lat="45.6185531" lon="11.4115253"><ele>226.0</ele><time>2026-04-19T07:54:15.983Z</time></trkpt><trkpt lat="45.6184879" lon="11.4115669"><ele>227.57142857142858</ele><time>2026-04-19T07:54:19.982Z</time></trkpt><trkpt lat="45.6184406" lon="11.4116329"><ele>229.1428571428571</ele><time>2026-04-19T07:54:24.983Z</time></trkpt><trkpt lat="45.6184012" lon="11.4117174"><ele>230.7142857142857</ele><time>2026-04-19T07:54:29.983Z</time></trkpt><trkpt lat="45.618352" lon="11.4118027"><ele>232.28571428571428</ele><time>2026-04-19T07:54:34.982Z</time></trkpt><trkpt lat="45.6182959" lon="11.4118647"><ele>233.85714285714283</ele><time>2026-04-19T07:54:38.982Z</time></trkpt><trkpt lat="45.6182421" lon="11.4119485"><ele>235.4285714285714</ele><time>2026-04-19T07:54:42.982Z</time></trkpt><trkpt lat="45.6181986" lon="11.4120386"><ele>236.99999999999997</ele><time>2026-04-19T07:54:45.983Z</time></trkpt><trkpt lat="45.6181525" lon="11.4121336"><ele>235.4285714285714</ele><time>2026-04-19T07:54:48.982Z</time></trkpt><trkpt lat="45.6181146" lon="11.412218"><ele>233.85714285714283</ele><time>2026-04-19T07:54:51.983Z</time></trkpt><trkpt lat="45.6181009" lon="11.4123133"><ele>232.28571428571428</ele><time>2026-04-19T07:54:54.983Z</time></trkpt><trkpt lat="45.6180924" lon="11.4124058"><ele>230.7142857142857</ele><time>2026-04-19T07:54:57.983Z</time></trkpt><trkpt lat="45.6180875" lon="11.412507"><ele>229.1428571428571</ele><time>2026-04-19T07:55:01.982Z</time></trkpt><trkpt lat="45.6180783" lon="11.4126205"><ele>227.57142857142858</ele><time>2026-04-19T07:55:06.983Z</time></trkpt><trkpt lat="45.6180593" lon="11.4127173"><ele>226.0</ele><time>2026-04-19T07:55:10.983Z</time></trkpt><trkpt lat="45.6180206" lon="11.412821"><ele>226.0</ele><time>2026-04-19T07:55:14.982Z</time></trkpt><trkpt lat="45.6179931" lon="11.4129026"><ele>226.0</ele><time>2026-04-19T07:55:17.983Z</time></trkpt><trkpt lat="45.6179788" lon="11.4130253"><ele>226.0</ele><time>2026-04-19T07:55:21.983Z</time></trkpt><trkpt lat="45.617973" lon="11.4131337"><ele>226.0</ele><time>2026-04-19T07:55:24.982Z</time></trkpt><trkpt lat="45.6179519" lon="11.4132315"><ele>226.0</ele><time>2026-04-19T07:55:27.983Z</time></trkpt><trkpt lat="45.6179033" lon="11.4133174"><ele>226.0</ele><time>2026-04-19T07:55:30.982Z</time></trkpt><trkpt lat="45.6178633" lon="11.4133956"><ele>226.0</ele><time>2026-04-19T07:55:33.982Z</time></trkpt><trkpt lat="45.6178134" lon="11.41347"><ele>228.71428571428572</ele><time>2026-04-19T07:55:36.983Z</time></trkpt><trkpt lat="45.6177594" lon="11.4135229"><ele>231.42857142857142</ele><time>2026-04-19T07:55:39.982Z</time></trkpt><trkpt lat="45.617707" lon="11.413595"><ele>234.14285714285714</ele><time>2026-04-19T07:55:43.982Z</time></trkpt><trkpt lat="45.617633" lon="11.4136431"><ele>236.85714285714286</ele><time>2026-04-19T07:55:47.982Z</time></trkpt><trkpt lat="45.6175757" lon="11.413695"><ele>239.57142857142856</ele><time>2026-04-19T07:55:50.982Z</time></trkpt><trkpt lat="45.6175351" lon="11.413774"><ele>242.28571428571428</ele><time>2026-04-19T07:55:53.983Z</time></trkpt><trkpt lat="45.617498" lon="11.4138612"><ele>245.0</ele><time>2026-04-19T07:55:57.983Z</time></trkpt><trkpt lat="45.6174817" lon="11.4139711"><ele>245.0</ele><time>2026-04-19T07:56:01.981Z</time></trkpt><trkpt lat="45.6174357" lon="11.4140408"><ele>245.0</ele><time>2026-04-19T07:56:06.983Z</time></trkpt><trkpt lat="45.6174845" lon="11.4139699"><ele>245.0</ele><time>2026-04-19T07:56:23.982Z</time></trkpt><trkpt lat="45.6175201" lon="11.4138919"><ele>245.0</ele><time>2026-04-19T07:56:27.983Z</time></trkpt><trkpt lat="45.6175577" lon="11.4137988"><ele>245.0</ele><time>2026-04-19T07:56:32.982Z</time></trkpt><trkpt lat="45.6175897" lon="11.4137081"><ele>245.0</ele><time>2026-04-19T07:56:35.982Z</time></trkpt><trkpt lat="45.6176146" lon="11.4136204"><ele>245.0</ele><time>2026-04-19T07:56:38.983Z</time></trkpt><trkpt lat="45.6176396" lon="11.4135148"><ele>246.14285714285714</ele><time>2026-04-19T07:56:42.982Z</time></trkpt><trkpt lat="45.6176291" lon="11.4134037"><ele>247.28571428571428</ele><time>2026-04-19T07:56:45.983Z</time></trkpt><trkpt lat="45.6175944" lon="11.4133215"><ele>248.42857142857144</ele><time>2026-04-19T07:56:48.983Z</time></trkpt><trkpt lat="45.6175285" lon="11.4132815"><ele>249.57142857142858</ele><time>2026-04-19T07:56:53.983Z</time></trkpt><trkpt lat="45.6174667" lon="11.4133228"><ele>250.71428571428572</ele><time>2026-04-19T07:56:58.981Z</time></trkpt><trkpt lat="45.6173948" lon="11.4133801"><ele>251.8571428571429</ele><time>2026-04-19T07:57:02.982Z</time></trkpt><trkpt lat="45.6173372" lon="11.413431"><ele>253.00000000000003</ele><time>2026-04-19T07:57:05.983Z</time></trkpt><trkpt lat="45.6172871" lon="11.413486"><ele>252.99999999999997</ele><time>2026-04-19T07:57:08.982Z</time></trkpt><trkpt lat="45.6172134" lon="11.4135379"><ele>253.0</ele><time>2026-04-19T07:57:12.982Z</time></trkpt><trkpt lat="45.6171463" lon="11.4135863"><ele>253.0</ele><time>2026-04-19T07:57:16.983Z</time></trkpt><trkpt lat="45.6170811" lon="11.4135835"><ele>253.0</ele><time>2026-04-19T07:57:20.982Z</time></trkpt><trkpt lat="45.6170442" lon="11.4136745"><ele>252.99999999999997</ele><time>2026-04-19T07:57:25.982Z</time></trkpt><trkpt lat="45.6170431" lon="11.4137772"><ele>253.0</ele><time>2026-04-19T07:57:30.982Z</time></trkpt><trkpt lat="45.6170475" lon="11.4138939"><ele>251.8571428571429</ele><time>2026-04-19T07:57:34.983Z</time></trkpt><trkpt lat="45.6170411" lon="11.414009"><ele>250.71428571428572</ele><time>2026-04-19T07:57:38.982Z</time></trkpt><trkpt lat="45.617036" lon="11.4141189"><ele>249.57142857142858</ele><time>2026-04-19T07:57:42.981Z</time></trkpt><trkpt lat="45.6170311" lon="11.414214"><ele>248.42857142857144</ele><time>2026-04-19T07:57:45.983Z</time></trkpt><trkpt lat="45.6170146" lon="11.4143252"><ele>247.28571428571428</ele><time>2026-04-19T07:57:49.983Z</time></trkpt><trkpt lat="45.6170281" lon="11.4144172"><ele>246.14285714285714</ele><time>2026-04-19T07:57:53.982Z</time></trkpt><trkpt lat="45.6170353" lon="11.4145154"><ele>245.0</ele><time>2026-04-19T07:57:57.982Z</time></trkpt><trkpt lat="45.6170197" lon="11.414604"><ele>243.57142857142856</ele><time>2026-04-19T07:58:01.981Z</time></trkpt><trkpt lat="45.6170236" lon="11.4147003"><ele>242.14285714285714</ele><time>2026-04-19T07:58:05.982Z</time></trkpt><trkpt lat="45.6170013" lon="11.4147985"><ele>240.71428571428572</ele><time>2026-04-19T07:58:09.983Z</time></trkpt><trkpt lat="45.6169356" lon="11.4148715"><ele>239.28571428571428</ele><time>2026-04-19T07:58:12.982Z</time></trkpt><trkpt lat="45.6168885" lon="11.4149364"><ele>237.85714285714283</ele><time>2026-04-19T07:58:14.983Z</time></trkpt><trkpt lat="45.6168499" lon="11.4150371"><ele>236.42857142857142</ele><time>2026-04-19T07:58:17.982Z</time></trkpt><trkpt lat="45.6168103" lon="11.4151331"><ele>235.0</ele><time>2026-04-19T07:58:20.982Z</time></trkpt><trkpt lat="45.6167622" lon="11.415197"><ele>240.33333333333331</ele><time>2026-04-19T07:58:23.983Z</time></trkpt><trkpt lat="45.6167005" lon="11.4152656"><ele>245.66666666666666</ele><time>2026-04-19T07:58:26.982Z</time></trkpt><trkpt lat="45.6166366" lon="11.4153306"><ele>251.0</ele><time>2026-04-19T07:58:29.982Z</time></trkpt><trkpt lat="45.6165681" lon="11.4153976"><ele>256.3333333333333</ele><time>2026-04-19T07:58:33.982Z</time></trkpt><trkpt lat="45.6165311" lon="11.4154708"><ele>261.6666666666667</ele><time>2026-04-19T07:58:36.981Z</time></trkpt><trkpt lat="45.6164801" lon="11.4155502"><ele>267.0</ele><time>2026-04-19T07:58:40.982Z</time></trkpt><trkpt lat="45.6164317" lon="11.4156384"><ele>267.00000000000006</ele><time>2026-04-19T07:58:45.983Z</time></trkpt><trkpt lat="45.6163696" lon="11.4157136"><ele>267.0</ele><time>2026-04-19T07:58:48.981Z</time></trkpt><trkpt lat="45.6163271" lon="11.4158085"><ele>267.0</ele><time>2026-04-19T07:58:51.983Z</time></trkpt><trkpt lat="45.6162751" lon="11.4158813"><ele>267.0</ele><time>2026-04-19T07:58:55.983Z</time></trkpt><trkpt lat="45.6162316" lon="11.4159657"><ele>267.0</ele><time>2026-04-19T07:58:59.982Z</time></trkpt><trkpt lat="45.6161895" lon="11.4160451"><ele>267.00000000000006</ele><time>2026-04-19T07:59:03.981Z</time></trkpt><trkpt lat="45.6161289" lon="11.4160856"><ele>267.0</ele><time>2026-04-19T07:59:06.983Z</time></trkpt><trkpt lat="45.6160824" lon="11.4161531"><ele>269.00000000000006</ele><time>2026-04-19T07:59:09.983Z</time></trkpt><trkpt lat="45.61602" lon="11.4162239"><ele>271.0</ele><time>2026-04-19T07:59:13.982Z</time></trkpt><trkpt lat="45.6159744" lon="11.416313"><ele>273.0</ele><time>2026-04-19T07:59:17.983Z</time></trkpt><trkpt lat="45.6159182" lon="11.4163614"><ele>275.0</ele><time>2026-04-19T07:59:20.982Z</time></trkpt><trkpt lat="45.6158638" lon="11.4164138"><ele>277.0</ele><time>2026-04-19T07:59:23.983Z</time></trkpt><trkpt lat="45.6158188" lon="11.4164864"><ele>279.00000000000006</ele><time>2026-04-19T07:59:26.982Z</time></trkpt><trkpt lat="45.6157874" lon="11.4165721"><ele>281.0</ele><time>2026-04-19T07:59:29.983Z</time></trkpt><trkpt lat="45.6157701" lon="11.4166875"><ele>281.00000000000006</ele><time>2026-04-19T07:59:33.983Z</time></trkpt><trkpt lat="45.615778" lon="11.4167915"><ele>281.0</ele><time>2026-04-19T07:59:36.983Z</time></trkpt><trkpt lat="45.6157787" lon="11.4168873"><ele>281.0</ele><time>2026-04-19T07:59:39.982Z</time></trkpt><trkpt lat="45.6157663" lon="11.4169971"><ele>281.0</ele><time>2026-04-19T07:59:43.982Z</time></trkpt><trkpt lat="45.6157382" lon="11.4171104"><ele>281.0</ele><time>2026-04-19T07:59:47.983Z</time></trkpt><trkpt lat="45.6157181" lon="11.4172015"><ele>281.00000000000006</ele><time>2026-04-19T07:59:50.983Z</time></trkpt><trkpt lat="45.6156807" lon="11.4172845"><ele>281.0</ele><time>2026-04-19T07:59:53.981Z</time></trkpt><trkpt lat="45.6156403" lon="11.4173585"><ele>281.00000000000006</ele><time>2026-04-19T07:59:56.981Z</time></trkpt><trkpt lat="45.6155958" lon="11.4174322"><ele>281.0</ele><time>2026-04-19T07:59:59.981Z</time></trkpt><trkpt lat="45.6155525" lon="11.4175182"><ele>281.0</ele><time>2026-04-19T08:00:03.983Z</time></trkpt><trkpt lat="45.6155317" lon="11.4176266"><ele>281.0</ele><time>2026-04-19T08:00:07.983Z</time></trkpt><trkpt lat="45.6155134" lon="11.4177247"><ele>281.0</ele><time>2026-04-19T08:00:12.982Z</time></trkpt><trkpt lat="45.6155637" lon="11.4178015"><ele>281.00000000000006</ele><time>2026-04-19T08:00:16.983Z</time></trkpt><trkpt lat="45.6156213" lon="11.417859"><ele>281.0</ele><time>2026-04-19T08:00:20.982Z</time></trkpt><trkpt lat="45.6156905" lon="11.417894"><ele>281.00000000000006</ele><time>2026-04-19T08:00:24.983Z</time></trkpt><trkpt lat="45.6157503" lon="11.4179506"><ele>281.0</ele><time>2026-04-19T08:00:28.983Z</time></trkpt><trkpt lat="45.6158185" lon="11.4180027"><ele>281.0</ele><time>2026-04-19T08:00:32.982Z</time></trkpt><trkpt lat="45.6158963" lon="11.4180482"><ele>281.0</ele><time>2026-04-19T08:00:36.983Z</time></trkpt><trkpt lat="45.6159647" lon="11.4180888"><ele>281.0</ele><time>2026-04-19T08:00:39.983Z</time></trkpt><trkpt lat="45.6160219" lon="11.4181313"><ele>281.00000000000006</ele><time>2026-04-19T08:00:42.982Z</time></trkpt><trkpt lat="45.6160901" lon="11.4181728"><ele>281.0</ele><time>2026-04-19T08:00:47.982Z</time></trkpt><trkpt lat="45.6161602" lon="11.4182036"><ele>282.00000000000006</ele><time>2026-04-19T08:00:51.981Z</time></trkpt><trkpt lat="45.6162291" lon="11.4182299"><ele>283.0</ele><time>2026-04-19T08:00:56.982Z</time></trkpt><trkpt lat="45.6162945" lon="11.4182554"><ele>284.0</ele><time>2026-04-19T08:01:00.982Z</time></trkpt><trkpt lat="45.6163573" lon="11.4182863"><ele>285.0</ele><time>2026-04-19T08:01:03.983Z</time></trkpt><trkpt lat="45.6164136" lon="11.4183287"><ele>286.0</ele><time>2026-04-19T08:01:06.982Z</time></trkpt><trkpt lat="45.6164589" lon="11.418394"><ele>287.00000000000006</ele><time>2026-04-19T08:01:10.983Z</time></trkpt><trkpt lat="45.6165012" lon="11.4184729"><ele>288.0</ele><time>2026-04-19T08:01:13.982Z</time></trkpt><trkpt lat="45.6165089" lon="11.4185731"><ele>288.00000000000006</ele><time>2026-04-19T08:01:17.983Z</time></trkpt><trkpt lat="45.6164945" lon="11.4186795"><ele>288.0</ele><time>2026-04-19T08:01:21.982Z</time></trkpt><trkpt lat="45.6164773" lon="11.4187905"><ele>288.0</ele><time>2026-04-19T08:01:25.982Z</time></trkpt><trkpt lat="45.616442" lon="11.4188717"><ele>288.0</ele><time>2026-04-19T08:01:28.983Z</time></trkpt><trkpt lat="45.6164142" lon="11.4189609"><ele>288.0</ele><time>2026-04-19T08:01:32.983Z</time></trkpt><trkpt lat="45.6163657" lon="11.4190439"><ele>288.00000000000006</ele><time>2026-04-19T08:01:36.981Z</time></trkpt><trkpt lat="45.6163099" lon="11.4190945"><ele>288.0</ele><time>2026-04-19T08:01:41.982Z</time></trkpt><trkpt lat="45.616248" lon="11.4190731"><ele>288.3333333333333</ele><time>2026-04-19T08:01:46.983Z</time></trkpt><trkpt lat="45.6161749" lon="11.4190389"><ele>288.6666666666667</ele><time>2026-04-19T08:01:51.983Z</time></trkpt><trkpt lat="45.6160967" lon="11.4190228"><ele>289.0</ele><time>2026-04-19T08:01:55.983Z</time></trkpt><trkpt lat="45.6160249" lon="11.4190242"><ele>289.33333333333337</ele><time>2026-04-19T08:01:58.982Z</time></trkpt><trkpt lat="45.6159471" lon="11.4190246"><ele>289.6666666666667</ele><time>2026-04-19T08:02:03.981Z</time></trkpt><trkpt lat="45.6158668" lon="11.419023"><ele>290.0</ele><time>2026-04-19T08:02:07.982Z</time></trkpt><trkpt lat="45.6157969" lon="11.4190335"><ele>292.0</ele><time>2026-04-19T08:02:10.982Z</time></trkpt><trkpt lat="45.6157047" lon="11.4190667"><ele>294.0</ele><time>2026-04-19T08:02:13.982Z</time></trkpt><trkpt lat="45.6156365" lon="11.4190973"><ele>296.0</ele><time>2026-04-19T08:02:15.983Z</time></trkpt><trkpt lat="45.6155641" lon="11.4191573"><ele>298.0</ele><time>2026-04-19T08:02:18.983Z</time></trkpt><trkpt lat="45.6154897" lon="11.4192152"><ele>300.0</ele><time>2026-04-19T08:02:21.982Z</time></trkpt><trkpt lat="45.6154073" lon="11.4192567"><ele>302.0</ele><time>2026-04-19T08:02:24.983Z</time></trkpt><trkpt lat="45.6153295" lon="11.4193065"><ele>302.8571428571429</ele><time>2026-04-19T08:02:27.983Z</time></trkpt><trkpt lat="45.6152747" lon="11.4193801"><ele>303.7142857142857</ele><time>2026-04-19T08:02:30.982Z</time></trkpt><trkpt lat="45.6152225" lon="11.4194763"><ele>304.57142857142856</ele><time>2026-04-19T08:02:33.983Z</time></trkpt><trkpt lat="45.6151716" lon="11.419541"><ele>305.42857142857144</ele><time>2026-04-19T08:02:36.983Z</time></trkpt><trkpt lat="45.6151146" lon="11.4195967"><ele>306.2857142857143</ele><time>2026-04-19T08:02:40.982Z</time></trkpt><trkpt lat="45.6150545" lon="11.4196604"><ele>307.14285714285717</ele><time>2026-04-19T08:02:45.983Z</time></trkpt><trkpt lat="45.6149851" lon="11.4196894"><ele>308.0</ele><time>2026-04-19T08:02:48.983Z</time></trkpt><trkpt lat="45.6149094" lon="11.4196846"><ele>308.0</ele><time>2026-04-19T08:02:51.982Z</time></trkpt><trkpt lat="45.6148418" lon="11.4196719"><ele>308.0</ele><time>2026-04-19T08:02:54.983Z</time></trkpt><trkpt lat="45.6147711" lon="11.4196384"><ele>308.0</ele><time>2026-04-19T08:02:57.983Z</time></trkpt><trkpt lat="45.6147332" lon="11.4195564"><ele>308.0</ele><time>2026-04-19T08:03:01.983Z</time></trkpt><trkpt lat="45.6147089" lon="11.4194695"><ele>308.0</ele><time>2026-04-19T08:03:04.983Z</time></trkpt><trkpt lat="45.6146788" lon="11.4193641"><ele>308.0</ele><time>2026-04-19T08:03:07.982Z</time></trkpt><trkpt lat="45.6146545" lon="11.4192486"><ele>308.0</ele><time>2026-04-19T08:03:11.982Z</time></trkpt><trkpt lat="45.6146511" lon="11.4191299"><ele>308.2857142857143</ele><time>2026-04-19T08:03:15.982Z</time></trkpt><trkpt lat="45.6146595" lon="11.4190019"><ele>308.57142857142856</ele><time>2026-04-19T08:03:18.982Z</time></trkpt><trkpt lat="45.6146555" lon="11.4189001"><ele>308.8571428571429</ele><time>2026-04-19T08:03:20.981Z</time></trkpt><trkpt lat="45.6146344" lon="11.4188148"><ele>309.1428571428571</ele><time>2026-04-19T08:03:22.983Z</time></trkpt><trkpt lat="45.6145825" lon="11.4187481"><ele>309.42857142857144</ele><time>2026-04-19T08:03:24.983Z</time></trkpt><trkpt lat="45.6145094" lon="11.4186931"><ele>309.7142857142857</ele><time>2026-04-19T08:03:26.982Z</time></trkpt><trkpt lat="45.6144501" lon="11.418645"><ele>310.0</ele><time>2026-04-19T08:03:28.982Z</time></trkpt><trkpt lat="45.6143569" lon="11.4185775"><ele>311.4</ele><time>2026-04-19T08:03:30.983Z</time></trkpt><trkpt lat="45.6142775" lon="11.4185515"><ele>312.8</ele><time>2026-04-19T08:03:32.983Z</time></trkpt><trkpt lat="45.6141789" lon="11.4184656"><ele>314.2</ele><time>2026-04-19T08:03:34.982Z</time></trkpt><trkpt lat="45.6140244" lon="11.4184409"><ele>315.6</ele><time>2026-04-19T08:03:36.982Z</time></trkpt><trkpt lat="45.6139429" lon="11.4184309"><ele>317.0</ele><time>2026-04-19T08:03:37.982Z</time></trkpt><trkpt lat="45.6138666" lon="11.4184356"><ele>317.0</ele><time>2026-04-19T08:03:38.981Z</time></trkpt><trkpt lat="45.6137795" lon="11.4184633"><ele>317.0</ele><time>2026-04-19T08:03:40.982Z</time></trkpt><trkpt lat="45.6136689" lon="11.4184983"><ele>317.0</ele><time>2026-04-19T08:03:42.983Z</time></trkpt><trkpt lat="45.6135931" lon="11.4184862"><ele>317.0</ele><time>2026-04-19T08:03:43.982Z</time></trkpt><trkpt lat="45.6135131" lon="11.4184877"><ele>317.0</ele><time>2026-04-19T08:03:44.982Z</time></trkpt><trkpt lat="45.6134173" lon="11.418521"><ele>315.8</ele><time>2026-04-19T08:03:45.983Z</time></trkpt><trkpt lat="45.6133055" lon="11.4185531"><ele>314.6</ele><time>2026-04-19T08:03:46.983Z</time></trkpt><trkpt lat="45.6132315" lon="11.4185704"><ele>313.40000000000003</ele><time>2026-04-19T08:03:47.982Z</time></trkpt><trkpt lat="45.6131662" lon="11.4185994"><ele>312.2</ele><time>2026-04-19T08:03:48.983Z</time></trkpt><trkpt lat="45.6130694" lon="11.418686"><ele>311.0</ele><time>2026-04-19T08:03:50.982Z</time></trkpt><trkpt lat="45.6129785" lon="11.4187739"><ele>309.85714285714283</ele><time>2026-04-19T08:03:52.982Z</time></trkpt><trkpt lat="45.612925" lon="11.4188257"><ele>308.7142857142857</ele><time>2026-04-19T08:03:54.982Z</time></trkpt><trkpt lat="45.6128436" lon="11.4188454"><ele>307.57142857142856</ele><time>2026-04-19T08:03:57.983Z</time></trkpt><trkpt lat="45.6127809" lon="11.4188629"><ele>306.42857142857144</ele><time>2026-04-19T08:04:00.983Z</time></trkpt><trkpt lat="45.6127161" lon="11.4189001"><ele>305.2857142857143</ele><time>2026-04-19T08:04:03.983Z</time></trkpt><trkpt lat="45.6126574" lon="11.4189363"><ele>304.14285714285717</ele><time>2026-04-19T08:04:06.983Z</time></trkpt><trkpt lat="45.6125801" lon="11.4189878"><ele>303.0</ele><time>2026-04-19T08:04:10.982Z</time></trkpt><trkpt lat="45.6125315" lon="11.419048"><ele>305.42857142857144</ele><time>2026-04-19T08:04:13.982Z</time></trkpt><trkpt lat="45.6124748" lon="11.4191166"><ele>307.85714285714283</ele><time>2026-04-19T08:04:17.983Z</time></trkpt><trkpt lat="45.6124247" lon="11.4191995"><ele>310.2857142857143</ele><time>2026-04-19T08:04:22.983Z</time></trkpt><trkpt lat="45.6123733" lon="11.4192844"><ele>312.7142857142857</ele><time>2026-04-19T08:04:26.983Z</time></trkpt><trkpt lat="45.6123391" lon="11.4193743"><ele>315.14285714285717</ele><time>2026-04-19T08:04:30.982Z</time></trkpt><trkpt lat="45.6123044" lon="11.4194602"><ele>317.57142857142856</ele><time>2026-04-19T08:04:34.983Z</time></trkpt><trkpt lat="45.6122526" lon="11.4195204"><ele>320.0</ele><time>2026-04-19T08:04:38.982Z</time></trkpt><trkpt lat="45.6121969" lon="11.4195742"><ele>320.0</ele><time>2026-04-19T08:04:42.982Z</time></trkpt><trkpt lat="45.6121447" lon="11.4196301"><ele>320.0</ele><time>2026-04-19T08:04:46.983Z</time></trkpt><trkpt lat="45.6120825" lon="11.4196914"><ele>320.0</ele><time>2026-04-19T08:04:50.982Z</time></trkpt><trkpt lat="45.6120479" lon="11.4197679"><ele>320.0</ele><time>2026-04-19T08:04:53.981Z</time></trkpt><trkpt lat="45.612005" lon="11.4198565"><ele>320.0</ele><time>2026-04-19T08:04:57.983Z</time></trkpt><trkpt lat="45.6119439" lon="11.4199289"><ele>320.0</ele><time>2026-04-19T08:05:01.982Z</time></trkpt><trkpt lat="45.6118988" lon="11.4199917"><ele>320.0</ele><time>2026-04-19T08:05:04.982Z</time></trkpt><trkpt lat="45.6118346" lon="11.420056"><ele>321.2857142857143</ele><time>2026-04-19T08:05:08.983Z</time></trkpt><trkpt lat="45.611776" lon="11.4201064"><ele>322.57142857142856</ele><time>2026-04-19T08:05:12.982Z</time></trkpt><trkpt lat="45.6117006" lon="11.4201586"><ele>323.8571428571429</ele><time>2026-04-19T08:05:16.983Z</time></trkpt><trkpt lat="45.611641" lon="11.4201994"><ele>325.1428571428571</ele><time>2026-04-19T08:05:19.983Z</time></trkpt><trkpt lat="45.6115708" lon="11.4202452"><ele>326.42857142857144</ele><time>2026-04-19T08:05:23.983Z</time></trkpt><trkpt lat="45.6115105" lon="11.4202865"><ele>327.7142857142857</ele><time>2026-04-19T08:05:26.982Z</time></trkpt><trkpt lat="45.6114358" lon="11.4202991"><ele>329.0</ele><time>2026-04-19T08:05:29.983Z</time></trkpt><trkpt lat="45.6113552" lon="11.420315"><ele>329.0</ele><time>2026-04-19T08:05:32.982Z</time></trkpt><trkpt lat="45.611281" lon="11.4203534"><ele>329.0</ele><time>2026-04-19T08:05:35.983Z</time></trkpt><trkpt lat="45.611179" lon="11.4203618"><ele>329.0</ele><time>2026-04-19T08:05:38.982Z</time></trkpt><trkpt lat="45.6110992" lon="11.4203948"><ele>329.0</ele><time>2026-04-19T08:05:40.982Z</time></trkpt><trkpt lat="45.6110325" lon="11.4204234"><ele>329.0</ele><time>2026-04-19T08:05:42.982Z</time></trkpt><trkpt lat="45.6109661" lon="11.42045"><ele>329.0</ele><time>2026-04-19T08:05:44.983Z</time></trkpt><trkpt lat="45.610876" lon="11.4204746"><ele>331.33333333333337</ele><time>2026-04-19T08:05:47.983Z</time></trkpt><trkpt lat="45.6107937" lon="11.4204931"><ele>333.6666666666667</ele><time>2026-04-19T08:05:50.983Z</time></trkpt><trkpt lat="45.610726" lon="11.4205283"><ele>336.0</ele><time>2026-04-19T08:05:53.982Z</time></trkpt><trkpt lat="45.6106492" lon="11.420564"><ele>338.3333333333333</ele><time>2026-04-19T08:05:57.983Z</time></trkpt><trkpt lat="45.6105742" lon="11.4206065"><ele>340.66666666666663</ele><time>2026-04-19T08:06:01.983Z</time></trkpt><trkpt lat="45.6105097" lon="11.4206095"><ele>343.0</ele><time>2026-04-19T08:06:05.983Z</time></trkpt><trkpt lat="45.6104345" lon="11.4206242"><ele>343.0</ele><time>2026-04-19T08:06:10.983Z</time></trkpt><trkpt lat="45.6103719" lon="11.4206486"><ele>343.0</ele><time>2026-04-19T08:06:14.983Z</time></trkpt><trkpt lat="45.6103056" lon="11.4206834"><ele>343.0</ele><time>2026-04-19T08:06:18.982Z</time></trkpt><trkpt lat="45.6102347" lon="11.4207254"><ele>343.0</ele><time>2026-04-19T08:06:22.983Z</time></trkpt><trkpt lat="45.610168" lon="11.4207848"><ele>343.0</ele><time>2026-04-19T08:06:26.983Z</time></trkpt><trkpt lat="45.6101067" lon="11.4208325"><ele>343.0</ele><time>2026-04-19T08:06:30.983Z</time></trkpt><trkpt lat="45.6100535" lon="11.4209088"><ele>343.0</ele><time>2026-04-19T08:06:35.983Z</time></trkpt><trkpt lat="45.6100209" lon="11.4210055"><ele>342.66666666666663</ele><time>2026-04-19T08:06:39.983Z</time></trkpt><trkpt lat="45.6099721" lon="11.4210631"><ele>342.3333333333333</ele><time>2026-04-19T08:06:42.982Z</time></trkpt><trkpt lat="45.6098966" lon="11.4211198"><ele>342.0</ele><time>2026-04-19T08:06:46.983Z</time></trkpt><trkpt lat="45.6098321" lon="11.421101"><ele>341.6666666666667</ele><time>2026-04-19T08:06:49.982Z</time></trkpt><trkpt lat="45.6097594" lon="11.4210506"><ele>341.33333333333337</ele><time>2026-04-19T08:06:53.982Z</time></trkpt><trkpt lat="45.609693" lon="11.42099"><ele>341.0</ele><time>2026-04-19T08:06:57.982Z</time></trkpt><trkpt lat="45.609622" lon="11.4209212"><ele>341.0</ele><time>2026-04-19T08:07:01.983Z</time></trkpt><trkpt lat="45.6095491" lon="11.4208803"><ele>341.0</ele><time>2026-04-19T08:07:04.983Z</time></trkpt><trkpt lat="45.6094564" lon="11.4208529"><ele>341.0</ele><time>2026-04-19T08:07:07.983Z</time></trkpt><trkpt lat="45.6093925" lon="11.4208304"><ele>341.0</ele><time>2026-04-19T08:07:09.983Z</time></trkpt><trkpt lat="45.6093249" lon="11.4207956"><ele>341.0</ele><time>2026-04-19T08:07:12.983Z</time></trkpt><trkpt lat="45.6092592" lon="11.4207588"><ele>341.0</ele><time>2026-04-19T08:07:15.982Z</time></trkpt><trkpt lat="45.6091881" lon="11.4207172"><ele>341.83333333333337</ele><time>2026-04-19T08:07:18.983Z</time></trkpt><trkpt lat="45.6091025" lon="11.4206968"><ele>342.6666666666667</ele><time>2026-04-19T08:07:21.983Z</time></trkpt><trkpt lat="45.6090189" lon="11.4206571"><ele>343.5</ele><time>2026-04-19T08:07:24.982Z</time></trkpt><trkpt lat="45.6089315" lon="11.4206364"><ele>344.3333333333333</ele><time>2026-04-19T08:07:27.982Z</time></trkpt><trkpt lat="45.6088423" lon="11.4206108"><ele>345.16666666666663</ele><time>2026-04-19T08:07:30.982Z</time></trkpt><trkpt lat="45.6087685" lon="11.4205992"><ele>346.0</ele><time>2026-04-19T08:07:32.982Z</time></trkpt><trkpt lat="45.6086856" lon="11.420604"><ele>346.3333333333333</ele><time>2026-04-19T08:07:34.983Z</time></trkpt><trkpt lat="45.6085917" lon="11.4206181"><ele>346.66666666666663</ele><time>2026-04-19T08:07:36.982Z</time></trkpt><trkpt lat="45.6084949" lon="11.4206365"><ele>347.0</ele><time>2026-04-19T08:07:38.982Z</time></trkpt><trkpt lat="45.608404" lon="11.4206598"><ele>347.3333333333333</ele><time>2026-04-19T08:07:40.983Z</time></trkpt><trkpt lat="45.6083355" lon="11.4206816"><ele>347.6666666666667</ele><time>2026-04-19T08:07:42.982Z</time></trkpt><trkpt lat="45.6082557" lon="11.4206887"><ele>348.0</ele><time>2026-04-19T08:07:45.982Z</time></trkpt><trkpt lat="45.6081859" lon="11.4206811"><ele>348.0</ele><time>2026-04-19T08:07:48.982Z</time></trkpt><trkpt lat="45.6081149" lon="11.4206706"><ele>348.0</ele><time>2026-04-19T08:07:51.982Z</time></trkpt><trkpt lat="45.6080261" lon="11.4206465"><ele>348.0</ele><time>2026-04-19T08:07:53.982Z</time></trkpt><trkpt lat="45.607947" lon="11.4206273"><ele>348.0</ele><time>2026-04-19T08:07:54.982Z</time></trkpt><trkpt lat="45.6078582" lon="11.4206195"><ele>348.0</ele><time>2026-04-19T08:07:55.982Z</time></trkpt><trkpt lat="45.6077655" lon="11.4206217"><ele>348.0</ele><time>2026-04-19T08:07:56.981Z</time></trkpt><trkpt lat="45.6076761" lon="11.4206339"><ele>347.59999999999997</ele><time>2026-04-19T08:07:57.983Z</time></trkpt><trkpt lat="45.6075956" lon="11.4206438"><ele>347.2</ele><time>2026-04-19T08:07:58.983Z</time></trkpt><trkpt lat="45.6075269" lon="11.4206493"><ele>346.8</ele><time>2026-04-19T08:07:59.982Z</time></trkpt><trkpt lat="45.607342" lon="11.4206447"><ele>346.4</ele><time>2026-04-19T08:08:01.983Z</time></trkpt><trkpt lat="45.6072458" lon="11.4206528"><ele>346.0</ele><time>2026-04-19T08:08:02.983Z</time></trkpt><trkpt lat="45.6071586" lon="11.4206732"><ele>346.0</ele><time>2026-04-19T08:08:03.982Z</time></trkpt><trkpt lat="45.6070716" lon="11.4207177"><ele>346.0</ele><time>2026-04-19T08:08:04.983Z</time></trkpt><trkpt lat="45.6069835" lon="11.4207572"><ele>346.0</ele><time>2026-04-19T08:08:05.983Z</time></trkpt><trkpt lat="45.6069025" lon="11.4207839"><ele>346.0</ele><time>2026-04-19T08:08:06.982Z</time></trkpt><trkpt lat="45.6068371" lon="11.4208022"><ele>346.0</ele><time>2026-04-19T08:08:07.983Z</time></trkpt><trkpt lat="45.6067445" lon="11.4208185"><ele>346.0</ele><time>2026-04-19T08:08:08.983Z</time></trkpt><trkpt lat="45.6066646" lon="11.4208396"><ele>344.8333333333333</ele><time>2026-04-19T08:08:09.982Z</time></trkpt><trkpt lat="45.6065862" lon="11.4208761"><ele>343.66666666666663</ele><time>2026-04-19T08:08:10.983Z</time></trkpt><trkpt lat="45.6065062" lon="11.4208998"><ele>342.5</ele><time>2026-04-19T08:08:11.981Z</time></trkpt><trkpt lat="45.6064374" lon="11.4209309"><ele>341.3333333333333</ele><time>2026-04-19T08:08:12.982Z</time></trkpt><trkpt lat="45.6063584" lon="11.4209475"><ele>340.1666666666667</ele><time>2026-04-19T08:08:13.982Z</time></trkpt><trkpt lat="45.6062497" lon="11.4209836"><ele>339.0</ele><time>2026-04-19T08:08:14.983Z</time></trkpt><trkpt lat="45.6061717" lon="11.4210255"><ele>337.1666666666667</ele><time>2026-04-19T08:08:15.983Z</time></trkpt><trkpt lat="45.6060868" lon="11.4210741"><ele>335.3333333333333</ele><time>2026-04-19T08:08:16.983Z</time></trkpt><trkpt lat="45.6059771" lon="11.4211198"><ele>333.5</ele><time>2026-04-19T08:08:17.982Z</time></trkpt><trkpt lat="45.6058988" lon="11.4211408"><ele>331.66666666666663</ele><time>2026-04-19T08:08:18.983Z</time></trkpt><trkpt lat="45.6058378" lon="11.4211994"><ele>329.8333333333333</ele><time>2026-04-19T08:08:19.983Z</time></trkpt><trkpt lat="45.6057641" lon="11.4212398"><ele>328.0</ele><time>2026-04-19T08:08:20.982Z</time></trkpt><trkpt lat="45.6057058" lon="11.421314"><ele>328.0</ele><time>2026-04-19T08:08:21.982Z</time></trkpt><trkpt lat="45.6056464" lon="11.4212757"><ele>328.0</ele><time>2026-04-19T08:08:22.982Z</time></trkpt><trkpt lat="45.605581" lon="11.4212815"><ele>328.0</ele><time>2026-04-19T08:08:23.983Z</time></trkpt><trkpt lat="45.6055053" lon="11.4212859"><ele>328.0</ele><time>2026-04-19T08:08:24.981Z</time></trkpt><trkpt lat="45.6054008" lon="11.4213257"><ele>328.0</ele><time>2026-04-19T08:08:25.983Z</time></trkpt><trkpt lat="45.6053272" lon="11.4213747"><ele>328.0</ele><time>2026-04-19T08:08:26.983Z</time></trkpt><trkpt lat="45.6052524" lon="11.42142"><ele>328.8333333333333</ele><time>2026-04-19T08:08:27.982Z</time></trkpt><trkpt lat="45.6051798" lon="11.4214461"><ele>329.66666666666663</ele><time>2026-04-19T08:08:28.982Z</time></trkpt><trkpt lat="45.605124" lon="11.4214987"><ele>330.5</ele><time>2026-04-19T08:08:29.982Z</time></trkpt><trkpt lat="45.6050499" lon="11.4215323"><ele>331.3333333333333</ele><time>2026-04-19T08:08:30.982Z</time></trkpt><trkpt lat="45.6049569" lon="11.4215335"><ele>332.1666666666667</ele><time>2026-04-19T08:08:31.982Z</time></trkpt><trkpt lat="45.6048423" lon="11.4215405"><ele>333.0</ele><time>2026-04-19T08:08:33.983Z</time></trkpt><trkpt lat="45.6047827" lon="11.4215864"><ele>333.0</ele><time>2026-04-19T08:08:34.982Z</time></trkpt><trkpt lat="45.6047039" lon="11.4216092"><ele>333.0</ele><time>2026-04-19T08:08:35.982Z</time></trkpt><trkpt lat="45.6046306" lon="11.421619"><ele>333.0</ele><time>2026-04-19T08:08:36.983Z</time></trkpt><trkpt lat="45.6045621" lon="11.4216422"><ele>333.0</ele><time>2026-04-19T08:08:37.983Z</time></trkpt><trkpt lat="45.6044962" lon="11.4216514"><ele>333.0</ele><time>2026-04-19T08:08:38.982Z</time></trkpt><trkpt lat="45.6044287" lon="11.421654"><ele>333.0</ele><time>2026-04-19T08:08:39.983Z</time></trkpt><trkpt lat="45.6043644" lon="11.4217011"><ele>333.0</ele><time>2026-04-19T08:08:40.983Z</time></trkpt><trkpt lat="45.6042998" lon="11.4217192"><ele>332.1666666666667</ele><time>2026-04-19T08:08:41.983Z</time></trkpt><trkpt lat="45.6042342" lon="11.4217317"><ele>331.3333333333333</ele><time>2026-04-19T08:08:42.982Z</time></trkpt><trkpt lat="45.604163" lon="11.4217662"><ele>330.5</ele><time>2026-04-19T08:08:43.982Z</time></trkpt><trkpt lat="45.6040472" lon="11.4218279"><ele>329.66666666666663</ele><time>2026-04-19T08:08:45.983Z</time></trkpt><trkpt lat="45.6039808" lon="11.4218219"><ele>328.8333333333333</ele><time>2026-04-19T08:08:46.983Z</time></trkpt><trkpt lat="45.6039167" lon="11.421827"><ele>328.0</ele><time>2026-04-19T08:08:47.982Z</time></trkpt><trkpt lat="45.6038079" lon="11.4218466"><ele>328.0</ele><time>2026-04-19T08:08:49.982Z</time></trkpt><trkpt lat="45.6037382" lon="11.4218625"><ele>328.0</ele><time>2026-04-19T08:08:50.982Z</time></trkpt><trkpt lat="45.6036531" lon="11.4219078"><ele>328.0</ele><time>2026-04-19T08:08:51.983Z</time></trkpt><trkpt lat="45.6035766" lon="11.4219327"><ele>328.0</ele><time>2026-04-19T08:08:52.982Z</time></trkpt><trkpt lat="45.6035018" lon="11.421984"><ele>328.0</ele><time>2026-04-19T08:08:53.982Z</time></trkpt><trkpt lat="45.6034157" lon="11.4220304"><ele>328.0</ele><time>2026-04-19T08:08:54.982Z</time></trkpt><trkpt lat="45.6033376" lon="11.4220515"><ele>326.2</ele><time>2026-04-19T08:08:55.983Z</time></trkpt><trkpt lat="45.6032557" lon="11.422048"><ele>324.4</ele><time>2026-04-19T08:08:56.983Z</time></trkpt><trkpt lat="45.6031784" lon="11.4220656"><ele>322.59999999999997</ele><time>2026-04-19T08:08:57.983Z</time></trkpt><trkpt lat="45.6030485" lon="11.4220681"><ele>320.79999999999995</ele><time>2026-04-19T08:08:59.983Z</time></trkpt><trkpt lat="45.6029378" lon="11.4220737"><ele>319.0</ele><time>2026-04-19T08:09:01.983Z</time></trkpt><trkpt lat="45.6028724" lon="11.4220657"><ele>318.4</ele><time>2026-04-19T08:09:02.982Z</time></trkpt><trkpt lat="45.6028006" lon="11.4220755"><ele>317.79999999999995</ele><time>2026-04-19T08:09:03.982Z</time></trkpt><trkpt lat="45.6026873" lon="11.422076"><ele>317.20000000000005</ele><time>2026-04-19T08:09:05.982Z</time></trkpt><trkpt lat="45.602621" lon="11.4220719"><ele>316.6</ele><time>2026-04-19T08:09:06.982Z</time></trkpt><trkpt lat="45.6024982" lon="11.4220898"><ele>316.0</ele><time>2026-04-19T08:09:08.983Z</time></trkpt><trkpt lat="45.6023765" lon="11.4220627"><ele>316.0</ele><time>2026-04-19T08:09:10.983Z</time></trkpt><trkpt lat="45.6022929" lon="11.4220475"><ele>316.0</ele><time>2026-04-19T08:09:11.982Z</time></trkpt><trkpt lat="45.6021768" lon="11.4220607"><ele>316.0</ele><time>2026-04-19T08:09:12.983Z</time></trkpt><trkpt lat="45.6020741" lon="11.4220604"><ele>316.0</ele><time>2026-04-19T08:09:13.983Z</time></trkpt><trkpt lat="45.6019831" lon="11.4220737"><ele>316.0</ele><time>2026-04-19T08:09:14.983Z</time></trkpt><trkpt lat="45.6019152" lon="11.422068"><ele>315.6</ele><time>2026-04-19T08:09:15.982Z</time></trkpt><trkpt lat="45.6018278" lon="11.4220745"><ele>315.20000000000005</ele><time>2026-04-19T08:09:16.982Z</time></trkpt><trkpt lat="45.6017522" lon="11.4220799"><ele>314.79999999999995</ele><time>2026-04-19T08:09:17.982Z</time></trkpt><trkpt lat="45.6016631" lon="11.4220737"><ele>314.4</ele><time>2026-04-19T08:09:18.983Z</time></trkpt><trkpt lat="45.6015446" lon="11.4220789"><ele>314.0</ele><time>2026-04-19T08:09:19.982Z</time></trkpt><trkpt lat="45.601455" lon="11.4220887"><ele>314.0</ele><time>2026-04-19T08:09:20.982Z</time></trkpt><trkpt lat="45.6013626" lon="11.4221041"><ele>314.0</ele><time>2026-04-19T08:09:21.983Z</time></trkpt><trkpt lat="45.6012763" lon="11.4221322"><ele>314.0</ele><time>2026-04-19T08:09:22.983Z</time></trkpt><trkpt lat="45.6011908" lon="11.4221413"><ele>314.0</ele><time>2026-04-19T08:09:23.982Z</time></trkpt><trkpt lat="45.60111" lon="11.4222161"><ele>314.0</ele><time>2026-04-19T08:09:24.982Z</time></trkpt><trkpt lat="45.6010403" lon="11.4222796"><ele>314.0</ele><time>2026-04-19T08:09:25.982Z</time></trkpt><trkpt lat="45.6009497" lon="11.4223308"><ele>314.6666666666667</ele><time>2026-04-19T08:09:26.982Z</time></trkpt><trkpt lat="45.6008623" lon="11.4223561"><ele>315.33333333333337</ele><time>2026-04-19T08:09:27.982Z</time></trkpt><trkpt lat="45.6007874" lon="11.4223717"><ele>316.0</ele><time>2026-04-19T08:09:28.982Z</time></trkpt><trkpt lat="45.6007112" lon="11.4223876"><ele>316.6666666666667</ele><time>2026-04-19T08:09:29.983Z</time></trkpt><trkpt lat="45.6006272" lon="11.4223958"><ele>317.3333333333333</ele><time>2026-04-19T08:09:30.982Z</time></trkpt><trkpt lat="45.6005592" lon="11.42242"><ele>318.0</ele><time>2026-04-19T08:09:31.983Z</time></trkpt><trkpt lat="45.6004667" lon="11.4224374"><ele>318.0</ele><time>2026-04-19T08:09:32.981Z</time></trkpt><trkpt lat="45.6003796" lon="11.4224731"><ele>318.0</ele><time>2026-04-19T08:09:33.983Z</time></trkpt><trkpt lat="45.6003004" lon="11.4224984"><ele>318.0</ele><time>2026-04-19T08:09:34.983Z</time></trkpt><trkpt lat="45.6002125" lon="11.4225374"><ele>318.0</ele><time>2026-04-19T08:09:35.982Z</time></trkpt><trkpt lat="45.6001275" lon="11.4225767"><ele>318.0</ele><time>2026-04-19T08:09:36.983Z</time></trkpt><trkpt lat="45.6000348" lon="11.4226223"><ele>316.8</ele><time>2026-04-19T08:09:37.981Z</time></trkpt><trkpt lat="45.5999467" lon="11.4226616"><ele>315.6</ele><time>2026-04-19T08:09:38.983Z</time></trkpt><trkpt lat="45.5998712" lon="11.4227101"><ele>314.4</ele><time>2026-04-19T08:09:39.982Z</time></trkpt><trkpt lat="45.5997838" lon="11.4227713"><ele>313.2</ele><time>2026-04-19T08:09:40.983Z</time></trkpt><trkpt lat="45.5996869" lon="11.4228507"><ele>312.0</ele><time>2026-04-19T08:09:41.981Z</time></trkpt><trkpt lat="45.5995952" lon="11.4229055"><ele>311.0</ele><time>2026-04-19T08:09:42.983Z</time></trkpt><trkpt lat="45.5995" lon="11.4229723"><ele>310.0</ele><time>2026-04-19T08:09:43.982Z</time></trkpt><trkpt lat="45.5994026" lon="11.4230399"><ele>309.0</ele><time>2026-04-19T08:09:44.983Z</time></trkpt><trkpt lat="45.5993065" lon="11.4231202"><ele>308.0</ele><time>2026-04-19T08:09:45.984Z</time></trkpt><trkpt lat="45.5992245" lon="11.4231949"><ele>307.0</ele><time>2026-04-19T08:09:46.983Z</time></trkpt><trkpt lat="45.5991581" lon="11.4232876"><ele>306.6</ele><time>2026-04-19T08:09:47.982Z</time></trkpt><trkpt lat="45.5990951" lon="11.4233992"><ele>306.2</ele><time>2026-04-19T08:09:48.983Z</time></trkpt><trkpt lat="45.5990316" lon="11.4235039"><ele>305.8</ele><time>2026-04-19T08:09:49.982Z</time></trkpt><trkpt lat="45.5989453" lon="11.4236148"><ele>305.4</ele><time>2026-04-19T08:09:50.983Z</time></trkpt><trkpt lat="45.5988713" lon="11.4237189"><ele>305.0</ele><time>2026-04-19T08:09:51.984Z</time></trkpt><trkpt lat="45.5987842" lon="11.4237901"><ele>304.1666666666667</ele><time>2026-04-19T08:09:52.984Z</time></trkpt><trkpt lat="45.5987095" lon="11.4238756"><ele>303.33333333333337</ele><time>2026-04-19T08:09:53.983Z</time></trkpt><trkpt lat="45.5986485" lon="11.4239585"><ele>302.5</ele><time>2026-04-19T08:09:54.983Z</time></trkpt><trkpt lat="45.5985766" lon="11.4240316"><ele>301.6666666666667</ele><time>2026-04-19T08:09:55.983Z</time></trkpt><trkpt lat="45.5985077" lon="11.4240607"><ele>300.8333333333333</ele><time>2026-04-19T08:09:56.983Z</time></trkpt><trkpt lat="45.5984401" lon="11.4241084"><ele>300.0</ele><time>2026-04-19T08:09:57.983Z</time></trkpt><trkpt lat="45.598374" lon="11.4241674"><ele>300.0</ele><time>2026-04-19T08:09:58.983Z</time></trkpt><trkpt lat="45.5983125" lon="11.4242176"><ele>300.0</ele><time>2026-04-19T08:09:59.983Z</time></trkpt><trkpt lat="45.5982237" lon="11.4242688"><ele>300.0</ele><time>2026-04-19T08:10:00.981Z</time></trkpt><trkpt lat="45.5981249" lon="11.4243422"><ele>300.0</ele><time>2026-04-19T08:10:01.982Z</time></trkpt><trkpt lat="45.5980595" lon="11.4243744"><ele>300.0</ele><time>2026-04-19T08:10:02.982Z</time></trkpt><trkpt lat="45.5979809" lon="11.4244109"><ele>300.0</ele><time>2026-04-19T08:10:03.982Z</time></trkpt><trkpt lat="45.5978972" lon="11.4244622"><ele>300.0</ele><time>2026-04-19T08:10:04.983Z</time></trkpt><trkpt lat="45.5978237" lon="11.4245117"><ele>300.0</ele><time>2026-04-19T08:10:05.983Z</time></trkpt><trkpt lat="45.5977488" lon="11.4245742"><ele>300.0</ele><time>2026-04-19T08:10:06.981Z</time></trkpt><trkpt lat="45.59768" lon="11.4246345"><ele>300.0</ele><time>2026-04-19T08:10:07.983Z</time></trkpt><trkpt lat="45.5976164" lon="11.4247026"><ele>300.0</ele><time>2026-04-19T08:10:08.984Z</time></trkpt><trkpt lat="45.5975217" lon="11.424815"><ele>300.0</ele><time>2026-04-19T08:10:10.983Z</time></trkpt><trkpt lat="45.5975019" lon="11.4249203"><ele>300.0</ele><time>2026-04-19T08:10:12.982Z</time></trkpt><trkpt lat="45.5974412" lon="11.4250298"><ele>300.0</ele><time>2026-04-19T08:10:14.983Z</time></trkpt><trkpt lat="45.5973775" lon="11.425094"><ele>300.0</ele><time>2026-04-19T08:10:19.981Z</time></trkpt><trkpt lat="45.5973202" lon="11.4251429"><ele>300.0</ele><time>2026-04-19T08:10:22.981Z</time></trkpt><trkpt lat="45.5972764" lon="11.425209"><ele>300.0</ele><time>2026-04-19T08:10:25.982Z</time></trkpt><trkpt lat="45.5972219" lon="11.4252916"><ele>299.99999999999994</ele><time>2026-04-19T08:10:28.983Z</time></trkpt><trkpt lat="45.5971793" lon="11.4253806"><ele>300.0</ele><time>2026-04-19T08:10:31.982Z</time></trkpt><trkpt lat="45.5971286" lon="11.4254663"><ele>300.0</ele><time>2026-04-19T08:10:35.983Z</time></trkpt><trkpt lat="45.5970791" lon="11.4255245"><ele>300.0</ele><time>2026-04-19T08:10:39.983Z</time></trkpt><trkpt lat="45.5970098" lon="11.425583"><ele>300.0</ele><time>2026-04-19T08:10:43.983Z</time></trkpt><trkpt lat="45.5969381" lon="11.4256468"><ele>299.99999999999994</ele><time>2026-04-19T08:10:46.983Z</time></trkpt><trkpt lat="45.5968781" lon="11.4256792"><ele>300.0</ele><time>2026-04-19T08:10:48.983Z</time></trkpt><trkpt lat="45.596797" lon="11.4257351"><ele>301.3333333333333</ele><time>2026-04-19T08:10:51.983Z</time></trkpt><trkpt lat="45.5967271" lon="11.4257897"><ele>302.6666666666667</ele><time>2026-04-19T08:10:54.983Z</time></trkpt><trkpt lat="45.5966679" lon="11.4258519"><ele>304.0</ele><time>2026-04-19T08:10:57.982Z</time></trkpt><trkpt lat="45.5966038" lon="11.4259137"><ele>305.33333333333337</ele><time>2026-04-19T08:11:00.981Z</time></trkpt><trkpt lat="45.5965354" lon="11.4259553"><ele>306.6666666666667</ele><time>2026-04-19T08:11:03.983Z</time></trkpt><trkpt lat="45.5964685" lon="11.4259978"><ele>308.0</ele><time>2026-04-19T08:11:06.983Z</time></trkpt><trkpt lat="45.5964056" lon="11.4260525"><ele>308.0</ele><time>2026-04-19T08:11:09.982Z</time></trkpt><trkpt lat="45.596347" lon="11.4260891"><ele>308.0</ele><time>2026-04-19T08:11:12.983Z</time></trkpt><trkpt lat="45.596281" lon="11.4261421"><ele>308.0</ele><time>2026-04-19T08:11:18.982Z</time></trkpt><trkpt lat="45.5963624" lon="11.4261121"><ele>308.0</ele><time>2026-04-19T08:11:28.982Z</time></trkpt><trkpt lat="45.5964269" lon="11.426069"><ele>308.0</ele><time>2026-04-19T08:11:30.981Z</time></trkpt><trkpt lat="45.596499" lon="11.4260111"><ele>308.0</ele><time>2026-04-19T08:11:32.983Z</time></trkpt><trkpt lat="45.5965736" lon="11.4259448"><ele>308.0</ele><time>2026-04-19T08:11:34.983Z</time></trkpt><trkpt lat="45.5966633" lon="11.4258729"><ele>308.0</ele><time>2026-04-19T08:11:36.982Z</time></trkpt><trkpt lat="45.5967452" lon="11.4258005"><ele>308.0</ele><time>2026-04-19T08:11:38.983Z</time></trkpt><trkpt lat="45.596857" lon="11.4257064"><ele>308.0</ele><time>2026-04-19T08:11:40.982Z</time></trkpt><trkpt lat="45.5969242" lon="11.4256546"><ele>308.0</ele><time>2026-04-19T08:11:41.982Z</time></trkpt><trkpt lat="45.5969955" lon="11.425598"><ele>306.4</ele><time>2026-04-19T08:11:42.983Z</time></trkpt><trkpt lat="45.5970839" lon="11.4255033"><ele>304.8</ele><time>2026-04-19T08:11:43.982Z</time></trkpt><trkpt lat="45.5971524" lon="11.4254133"><ele>303.2</ele><time>2026-04-19T08:11:44.982Z</time></trkpt><trkpt lat="45.5972084" lon="11.4253365"><ele>301.6</ele><time>2026-04-19T08:11:45.983Z</time></trkpt><trkpt lat="45.5972622" lon="11.425222"><ele>300.0</ele><time>2026-04-19T08:11:46.982Z</time></trkpt><trkpt lat="45.5973197" lon="11.4251429"><ele>300.0</ele><time>2026-04-19T08:11:47.982Z</time></trkpt><trkpt lat="45.5973847" lon="11.4250579"><ele>300.0</ele><time>2026-04-19T08:11:48.981Z</time></trkpt><trkpt lat="45.5974918" lon="11.4249558"><ele>300.0</ele><time>2026-04-19T08:11:50.983Z</time></trkpt><trkpt lat="45.597532" lon="11.4248486"><ele>300.0</ele><time>2026-04-19T08:11:51.982Z</time></trkpt><trkpt lat="45.5975748" lon="11.4247463"><ele>300.0</ele><time>2026-04-19T08:11:52.983Z</time></trkpt><trkpt lat="45.5976208" lon="11.424656"><ele>300.0</ele><time>2026-04-19T08:11:53.982Z</time></trkpt><trkpt lat="45.5977017" lon="11.4246124"><ele>300.0</ele><time>2026-04-19T08:11:54.982Z</time></trkpt><trkpt lat="45.5977675" lon="11.4245497"><ele>300.0</ele><time>2026-04-19T08:11:55.982Z</time></trkpt><trkpt lat="45.5978379" lon="11.4244939"><ele>300.0</ele><time>2026-04-19T08:11:56.983Z</time></trkpt><trkpt lat="45.5979003" lon="11.4244449"><ele>300.0</ele><time>2026-04-19T08:11:57.982Z</time></trkpt><trkpt lat="45.5979711" lon="11.4244064"><ele>300.0</ele><time>2026-04-19T08:11:58.981Z</time></trkpt><trkpt lat="45.5980823" lon="11.4243439"><ele>300.0</ele><time>2026-04-19T08:12:00.982Z</time></trkpt><trkpt lat="45.5981725" lon="11.4242708"><ele>300.0</ele><time>2026-04-19T08:12:02.983Z</time></trkpt><trkpt lat="45.5982404" lon="11.424259"><ele>300.0</ele><time>2026-04-19T08:12:06.982Z</time></trkpt><trkpt lat="45.5983016" lon="11.4242073"><ele>300.0</ele><time>2026-04-19T08:12:09.983Z</time></trkpt><trkpt lat="45.5983631" lon="11.4241363"><ele>300.0</ele><time>2026-04-19T08:12:12.983Z</time></trkpt><trkpt lat="45.598443" lon="11.424112"><ele>300.0</ele><time>2026-04-19T08:12:14.982Z</time></trkpt><trkpt lat="45.5985062" lon="11.4240947"><ele>299.99999999999994</ele><time>2026-04-19T08:12:16.983Z</time></trkpt><trkpt lat="45.5985815" lon="11.4240452"><ele>300.0</ele><time>2026-04-19T08:12:20.982Z</time></trkpt><trkpt lat="45.5986478" lon="11.4239759"><ele>300.0</ele><time>2026-04-19T08:12:23.983Z</time></trkpt><trkpt lat="45.5986969" lon="11.4239123"><ele>300.0</ele><time>2026-04-19T08:12:25.982Z</time></trkpt><trkpt lat="45.5987511" lon="11.4238508"><ele>300.0</ele><time>2026-04-19T08:12:27.983Z</time></trkpt><trkpt lat="45.5988073" lon="11.4237943"><ele>299.99999999999994</ele><time>2026-04-19T08:12:29.982Z</time></trkpt><trkpt lat="45.5988579" lon="11.42374"><ele>300.0</ele><time>2026-04-19T08:12:31.983Z</time></trkpt><trkpt lat="45.5989167" lon="11.4236874"><ele>300.71428571428567</ele><time>2026-04-19T08:12:33.982Z</time></trkpt><trkpt lat="45.5989716" lon="11.4236418"><ele>301.42857142857144</ele><time>2026-04-19T08:12:35.982Z</time></trkpt><trkpt lat="45.5990243" lon="11.423586"><ele>302.1428571428571</ele><time>2026-04-19T08:12:37.983Z</time></trkpt><trkpt lat="45.5990722" lon="11.4235255"><ele>302.85714285714283</ele><time>2026-04-19T08:12:39.981Z</time></trkpt><trkpt lat="45.5991408" lon="11.4234468"><ele>303.57142857142856</ele><time>2026-04-19T08:12:42.982Z</time></trkpt><trkpt lat="45.5991949" lon="11.4233474"><ele>304.2857142857143</ele><time>2026-04-19T08:12:45.983Z</time></trkpt><trkpt lat="45.5992435" lon="11.4232669"><ele>305.0</ele><time>2026-04-19T08:12:49.983Z</time></trkpt><trkpt lat="45.5993105" lon="11.4231929"><ele>305.0</ele><time>2026-04-19T08:12:53.983Z</time></trkpt><trkpt lat="45.5993655" lon="11.4231466"><ele>305.0</ele><time>2026-04-19T08:12:56.983Z</time></trkpt><trkpt lat="45.5994311" lon="11.4231104"><ele>305.0</ele><time>2026-04-19T08:13:00.982Z</time></trkpt><trkpt lat="45.5994981" lon="11.4230691"><ele>305.0</ele><time>2026-04-19T08:13:04.983Z</time></trkpt><trkpt lat="45.5995668" lon="11.4230242"><ele>305.0</ele><time>2026-04-19T08:13:08.983Z</time></trkpt><trkpt lat="45.5996423" lon="11.4229888"><ele>305.0</ele><time>2026-04-19T08:13:12.983Z</time></trkpt><trkpt lat="45.5997132" lon="11.4229462"><ele>305.0</ele><time>2026-04-19T08:13:16.983Z</time></trkpt><trkpt lat="45.5997779" lon="11.4228856"><ele>306.0</ele><time>2026-04-19T08:13:20.982Z</time></trkpt><trkpt lat="45.5998403" lon="11.4228429"><ele>307.0</ele><time>2026-04-19T08:13:23.983Z</time></trkpt><trkpt lat="45.5999022" lon="11.42279"><ele>308.0</ele><time>2026-04-19T08:13:26.982Z</time></trkpt><trkpt lat="45.5999552" lon="11.4227401"><ele>309.0</ele><time>2026-04-19T08:13:29.983Z</time></trkpt><trkpt lat="45.60003" lon="11.4226975"><ele>310.0</ele><time>2026-04-19T08:13:33.981Z</time></trkpt><trkpt lat="45.6000886" lon="11.4226484"><ele>311.0</ele><time>2026-04-19T08:13:37.982Z</time></trkpt><trkpt lat="45.600139" lon="11.4225791"><ele>312.0</ele><time>2026-04-19T08:13:41.981Z</time></trkpt><trkpt lat="45.6002144" lon="11.422546"><ele>312.0</ele><time>2026-04-19T08:13:45.983Z</time></trkpt><trkpt lat="45.6002832" lon="11.4225073"><ele>312.0</ele><time>2026-04-19T08:13:49.983Z</time></trkpt><trkpt lat="45.6003463" lon="11.4224828"><ele>312.0</ele><time>2026-04-19T08:13:53.981Z</time></trkpt><trkpt lat="45.6004154" lon="11.4224534"><ele>312.0</ele><time>2026-04-19T08:13:57.983Z</time></trkpt><trkpt lat="45.6004863" lon="11.4224337"><ele>312.0</ele><time>2026-04-19T08:14:01.982Z</time></trkpt><trkpt lat="45.6005536" lon="11.4224317"><ele>312.0</ele><time>2026-04-19T08:14:05.982Z</time></trkpt><trkpt lat="45.6006222" lon="11.422427"><ele>312.0</ele><time>2026-04-19T08:14:09.983Z</time></trkpt><trkpt lat="45.6006881" lon="11.4223909"><ele>312.8571428571429</ele><time>2026-04-19T08:14:13.982Z</time></trkpt><trkpt lat="45.6007597" lon="11.4223527"><ele>313.71428571428567</ele><time>2026-04-19T08:14:17.982Z</time></trkpt><trkpt lat="45.6008399" lon="11.4223352"><ele>314.57142857142856</ele><time>2026-04-19T08:14:21.982Z</time></trkpt><trkpt lat="45.6009094" lon="11.4223193"><ele>315.42857142857144</ele><time>2026-04-19T08:14:24.983Z</time></trkpt><trkpt lat="45.6009729" lon="11.4222877"><ele>316.28571428571433</ele><time>2026-04-19T08:14:27.982Z</time></trkpt><trkpt lat="45.6010327" lon="11.4222474"><ele>317.1428571428571</ele><time>2026-04-19T08:14:30.983Z</time></trkpt><trkpt lat="45.6010957" lon="11.4222235"><ele>318.0</ele><time>2026-04-19T08:14:33.982Z</time></trkpt><trkpt lat="45.6011478" lon="11.4221567"><ele>317.2</ele><time>2026-04-19T08:14:36.982Z</time></trkpt><trkpt lat="45.6013782" lon="11.4221469"><ele>316.4</ele><time>2026-04-19T08:14:47.982Z</time></trkpt><trkpt lat="45.6014575" lon="11.4221258"><ele>315.59999999999997</ele><time>2026-04-19T08:14:51.983Z</time></trkpt><trkpt lat="45.6015225" lon="11.4221154"><ele>314.8</ele><time>2026-04-19T08:14:55.982Z</time></trkpt><trkpt lat="45.6015884" lon="11.4220845"><ele>314.0</ele><time>2026-04-19T08:15:00.982Z</time></trkpt><trkpt lat="45.6016641" lon="11.4220738"><ele>313.99999999999994</ele><time>2026-04-19T08:15:06.983Z</time></trkpt><trkpt lat="45.6017286" lon="11.4220598"><ele>314.0</ele><time>2026-04-19T08:15:10.983Z</time></trkpt><trkpt lat="45.6018067" lon="11.4220763"><ele>314.0</ele><time>2026-04-19T08:15:14.982Z</time></trkpt><trkpt lat="45.6018703" lon="11.4220965"><ele>314.0</ele><time>2026-04-19T08:15:17.982Z</time></trkpt><trkpt lat="45.601948" lon="11.4221148"><ele>314.0</ele><time>2026-04-19T08:15:21.982Z</time></trkpt><trkpt lat="45.6020292" lon="11.4221323"><ele>313.99999999999994</ele><time>2026-04-19T08:15:25.981Z</time></trkpt><trkpt lat="45.602101" lon="11.4221533"><ele>314.0</ele><time>2026-04-19T08:15:28.981Z</time></trkpt><trkpt lat="45.6021789" lon="11.4221784"><ele>317.0</ele><time>2026-04-19T08:15:31.982Z</time></trkpt><trkpt lat="45.6022689" lon="11.4221976"><ele>320.0</ele><time>2026-04-19T08:15:34.983Z</time></trkpt><trkpt lat="45.6023379" lon="11.4222058"><ele>323.0</ele><time>2026-04-19T08:15:36.983Z</time></trkpt><trkpt lat="45.6025489" lon="11.4222043"><ele>326.0</ele><time>2026-04-19T08:15:43.982Z</time></trkpt><trkpt lat="45.6026196" lon="11.4222038"><ele>329.0</ele><time>2026-04-19T08:15:45.981Z</time></trkpt><trkpt lat="45.60269" lon="11.422211"><ele>329.0</ele><time>2026-04-19T08:15:47.982Z</time></trkpt><trkpt lat="45.602754" lon="11.4222142"><ele>329.0</ele><time>2026-04-19T08:15:49.982Z</time></trkpt><trkpt lat="45.6028245" lon="11.4222044"><ele>329.0</ele><time>2026-04-19T08:15:51.982Z</time></trkpt><trkpt lat="45.6028927" lon="11.4221916"><ele>329.0</ele><time>2026-04-19T08:15:53.982Z</time></trkpt><trkpt lat="45.6029624" lon="11.4221727"><ele>329.0</ele><time>2026-04-19T08:15:55.983Z</time></trkpt><trkpt lat="45.603035" lon="11.4221575"><ele>329.0</ele><time>2026-04-19T08:15:57.983Z</time></trkpt><trkpt lat="45.6031066" lon="11.422148"><ele>329.0</ele><time>2026-04-19T08:15:59.983Z</time></trkpt><trkpt lat="45.603178" lon="11.42213"><ele>327.33333333333337</ele><time>2026-04-19T08:16:01.982Z</time></trkpt><trkpt lat="45.6032474" lon="11.4221094"><ele>325.6666666666667</ele><time>2026-04-19T08:16:03.982Z</time></trkpt><trkpt lat="45.6033154" lon="11.4220591"><ele>324.0</ele><time>2026-04-19T08:16:06.983Z</time></trkpt><trkpt lat="45.6033917" lon="11.4220071"><ele>322.3333333333333</ele><time>2026-04-19T08:16:09.982Z</time></trkpt><trkpt lat="45.6034748" lon="11.4219632"><ele>320.66666666666663</ele><time>2026-04-19T08:16:12.983Z</time></trkpt><trkpt lat="45.6035401" lon="11.4219287"><ele>319.0</ele><time>2026-04-19T08:16:14.982Z</time></trkpt><trkpt lat="45.6036084" lon="11.4219036"><ele>320.5</ele><time>2026-04-19T08:16:16.982Z</time></trkpt><trkpt lat="45.6036845" lon="11.4218795"><ele>322.0</ele><time>2026-04-19T08:16:18.982Z</time></trkpt><trkpt lat="45.6037654" lon="11.4218634"><ele>323.5</ele><time>2026-04-19T08:16:20.983Z</time></trkpt><trkpt lat="45.6038419" lon="11.4218672"><ele>325.0</ele><time>2026-04-19T08:16:22.982Z</time></trkpt><trkpt lat="45.6039065" lon="11.4218816"><ele>326.5</ele><time>2026-04-19T08:16:24.982Z</time></trkpt><trkpt lat="45.6040008" lon="11.4218802"><ele>328.0</ele><time>2026-04-19T08:16:27.982Z</time></trkpt><trkpt lat="45.6040665" lon="11.4218705"><ele>328.0</ele><time>2026-04-19T08:16:29.983Z</time></trkpt><trkpt lat="45.6041297" lon="11.4218594"><ele>328.0</ele><time>2026-04-19T08:16:31.982Z</time></trkpt><trkpt lat="45.6042213" lon="11.4218432"><ele>328.0</ele><time>2026-04-19T08:16:34.982Z</time></trkpt><trkpt lat="45.6043137" lon="11.4218126"><ele>328.0</ele><time>2026-04-19T08:16:37.982Z</time></trkpt><trkpt lat="45.6043786" lon="11.4217773"><ele>328.0</ele><time>2026-04-19T08:16:39.982Z</time></trkpt><trkpt lat="45.6044462" lon="11.4217488"><ele>328.0</ele><time>2026-04-19T08:16:41.982Z</time></trkpt><trkpt lat="45.6045244" lon="11.4217283"><ele>328.8333333333333</ele><time>2026-04-19T08:16:43.983Z</time></trkpt><trkpt lat="45.604609" lon="11.4217134"><ele>329.66666666666663</ele><time>2026-04-19T08:16:45.983Z</time></trkpt><trkpt lat="45.6046866" lon="11.4217104"><ele>330.5</ele><time>2026-04-19T08:16:47.982Z</time></trkpt><trkpt lat="45.6047808" lon="11.4217151"><ele>331.3333333333333</ele><time>2026-04-19T08:16:50.982Z</time></trkpt><trkpt lat="45.6048664" lon="11.4217006"><ele>332.1666666666667</ele><time>2026-04-19T08:16:53.983Z</time></trkpt><trkpt lat="45.6049296" lon="11.4216646"><ele>333.0</ele><time>2026-04-19T08:16:55.981Z</time></trkpt><trkpt lat="45.604986" lon="11.4216227"><ele>333.0</ele><time>2026-04-19T08:16:57.983Z</time></trkpt><trkpt lat="45.6050521" lon="11.4215791"><ele>333.0</ele><time>2026-04-19T08:16:59.982Z</time></trkpt><trkpt lat="45.6051198" lon="11.4215463"><ele>333.0</ele><time>2026-04-19T08:17:01.983Z</time></trkpt><trkpt lat="45.605194" lon="11.4215171"><ele>333.0</ele><time>2026-04-19T08:17:03.982Z</time></trkpt><trkpt lat="45.6052644" lon="11.4214848"><ele>333.0</ele><time>2026-04-19T08:17:05.983Z</time></trkpt><trkpt lat="45.605328" lon="11.4214465"><ele>333.0</ele><time>2026-04-19T08:17:07.983Z</time></trkpt><trkpt lat="45.6053929" lon="11.4214111"><ele>333.0</ele><time>2026-04-19T08:17:09.983Z</time></trkpt><trkpt lat="45.6054579" lon="11.4213964"><ele>332.2857142857143</ele><time>2026-04-19T08:17:11.982Z</time></trkpt><trkpt lat="45.6055281" lon="11.4214024"><ele>331.57142857142856</ele><time>2026-04-19T08:17:14.983Z</time></trkpt><trkpt lat="45.6056015" lon="11.421386"><ele>330.85714285714283</ele><time>2026-04-19T08:17:17.982Z</time></trkpt><trkpt lat="45.6056746" lon="11.4213592"><ele>330.1428571428571</ele><time>2026-04-19T08:17:20.983Z</time></trkpt><trkpt lat="45.6057355" lon="11.4213324"><ele>329.42857142857144</ele><time>2026-04-19T08:17:22.982Z</time></trkpt><trkpt lat="45.6058004" lon="11.4213199"><ele>328.71428571428567</ele><time>2026-04-19T08:17:24.981Z</time></trkpt><trkpt lat="45.6058905" lon="11.421309"><ele>328.0</ele><time>2026-04-19T08:17:27.981Z</time></trkpt><trkpt lat="45.6059762" lon="11.4212665"><ele>328.0</ele><time>2026-04-19T08:17:30.983Z</time></trkpt><trkpt lat="45.6060454" lon="11.4212345"><ele>328.0</ele><time>2026-04-19T08:17:32.982Z</time></trkpt><trkpt lat="45.6061182" lon="11.421197"><ele>328.0</ele><time>2026-04-19T08:17:34.982Z</time></trkpt><trkpt lat="45.6061838" lon="11.4211538"><ele>328.0</ele><time>2026-04-19T08:17:36.982Z</time></trkpt><trkpt lat="45.6062428" lon="11.4211086"><ele>328.0</ele><time>2026-04-19T08:17:38.982Z</time></trkpt><trkpt lat="45.6063115" lon="11.4210636"><ele>328.0</ele><time>2026-04-19T08:17:41.982Z</time></trkpt><trkpt lat="45.6063919" lon="11.421006"><ele>329.57142857142856</ele><time>2026-04-19T08:17:44.982Z</time></trkpt><trkpt lat="45.6064513" lon="11.4209736"><ele>331.1428571428571</ele><time>2026-04-19T08:17:46.982Z</time></trkpt><trkpt lat="45.6065204" lon="11.4209603"><ele>332.71428571428567</ele><time>2026-04-19T08:17:48.983Z</time></trkpt><trkpt lat="45.6065914" lon="11.420939"><ele>334.2857142857143</ele><time>2026-04-19T08:17:50.982Z</time></trkpt><trkpt lat="45.6066731" lon="11.4209148"><ele>335.8571428571429</ele><time>2026-04-19T08:17:52.982Z</time></trkpt><trkpt lat="45.6067462" lon="11.4208919"><ele>337.4285714285714</ele><time>2026-04-19T08:17:54.983Z</time></trkpt><trkpt lat="45.6068204" lon="11.4208659"><ele>339.0</ele><time>2026-04-19T08:17:56.981Z</time></trkpt><trkpt lat="45.6068927" lon="11.420838"><ele>340.75</ele><time>2026-04-19T08:17:58.982Z</time></trkpt><trkpt lat="45.6071107" lon="11.4208273"><ele>342.5</ele><time>2026-04-19T08:18:05.983Z</time></trkpt><trkpt lat="45.607195" lon="11.420827"><ele>344.25</ele><time>2026-04-19T08:18:07.983Z</time></trkpt><trkpt lat="45.6073171" lon="11.4208404"><ele>346.0</ele><time>2026-04-19T08:18:10.983Z</time></trkpt><trkpt lat="45.6073991" lon="11.4208467"><ele>346.0</ele><time>2026-04-19T08:18:13.983Z</time></trkpt><trkpt lat="45.6074758" lon="11.4208019"><ele>346.0</ele><time>2026-04-19T08:18:16.982Z</time></trkpt><trkpt lat="45.6075579" lon="11.4207903"><ele>346.0</ele><time>2026-04-19T08:18:19.983Z</time></trkpt><trkpt lat="45.6076298" lon="11.4207669"><ele>346.0</ele><time>2026-04-19T08:18:21.983Z</time></trkpt><trkpt lat="45.607712" lon="11.4207499"><ele>346.0</ele><time>2026-04-19T08:18:24.983Z</time></trkpt><trkpt lat="45.6077836" lon="11.4207425"><ele>346.0</ele><time>2026-04-19T08:18:27.982Z</time></trkpt><trkpt lat="45.6079461" lon="11.4207707"><ele>346.66666666666663</ele><time>2026-04-19T08:18:35.983Z</time></trkpt><trkpt lat="45.6081689" lon="11.4207601"><ele>347.3333333333333</ele><time>2026-04-19T08:18:41.982Z</time></trkpt><trkpt lat="45.6083852" lon="11.4207967"><ele>348.0</ele><time>2026-04-19T08:18:45.982Z</time></trkpt><trkpt lat="45.6084548" lon="11.4207935"><ele>348.0</ele><time>2026-04-19T08:18:46.982Z</time></trkpt><trkpt lat="45.6085324" lon="11.4207854"><ele>348.0</ele><time>2026-04-19T08:18:47.982Z</time></trkpt><trkpt lat="45.6086196" lon="11.4207868"><ele>348.0</ele><time>2026-04-19T08:18:48.983Z</time></trkpt><trkpt lat="45.6087046" lon="11.4207932"><ele>348.0</ele><time>2026-04-19T08:18:49.983Z</time></trkpt><trkpt lat="45.6087815" lon="11.4208031"><ele>348.0</ele><time>2026-04-19T08:18:50.983Z</time></trkpt><trkpt lat="45.6088578" lon="11.4208191"><ele>348.0</ele><time>2026-04-19T08:18:51.983Z</time></trkpt><trkpt lat="45.6090762" lon="11.4208018"><ele>347.6666666666667</ele><time>2026-04-19T08:18:52.982Z</time></trkpt><trkpt lat="45.6091961" lon="11.4208505"><ele>347.3333333333333</ele><time>2026-04-19T08:18:54.982Z</time></trkpt><trkpt lat="45.6092558" lon="11.420883"><ele>347.0</ele><time>2026-04-19T08:18:55.983Z</time></trkpt><trkpt lat="45.6093254" lon="11.4209038"><ele>346.66666666666663</ele><time>2026-04-19T08:18:56.983Z</time></trkpt><trkpt lat="45.6094047" lon="11.4209438"><ele>346.3333333333333</ele><time>2026-04-19T08:18:57.982Z</time></trkpt><trkpt lat="45.6094728" lon="11.4209791"><ele>346.0</ele><time>2026-04-19T08:18:58.982Z</time></trkpt><trkpt lat="45.6095492" lon="11.4210285"><ele>346.20000000000005</ele><time>2026-04-19T08:18:59.983Z</time></trkpt><trkpt lat="45.6096335" lon="11.4211482"><ele>346.40000000000003</ele><time>2026-04-19T08:19:01.981Z</time></trkpt><trkpt lat="45.6097235" lon="11.4212045"><ele>346.6</ele><time>2026-04-19T08:19:02.982Z</time></trkpt><trkpt lat="45.609793" lon="11.4212388"><ele>346.8</ele><time>2026-04-19T08:19:03.983Z</time></trkpt><trkpt lat="45.6098763" lon="11.4213633"><ele>347.0</ele><time>2026-04-19T08:19:05.982Z</time></trkpt><trkpt lat="45.6099422" lon="11.4214873"><ele>347.0</ele><time>2026-04-19T08:19:07.983Z</time></trkpt><trkpt lat="45.6099893" lon="11.4216046"><ele>347.0</ele><time>2026-04-19T08:19:09.982Z</time></trkpt><trkpt lat="45.61003" lon="11.4217193"><ele>347.0</ele><time>2026-04-19T08:19:11.982Z</time></trkpt><trkpt lat="45.6100652" lon="11.421819"><ele>347.0</ele><time>2026-04-19T08:19:13.982Z</time></trkpt><trkpt lat="45.6101041" lon="11.4219578"><ele>347.0</ele><time>2026-04-19T08:19:15.983Z</time></trkpt><trkpt lat="45.6101207" lon="11.4221176"><ele>345.5</ele><time>2026-04-19T08:19:17.983Z</time></trkpt><trkpt lat="45.6101684" lon="11.4222407"><ele>344.0</ele><time>2026-04-19T08:19:19.983Z</time></trkpt><trkpt lat="45.6102228" lon="11.4223699"><ele>342.5</ele><time>2026-04-19T08:19:21.983Z</time></trkpt><trkpt lat="45.6102437" lon="11.422457"><ele>341.0</ele><time>2026-04-19T08:19:23.981Z</time></trkpt><trkpt lat="45.610256" lon="11.4225792"><ele>339.5</ele><time>2026-04-19T08:19:25.982Z</time></trkpt><trkpt lat="45.610265" lon="11.4226727"><ele>338.0</ele><time>2026-04-19T08:19:27.982Z</time></trkpt><trkpt lat="45.6102787" lon="11.4227676"><ele>338.0</ele><time>2026-04-19T08:19:29.982Z</time></trkpt><trkpt lat="45.6102983" lon="11.422875"><ele>338.0</ele><time>2026-04-19T08:19:31.983Z</time></trkpt><trkpt lat="45.6103079" lon="11.4229753"><ele>338.0</ele><time>2026-04-19T08:19:33.983Z</time></trkpt><trkpt lat="45.6103086" lon="11.4230708"><ele>338.0</ele><time>2026-04-19T08:19:35.983Z</time></trkpt><trkpt lat="45.6103074" lon="11.4231635"><ele>338.0</ele><time>2026-04-19T08:19:37.983Z</time></trkpt><trkpt lat="45.6103056" lon="11.4232549"><ele>338.0</ele><time>2026-04-19T08:19:39.981Z</time></trkpt><trkpt lat="45.6103076" lon="11.4233647"><ele>338.0</ele><time>2026-04-19T08:19:41.983Z</time></trkpt><trkpt lat="45.6103116" lon="11.4234721"><ele>338.1666666666667</ele><time>2026-04-19T08:19:43.983Z</time></trkpt><trkpt lat="45.6103001" lon="11.4235678"><ele>338.33333333333337</ele><time>2026-04-19T08:19:45.983Z</time></trkpt><trkpt lat="45.6102754" lon="11.4236858"><ele>338.5</ele><time>2026-04-19T08:19:48.982Z</time></trkpt><trkpt lat="45.6102635" lon="11.4237983"><ele>338.6666666666667</ele><time>2026-04-19T08:19:51.982Z</time></trkpt><trkpt lat="45.6102674" lon="11.423894"><ele>338.8333333333333</ele><time>2026-04-19T08:19:53.983Z</time></trkpt><trkpt lat="45.6102841" lon="11.4240193"><ele>339.0</ele><time>2026-04-19T08:19:55.982Z</time></trkpt><trkpt lat="45.6103037" lon="11.4241619"><ele>339.6666666666667</ele><time>2026-04-19T08:19:57.983Z</time></trkpt><trkpt lat="45.6102903" lon="11.4243264"><ele>340.3333333333333</ele><time>2026-04-19T08:19:59.983Z</time></trkpt><trkpt lat="45.6102794" lon="11.4244262"><ele>341.0</ele><time>2026-04-19T08:20:02.983Z</time></trkpt><trkpt lat="45.6102394" lon="11.4245271"><ele>341.66666666666663</ele><time>2026-04-19T08:20:04.982Z</time></trkpt><trkpt lat="45.6102005" lon="11.424611"><ele>342.3333333333333</ele><time>2026-04-19T08:20:05.982Z</time></trkpt><trkpt lat="45.610163" lon="11.4246924"><ele>343.0</ele><time>2026-04-19T08:20:06.982Z</time></trkpt><trkpt lat="45.6101102" lon="11.424815"><ele>343.4</ele><time>2026-04-19T08:20:08.983Z</time></trkpt><trkpt lat="45.610079" lon="11.4249039"><ele>343.79999999999995</ele><time>2026-04-19T08:20:10.983Z</time></trkpt><trkpt lat="45.610027" lon="11.4250185"><ele>344.2</ele><time>2026-04-19T08:20:12.983Z</time></trkpt><trkpt lat="45.6099698" lon="11.4251449"><ele>344.6</ele><time>2026-04-19T08:20:14.983Z</time></trkpt><trkpt lat="45.6099265" lon="11.4252859"><ele>345.0</ele><time>2026-04-19T08:20:16.983Z</time></trkpt><trkpt lat="45.6098974" lon="11.4254378"><ele>346.0</ele><time>2026-04-19T08:20:18.983Z</time></trkpt><trkpt lat="45.6098773" lon="11.4255951"><ele>347.0</ele><time>2026-04-19T08:20:20.983Z</time></trkpt><trkpt lat="45.6098683" lon="11.4257434"><ele>348.0</ele><time>2026-04-19T08:20:22.983Z</time></trkpt><trkpt lat="45.609864" lon="11.4258844"><ele>349.0</ele><time>2026-04-19T08:20:24.981Z</time></trkpt><trkpt lat="45.6098637" lon="11.4260268"><ele>350.0</ele><time>2026-04-19T08:20:26.981Z</time></trkpt><trkpt lat="45.6098406" lon="11.4261528"><ele>350.0</ele><time>2026-04-19T08:20:28.983Z</time></trkpt><trkpt lat="45.6098119" lon="11.426274"><ele>350.0</ele><time>2026-04-19T08:20:30.983Z</time></trkpt><trkpt lat="45.609793" lon="11.4264078"><ele>350.0</ele><time>2026-04-19T08:20:32.983Z</time></trkpt><trkpt lat="45.6097752" lon="11.426543"><ele>350.0</ele><time>2026-04-19T08:20:34.982Z</time></trkpt><trkpt lat="45.609762" lon="11.4266846"><ele>350.0</ele><time>2026-04-19T08:20:36.982Z</time></trkpt><trkpt lat="45.6097535" lon="11.4268113"><ele>349.6666666666667</ele><time>2026-04-19T08:20:38.983Z</time></trkpt><trkpt lat="45.6097184" lon="11.4269299"><ele>349.33333333333337</ele><time>2026-04-19T08:20:40.982Z</time></trkpt><trkpt lat="45.6096733" lon="11.4270373"><ele>349.0</ele><time>2026-04-19T08:20:42.981Z</time></trkpt><trkpt lat="45.6096139" lon="11.4271393"><ele>348.6666666666667</ele><time>2026-04-19T08:20:44.983Z</time></trkpt><trkpt lat="45.6095589" lon="11.4272289"><ele>348.3333333333333</ele><time>2026-04-19T08:20:46.982Z</time></trkpt><trkpt lat="45.6095146" lon="11.4273106"><ele>348.0</ele><time>2026-04-19T08:20:48.983Z</time></trkpt><trkpt lat="45.6094644" lon="11.4273765"><ele>348.0</ele><time>2026-04-19T08:20:50.981Z</time></trkpt><trkpt lat="45.6094119" lon="11.4274567"><ele>348.0</ele><time>2026-04-19T08:20:52.983Z</time></trkpt><trkpt lat="45.6093669" lon="11.4275667"><ele>348.0</ele><time>2026-04-19T08:20:54.981Z</time></trkpt><trkpt lat="45.609305" lon="11.4277159"><ele>348.0</ele><time>2026-04-19T08:20:56.983Z</time></trkpt><trkpt lat="45.6092647" lon="11.4278026"><ele>348.0</ele><time>2026-04-19T08:20:57.982Z</time></trkpt><trkpt lat="45.609221" lon="11.4278875"><ele>348.0</ele><time>2026-04-19T08:20:58.983Z</time></trkpt><trkpt lat="45.6091745" lon="11.4279745"><ele>348.6666666666667</ele><time>2026-04-19T08:20:59.983Z</time></trkpt><trkpt lat="45.6091254" lon="11.4280629"><ele>349.3333333333333</ele><time>2026-04-19T08:21:00.982Z</time></trkpt><trkpt lat="45.6090781" lon="11.42815"><ele>350.0</ele><time>2026-04-19T08:21:01.982Z</time></trkpt><trkpt lat="45.6090401" lon="11.4282787"><ele>350.66666666666663</ele><time>2026-04-19T08:21:02.982Z</time></trkpt><trkpt lat="45.608978" lon="11.4283697"><ele>351.3333333333333</ele><time>2026-04-19T08:21:03.982Z</time></trkpt><trkpt lat="45.6089176" lon="11.4284779"><ele>352.0</ele><time>2026-04-19T08:21:04.982Z</time></trkpt><trkpt lat="45.6088615" lon="11.42858"><ele>352.0</ele><time>2026-04-19T08:21:05.982Z</time></trkpt><trkpt lat="45.6087752" lon="11.4286677"><ele>352.0</ele><time>2026-04-19T08:21:06.983Z</time></trkpt><trkpt lat="45.6087097" lon="11.4287163"><ele>352.0</ele><time>2026-04-19T08:21:07.983Z</time></trkpt><trkpt lat="45.6086627" lon="11.4288222"><ele>352.0</ele><time>2026-04-19T08:21:08.983Z</time></trkpt><trkpt lat="45.6085883" lon="11.4289136"><ele>352.0</ele><time>2026-04-19T08:21:09.982Z</time></trkpt><trkpt lat="45.608544" lon="11.4290118"><ele>352.0</ele><time>2026-04-19T08:21:10.982Z</time></trkpt><trkpt lat="45.6084589" lon="11.4290963"><ele>350.6</ele><time>2026-04-19T08:21:11.982Z</time></trkpt><trkpt lat="45.6083833" lon="11.4291969"><ele>349.20000000000005</ele><time>2026-04-19T08:21:12.982Z</time></trkpt><trkpt lat="45.6083043" lon="11.4292838"><ele>347.8</ele><time>2026-04-19T08:21:13.982Z</time></trkpt><trkpt lat="45.6082074" lon="11.429348"><ele>346.4</ele><time>2026-04-19T08:21:14.981Z</time></trkpt><trkpt lat="45.6081249" lon="11.429434"><ele>345.0</ele><time>2026-04-19T08:21:15.983Z</time></trkpt><trkpt lat="45.608036" lon="11.4295105"><ele>345.0</ele><time>2026-04-19T08:21:16.983Z</time></trkpt><trkpt lat="45.6079302" lon="11.4295719"><ele>345.0</ele><time>2026-04-19T08:21:17.983Z</time></trkpt><trkpt lat="45.6078328" lon="11.4296387"><ele>345.0</ele><time>2026-04-19T08:21:18.983Z</time></trkpt><trkpt lat="45.6077433" lon="11.4297505"><ele>345.0</ele><time>2026-04-19T08:21:19.982Z</time></trkpt><trkpt lat="45.6076466" lon="11.4298107"><ele>345.0</ele><time>2026-04-19T08:21:20.983Z</time></trkpt><trkpt lat="45.6075442" lon="11.4297873"><ele>343.0</ele><time>2026-04-19T08:21:21.982Z</time></trkpt><trkpt lat="45.607445" lon="11.4298921"><ele>341.0</ele><time>2026-04-19T08:21:22.983Z</time></trkpt><trkpt lat="45.607324" lon="11.4299341"><ele>339.0</ele><time>2026-04-19T08:21:23.982Z</time></trkpt><trkpt lat="45.6072372" lon="11.4300167"><ele>337.0</ele><time>2026-04-19T08:21:24.983Z</time></trkpt><trkpt lat="45.6071525" lon="11.4300948"><ele>337.0</ele><time>2026-04-19T08:21:25.983Z</time></trkpt><trkpt lat="45.6070645" lon="11.430199"><ele>337.0</ele><time>2026-04-19T08:21:26.982Z</time></trkpt><trkpt lat="45.6069714" lon="11.430261"><ele>337.0</ele><time>2026-04-19T08:21:27.982Z</time></trkpt><trkpt lat="45.6068649" lon="11.4303393"><ele>337.0</ele><time>2026-04-19T08:21:28.982Z</time></trkpt><trkpt lat="45.6067883" lon="11.4304025"><ele>337.0</ele><time>2026-04-19T08:21:29.983Z</time></trkpt><trkpt lat="45.606707" lon="11.430483"><ele>336.25</ele><time>2026-04-19T08:21:30.983Z</time></trkpt><trkpt lat="45.6066197" lon="11.4305451"><ele>335.5</ele><time>2026-04-19T08:21:31.983Z</time></trkpt><trkpt lat="45.6065186" lon="11.430607"><ele>334.75</ele><time>2026-04-19T08:21:32.981Z</time></trkpt><trkpt lat="45.6064168" lon="11.4307061"><ele>334.0</ele><time>2026-04-19T08:21:33.982Z</time></trkpt><trkpt lat="45.6063075" lon="11.4307953"><ele>334.0</ele><time>2026-04-19T08:21:34.982Z</time></trkpt><trkpt lat="45.6062122" lon="11.430883"><ele>334.0</ele><time>2026-04-19T08:21:35.983Z</time></trkpt><trkpt lat="45.6061349" lon="11.4309983"><ele>334.0</ele><time>2026-04-19T08:21:36.982Z</time></trkpt><trkpt lat="45.6060491" lon="11.4310994"><ele>334.0</ele><time>2026-04-19T08:21:37.982Z</time></trkpt><trkpt lat="45.6059584" lon="11.4311953"><ele>334.0</ele><time>2026-04-19T08:21:38.982Z</time></trkpt><trkpt lat="45.6058679" lon="11.4313162"><ele>330.5</ele><time>2026-04-19T08:21:39.983Z</time></trkpt><trkpt lat="45.6057591" lon="11.4314249"><ele>327.0</ele><time>2026-04-19T08:21:40.983Z</time></trkpt><trkpt lat="45.6056686" lon="11.431554"><ele>323.5</ele><time>2026-04-19T08:21:41.983Z</time></trkpt><trkpt lat="45.605581" lon="11.4316556"><ele>320.0</ele><time>2026-04-19T08:21:42.982Z</time></trkpt><trkpt lat="45.605507" lon="11.4318048"><ele>320.0</ele><time>2026-04-19T08:21:43.983Z</time></trkpt><trkpt lat="45.605413" lon="11.4319247"><ele>320.0</ele><time>2026-04-19T08:21:44.983Z</time></trkpt><trkpt lat="45.6053203" lon="11.4320321"><ele>320.0</ele><time>2026-04-19T08:21:45.982Z</time></trkpt><trkpt lat="45.6052545" lon="11.4321605"><ele>320.0</ele><time>2026-04-19T08:21:46.982Z</time></trkpt><trkpt lat="45.6051616" lon="11.4322682"><ele>319.8</ele><time>2026-04-19T08:21:47.981Z</time></trkpt><trkpt lat="45.6050875" lon="11.4323536"><ele>319.6</ele><time>2026-04-19T08:21:48.983Z</time></trkpt><trkpt lat="45.6050195" lon="11.4324455"><ele>319.4</ele><time>2026-04-19T08:21:49.983Z</time></trkpt><trkpt lat="45.6049598" lon="11.4325444"><ele>319.2</ele><time>2026-04-19T08:21:50.982Z</time></trkpt><trkpt lat="45.6049208" lon="11.4326256"><ele>319.0</ele><time>2026-04-19T08:21:51.982Z</time></trkpt><trkpt lat="45.6048509" lon="11.4327491"><ele>319.0</ele><time>2026-04-19T08:21:52.982Z</time></trkpt><trkpt lat="45.6047843" lon="11.4328269"><ele>319.0</ele><time>2026-04-19T08:21:53.983Z</time></trkpt><trkpt lat="45.6047181" lon="11.4329174"><ele>319.0</ele><time>2026-04-19T08:21:54.982Z</time></trkpt><trkpt lat="45.6046462" lon="11.4329978"><ele>319.0</ele><time>2026-04-19T08:21:55.983Z</time></trkpt><trkpt lat="45.604574" lon="11.4330978"><ele>319.0</ele><time>2026-04-19T08:21:56.983Z</time></trkpt><trkpt lat="45.6045327" lon="11.4331792"><ele>319.0</ele><time>2026-04-19T08:21:57.983Z</time></trkpt><trkpt lat="45.604473" lon="11.4332711"><ele>318.66666666666663</ele><time>2026-04-19T08:21:58.982Z</time></trkpt><trkpt lat="45.6043849" lon="11.4333643"><ele>318.3333333333333</ele><time>2026-04-19T08:21:59.981Z</time></trkpt><trkpt lat="45.6043278" lon="11.4334405"><ele>318.0</ele><time>2026-04-19T08:22:00.982Z</time></trkpt><trkpt lat="45.6042693" lon="11.4335323"><ele>317.6666666666667</ele><time>2026-04-19T08:22:01.981Z</time></trkpt><trkpt lat="45.6042066" lon="11.4336322"><ele>317.33333333333337</ele><time>2026-04-19T08:22:02.983Z</time></trkpt><trkpt lat="45.6041706" lon="11.4337296"><ele>317.0</ele><time>2026-04-19T08:22:03.981Z</time></trkpt><trkpt lat="45.6041376" lon="11.4338213"><ele>316.1666666666667</ele><time>2026-04-19T08:22:04.983Z</time></trkpt><trkpt lat="45.6040853" lon="11.4339191"><ele>315.33333333333337</ele><time>2026-04-19T08:22:05.983Z</time></trkpt><trkpt lat="45.6040269" lon="11.4340045"><ele>314.5</ele><time>2026-04-19T08:22:06.983Z</time></trkpt><trkpt lat="45.6039735" lon="11.4341206"><ele>313.6666666666667</ele><time>2026-04-19T08:22:07.982Z</time></trkpt><trkpt lat="45.6039156" lon="11.4342237"><ele>312.8333333333333</ele><time>2026-04-19T08:22:08.983Z</time></trkpt><trkpt lat="45.6038762" lon="11.4343252"><ele>312.0</ele><time>2026-04-19T08:22:09.982Z</time></trkpt><trkpt lat="45.6038514" lon="11.4344463"><ele>312.25</ele><time>2026-04-19T08:22:10.983Z</time></trkpt><trkpt lat="45.6037669" lon="11.4346492"><ele>312.5</ele><time>2026-04-19T08:22:12.983Z</time></trkpt><trkpt lat="45.6037195" lon="11.434797"><ele>312.75</ele><time>2026-04-19T08:22:14.981Z</time></trkpt><trkpt lat="45.6036562" lon="11.4348897"><ele>313.0</ele><time>2026-04-19T08:22:16.983Z</time></trkpt><trkpt lat="45.6035941" lon="11.4349748"><ele>314.42857142857144</ele><time>2026-04-19T08:22:18.982Z</time></trkpt><trkpt lat="45.6035267" lon="11.4350209"><ele>315.8571428571429</ele><time>2026-04-19T08:22:20.982Z</time></trkpt><trkpt lat="45.6034744" lon="11.4351162"><ele>317.28571428571433</ele><time>2026-04-19T08:22:22.982Z</time></trkpt><trkpt lat="45.6034267" lon="11.4351954"><ele>318.7142857142857</ele><time>2026-04-19T08:22:24.982Z</time></trkpt><trkpt lat="45.6033645" lon="11.4352646"><ele>320.14285714285717</ele><time>2026-04-19T08:22:26.983Z</time></trkpt><trkpt lat="45.6033182" lon="11.4353274"><ele>321.5714285714286</ele><time>2026-04-19T08:22:28.982Z</time></trkpt><trkpt lat="45.6032599" lon="11.4353844"><ele>323.0</ele><time>2026-04-19T08:22:30.983Z</time></trkpt><trkpt lat="45.603199" lon="11.4354597"><ele>322.6666666666667</ele><time>2026-04-19T08:22:32.982Z</time></trkpt><trkpt lat="45.6031439" lon="11.4355373"><ele>322.33333333333337</ele><time>2026-04-19T08:22:34.982Z</time></trkpt><trkpt lat="45.6030799" lon="11.4356114"><ele>322.0</ele><time>2026-04-19T08:22:36.983Z</time></trkpt><trkpt lat="45.6030122" lon="11.4356769"><ele>321.6666666666667</ele><time>2026-04-19T08:22:38.983Z</time></trkpt><trkpt lat="45.6029386" lon="11.4357398"><ele>321.3333333333333</ele><time>2026-04-19T08:22:40.983Z</time></trkpt><trkpt lat="45.6028568" lon="11.4357921"><ele>321.0</ele><time>2026-04-19T08:22:42.983Z</time></trkpt><trkpt lat="45.6027694" lon="11.4358273"><ele>321.0</ele><time>2026-04-19T08:22:44.983Z</time></trkpt><trkpt lat="45.6026878" lon="11.4358764"><ele>321.0</ele><time>2026-04-19T08:22:46.982Z</time></trkpt><trkpt lat="45.602608" lon="11.4359465"><ele>321.0</ele><time>2026-04-19T08:22:48.982Z</time></trkpt><trkpt lat="45.6025311" lon="11.4360426"><ele>321.0</ele><time>2026-04-19T08:22:50.983Z</time></trkpt><trkpt lat="45.6024335" lon="11.4361518"><ele>321.0</ele><time>2026-04-19T08:22:52.982Z</time></trkpt><trkpt lat="45.6023784" lon="11.4362104"><ele>321.0</ele><time>2026-04-19T08:22:53.982Z</time></trkpt><trkpt lat="45.6023213" lon="11.4362636"><ele>321.0</ele><time>2026-04-19T08:22:54.983Z</time></trkpt><trkpt lat="45.6022625" lon="11.4363115"><ele>321.0</ele><time>2026-04-19T08:22:55.983Z</time></trkpt><trkpt lat="45.6022008" lon="11.4363547"><ele>321.0</ele><time>2026-04-19T08:22:56.981Z</time></trkpt><trkpt lat="45.6021369" lon="11.4364008"><ele>321.0</ele><time>2026-04-19T08:22:57.982Z</time></trkpt><trkpt lat="45.6020541" lon="11.4364667"><ele>321.0</ele><time>2026-04-19T08:22:58.983Z</time></trkpt><trkpt lat="45.6019417" lon="11.4365164"><ele>321.3333333333333</ele><time>2026-04-19T08:23:00.983Z</time></trkpt><trkpt lat="45.6018686" lon="11.4365215"><ele>321.6666666666667</ele><time>2026-04-19T08:23:01.983Z</time></trkpt><trkpt lat="45.6017522" lon="11.4366055"><ele>322.0</ele><time>2026-04-19T08:23:03.982Z</time></trkpt><trkpt lat="45.6016737" lon="11.436661"><ele>322.33333333333337</ele><time>2026-04-19T08:23:04.983Z</time></trkpt><trkpt lat="45.6016161" lon="11.436709"><ele>322.6666666666667</ele><time>2026-04-19T08:23:05.983Z</time></trkpt><trkpt lat="45.6015609" lon="11.4367549"><ele>323.0</ele><time>2026-04-19T08:23:06.983Z</time></trkpt><trkpt lat="45.6014793" lon="11.4367948"><ele>323.0</ele><time>2026-04-19T08:23:07.982Z</time></trkpt><trkpt lat="45.6014031" lon="11.4368315"><ele>323.0</ele><time>2026-04-19T08:23:08.983Z</time></trkpt><trkpt lat="45.6013218" lon="11.4368921"><ele>323.0</ele><time>2026-04-19T08:23:09.983Z</time></trkpt><trkpt lat="45.6012504" lon="11.4369236"><ele>323.0</ele><time>2026-04-19T08:23:10.982Z</time></trkpt><trkpt lat="45.6011823" lon="11.4369647"><ele>323.0</ele><time>2026-04-19T08:23:11.982Z</time></trkpt><trkpt lat="45.6011191" lon="11.4370055"><ele>323.0</ele><time>2026-04-19T08:23:12.983Z</time></trkpt><trkpt lat="45.6010093" lon="11.4371268"><ele>323.1666666666667</ele><time>2026-04-19T08:23:14.982Z</time></trkpt><trkpt lat="45.6009379" lon="11.4371687"><ele>323.33333333333337</ele><time>2026-04-19T08:23:15.983Z</time></trkpt><trkpt lat="45.6008838" lon="11.4372585"><ele>323.5</ele><time>2026-04-19T08:23:16.983Z</time></trkpt><trkpt lat="45.6008322" lon="11.4373288"><ele>323.6666666666667</ele><time>2026-04-19T08:23:17.983Z</time></trkpt><trkpt lat="45.6007869" lon="11.437412"><ele>323.8333333333333</ele><time>2026-04-19T08:23:18.983Z</time></trkpt><trkpt lat="45.6007435" lon="11.4374905"><ele>324.0</ele><time>2026-04-19T08:23:19.981Z</time></trkpt><trkpt lat="45.6006969" lon="11.4375858"><ele>324.0</ele><time>2026-04-19T08:23:20.983Z</time></trkpt><trkpt lat="45.6006096" lon="11.4375614"><ele>324.0</ele><time>2026-04-19T08:23:21.983Z</time></trkpt><trkpt lat="45.6005494" lon="11.4376296"><ele>324.0</ele><time>2026-04-19T08:23:22.983Z</time></trkpt><trkpt lat="45.6004717" lon="11.4376561"><ele>324.0</ele><time>2026-04-19T08:23:23.982Z</time></trkpt><trkpt lat="45.6004011" lon="11.4376783"><ele>324.0</ele><time>2026-04-19T08:23:24.983Z</time></trkpt><trkpt lat="45.6003413" lon="11.437731"><ele>324.0</ele><time>2026-04-19T08:23:25.982Z</time></trkpt><trkpt lat="45.6002569" lon="11.4377728"><ele>324.5</ele><time>2026-04-19T08:23:26.983Z</time></trkpt><trkpt lat="45.6001896" lon="11.4378204"><ele>325.0</ele><time>2026-04-19T08:23:27.982Z</time></trkpt><trkpt lat="45.6001314" lon="11.4378797"><ele>325.5</ele><time>2026-04-19T08:23:28.983Z</time></trkpt><trkpt lat="45.600048" lon="11.4379553"><ele>326.0</ele><time>2026-04-19T08:23:29.983Z</time></trkpt><trkpt lat="45.5999764" lon="11.4380228"><ele>326.5</ele><time>2026-04-19T08:23:30.983Z</time></trkpt><trkpt lat="45.5999056" lon="11.4381303"><ele>327.0</ele><time>2026-04-19T08:23:32.982Z</time></trkpt><trkpt lat="45.5998592" lon="11.4382456"><ele>327.0</ele><time>2026-04-19T08:23:33.982Z</time></trkpt><trkpt lat="45.5998264" lon="11.4383839"><ele>327.0</ele><time>2026-04-19T08:23:34.983Z</time></trkpt><trkpt lat="45.5998066" lon="11.4384784"><ele>327.0</ele><time>2026-04-19T08:23:35.982Z</time></trkpt><trkpt lat="45.5997744" lon="11.4385763"><ele>327.0</ele><time>2026-04-19T08:23:36.982Z</time></trkpt><trkpt lat="45.5997592" lon="11.4386808"><ele>327.0</ele><time>2026-04-19T08:23:37.983Z</time></trkpt><trkpt lat="45.5997318" lon="11.4387879"><ele>327.0</ele><time>2026-04-19T08:23:38.983Z</time></trkpt><trkpt lat="45.5997733" lon="11.438923"><ele>328.0</ele><time>2026-04-19T08:23:39.982Z</time></trkpt><trkpt lat="45.5997776" lon="11.4390367"><ele>329.0</ele><time>2026-04-19T08:23:40.982Z</time></trkpt><trkpt lat="45.5997978" lon="11.4392006"><ele>330.0</ele><time>2026-04-19T08:23:41.983Z</time></trkpt><trkpt lat="45.5997847" lon="11.4393097"><ele>331.0</ele><time>2026-04-19T08:23:42.983Z</time></trkpt><trkpt lat="45.59976" lon="11.4394348"><ele>332.0</ele><time>2026-04-19T08:23:43.984Z</time></trkpt><trkpt lat="45.5997532" lon="11.4395704"><ele>332.1428571428571</ele><time>2026-04-19T08:23:44.982Z</time></trkpt><trkpt lat="45.5997399" lon="11.4396831"><ele>332.28571428571433</ele><time>2026-04-19T08:23:45.984Z</time></trkpt><trkpt lat="45.599736" lon="11.4397941"><ele>332.42857142857144</ele><time>2026-04-19T08:23:46.983Z</time></trkpt><trkpt lat="45.5997428" lon="11.4398885"><ele>332.57142857142856</ele><time>2026-04-19T08:23:47.984Z</time></trkpt><trkpt lat="45.5997212" lon="11.4399804"><ele>332.71428571428567</ele><time>2026-04-19T08:23:48.983Z</time></trkpt><trkpt lat="45.5997503" lon="11.4400829"><ele>332.8571428571429</ele><time>2026-04-19T08:23:49.982Z</time></trkpt><trkpt lat="45.5997564" lon="11.4401882"><ele>333.0</ele><time>2026-04-19T08:23:50.983Z</time></trkpt><trkpt lat="45.599766" lon="11.4402937"><ele>333.0</ele><time>2026-04-19T08:23:51.983Z</time></trkpt><trkpt lat="45.5998061" lon="11.4404111"><ele>333.0</ele><time>2026-04-19T08:23:52.983Z</time></trkpt><trkpt lat="45.5998201" lon="11.4405201"><ele>333.0</ele><time>2026-04-19T08:23:53.983Z</time></trkpt><trkpt lat="45.5998382" lon="11.4406228"><ele>333.0</ele><time>2026-04-19T08:23:54.984Z</time></trkpt><trkpt lat="45.5998675" lon="11.4407342"><ele>333.0</ele><time>2026-04-19T08:23:55.983Z</time></trkpt><trkpt lat="45.5998944" lon="11.4408422"><ele>333.0</ele><time>2026-04-19T08:23:56.984Z</time></trkpt><trkpt lat="45.5999081" lon="11.4409535"><ele>332.4</ele><time>2026-04-19T08:23:57.983Z</time></trkpt><trkpt lat="45.5999205" lon="11.4410705"><ele>331.79999999999995</ele><time>2026-04-19T08:23:58.984Z</time></trkpt><trkpt lat="45.5999324" lon="11.4411978"><ele>331.2</ele><time>2026-04-19T08:23:59.984Z</time></trkpt><trkpt lat="45.5999415" lon="11.4413263"><ele>330.6</ele><time>2026-04-19T08:24:00.984Z</time></trkpt><trkpt lat="45.5999435" lon="11.4414745"><ele>330.0</ele><time>2026-04-19T08:24:01.983Z</time></trkpt><trkpt lat="45.5999591" lon="11.4416105"><ele>328.6</ele><time>2026-04-19T08:24:02.983Z</time></trkpt><trkpt lat="45.5999854" lon="11.4417637"><ele>327.2</ele><time>2026-04-19T08:24:03.984Z</time></trkpt><trkpt lat="45.5999965" lon="11.4419084"><ele>325.79999999999995</ele><time>2026-04-19T08:24:04.983Z</time></trkpt><trkpt lat="45.6000116" lon="11.4420481"><ele>324.4</ele><time>2026-04-19T08:24:05.983Z</time></trkpt><trkpt lat="45.6000484" lon="11.4422236"><ele>323.0</ele><time>2026-04-19T08:24:06.983Z</time></trkpt><trkpt lat="45.600082" lon="11.4423309"><ele>321.1666666666667</ele><time>2026-04-19T08:24:07.984Z</time></trkpt><trkpt lat="45.6001297" lon="11.4424408"><ele>319.33333333333337</ele><time>2026-04-19T08:24:08.983Z</time></trkpt><trkpt lat="45.600149" lon="11.4425403"><ele>317.5</ele><time>2026-04-19T08:24:09.984Z</time></trkpt><trkpt lat="45.6002077" lon="11.4426645"><ele>315.6666666666667</ele><time>2026-04-19T08:24:10.984Z</time></trkpt><trkpt lat="45.6002605" lon="11.4427742"><ele>313.8333333333333</ele><time>2026-04-19T08:24:11.984Z</time></trkpt><trkpt lat="45.6003212" lon="11.4428378"><ele>312.0</ele><time>2026-04-19T08:24:12.982Z</time></trkpt><trkpt lat="45.600381" lon="11.4429145"><ele>315.0</ele><time>2026-04-19T08:24:13.984Z</time></trkpt><trkpt lat="45.6004301" lon="11.4429845"><ele>318.0</ele><time>2026-04-19T08:24:14.984Z</time></trkpt><trkpt lat="45.6004833" lon="11.4430777"><ele>321.0</ele><time>2026-04-19T08:24:15.984Z</time></trkpt><trkpt lat="45.6005396" lon="11.4432514"><ele>324.0</ele><time>2026-04-19T08:24:17.982Z</time></trkpt><trkpt lat="45.6005857" lon="11.4433229"><ele>327.0</ele><time>2026-04-19T08:24:18.983Z</time></trkpt><trkpt lat="45.6006455" lon="11.4434055"><ele>330.0</ele><time>2026-04-19T08:24:19.984Z</time></trkpt><trkpt lat="45.600714" lon="11.443562"><ele>330.0</ele><time>2026-04-19T08:24:21.984Z</time></trkpt><trkpt lat="45.600762" lon="11.4437318"><ele>330.0</ele><time>2026-04-19T08:24:23.982Z</time></trkpt><trkpt lat="45.6007854" lon="11.4438748"><ele>330.0</ele><time>2026-04-19T08:24:25.984Z</time></trkpt><trkpt lat="45.6007997" lon="11.4440255"><ele>330.0</ele><time>2026-04-19T08:24:27.983Z</time></trkpt><trkpt lat="45.6008128" lon="11.4441273"><ele>330.0</ele><time>2026-04-19T08:24:29.983Z</time></trkpt><trkpt lat="45.6007791" lon="11.4442769"><ele>328.8333333333333</ele><time>2026-04-19T08:24:32.983Z</time></trkpt><trkpt lat="45.6007583" lon="11.4443926"><ele>327.6666666666667</ele><time>2026-04-19T08:24:35.984Z</time></trkpt><trkpt lat="45.6007496" lon="11.4445159"><ele>326.5</ele><time>2026-04-19T08:24:38.983Z</time></trkpt><trkpt lat="45.6007158" lon="11.4445972"><ele>325.33333333333337</ele><time>2026-04-19T08:24:40.984Z</time></trkpt><trkpt lat="45.6006647" lon="11.4446991"><ele>324.1666666666667</ele><time>2026-04-19T08:24:43.984Z</time></trkpt><trkpt lat="45.6006504" lon="11.4448041"><ele>323.0</ele><time>2026-04-19T08:24:45.983Z</time></trkpt><trkpt lat="45.6006561" lon="11.4449006"><ele>323.0</ele><time>2026-04-19T08:24:47.984Z</time></trkpt><trkpt lat="45.6006784" lon="11.4450174"><ele>323.0</ele><time>2026-04-19T08:24:50.983Z</time></trkpt><trkpt lat="45.6007174" lon="11.4451422"><ele>323.0</ele><time>2026-04-19T08:24:53.983Z</time></trkpt><trkpt lat="45.6007499" lon="11.4452311"><ele>323.0</ele><time>2026-04-19T08:24:55.984Z</time></trkpt><trkpt lat="45.6007785" lon="11.4453283"><ele>323.0</ele><time>2026-04-19T08:24:57.984Z</time></trkpt><trkpt lat="45.6007956" lon="11.4454412"><ele>323.0</ele><time>2026-04-19T08:24:59.984Z</time></trkpt><trkpt lat="45.6008135" lon="11.4455574"><ele>323.00000000000006</ele><time>2026-04-19T08:25:01.984Z</time></trkpt><trkpt lat="45.6008271" lon="11.4456585"><ele>323.0</ele><time>2026-04-19T08:25:03.983Z</time></trkpt><trkpt lat="45.6008303" lon="11.4457546"><ele>323.0</ele><time>2026-04-19T08:25:05.983Z</time></trkpt><trkpt lat="45.6008158" lon="11.4458553"><ele>323.0</ele><time>2026-04-19T08:25:07.983Z</time></trkpt><trkpt lat="45.6007931" lon="11.4459475"><ele>323.0</ele><time>2026-04-19T08:25:09.983Z</time></trkpt><trkpt lat="45.6007683" lon="11.4460347"><ele>323.00000000000006</ele><time>2026-04-19T08:25:11.984Z</time></trkpt><trkpt lat="45.6007329" lon="11.4461507"><ele>323.0</ele><time>2026-04-19T08:25:15.983Z</time></trkpt><trkpt lat="45.6007091" lon="11.4462531"><ele>323.5714285714286</ele><time>2026-04-19T08:25:17.984Z</time></trkpt><trkpt lat="45.6006836" lon="11.4463485"><ele>324.14285714285717</ele><time>2026-04-19T08:25:19.983Z</time></trkpt><trkpt lat="45.6006554" lon="11.4464384"><ele>324.7142857142857</ele><time>2026-04-19T08:25:21.984Z</time></trkpt><trkpt lat="45.6006162" lon="11.4465292"><ele>325.28571428571433</ele><time>2026-04-19T08:25:23.984Z</time></trkpt><trkpt lat="45.6005833" lon="11.4466074"><ele>325.8571428571429</ele><time>2026-04-19T08:25:25.953Z</time></trkpt><trkpt lat="45.6005379" lon="11.4467111"><ele>326.42857142857144</ele><time>2026-04-19T08:25:27.983Z</time></trkpt><trkpt lat="45.6004977" lon="11.4467995"><ele>327.0</ele><time>2026-04-19T08:25:29.953Z</time></trkpt><trkpt lat="45.6004362" lon="11.4469266"><ele>327.0</ele><time>2026-04-19T08:25:31.984Z</time></trkpt><trkpt lat="45.6003949" lon="11.4470067"><ele>327.0</ele><time>2026-04-19T08:25:32.984Z</time></trkpt><trkpt lat="45.6003455" lon="11.447098"><ele>327.0</ele><time>2026-04-19T08:25:33.983Z</time></trkpt><trkpt lat="45.6002911" lon="11.4471959"><ele>327.0</ele><time>2026-04-19T08:25:34.983Z</time></trkpt><trkpt lat="45.6002347" lon="11.447295"><ele>327.0</ele><time>2026-04-19T08:25:35.984Z</time></trkpt><trkpt lat="45.6001773" lon="11.4473901"><ele>327.0</ele><time>2026-04-19T08:25:36.983Z</time></trkpt><trkpt lat="45.6000963" lon="11.4475106"><ele>325.0</ele><time>2026-04-19T08:25:37.983Z</time></trkpt><trkpt lat="45.6000346" lon="11.4476229"><ele>323.0</ele><time>2026-04-19T08:25:38.983Z</time></trkpt><trkpt lat="45.5999845" lon="11.4477437"><ele>321.0</ele><time>2026-04-19T08:25:39.984Z</time></trkpt><trkpt lat="45.5999468" lon="11.4478541"><ele>319.0</ele><time>2026-04-19T08:25:40.983Z</time></trkpt><trkpt lat="45.5999014" lon="11.447977"><ele>317.0</ele><time>2026-04-19T08:25:41.983Z</time></trkpt><trkpt lat="45.5998379" lon="11.448089"><ele>315.8</ele><time>2026-04-19T08:25:42.983Z</time></trkpt><trkpt lat="45.5997677" lon="11.4481965"><ele>314.6</ele><time>2026-04-19T08:25:43.984Z</time></trkpt><trkpt lat="45.5997038" lon="11.4482949"><ele>313.40000000000003</ele><time>2026-04-19T08:25:44.983Z</time></trkpt><trkpt lat="45.5996428" lon="11.448384"><ele>312.2</ele><time>2026-04-19T08:25:45.984Z</time></trkpt><trkpt lat="45.5995809" lon="11.4484725"><ele>311.0</ele><time>2026-04-19T08:25:46.982Z</time></trkpt><trkpt lat="45.5995236" lon="11.4485624"><ele>310.33333333333337</ele><time>2026-04-19T08:25:47.983Z</time></trkpt><trkpt lat="45.599474" lon="11.4486535"><ele>309.6666666666667</ele><time>2026-04-19T08:25:48.984Z</time></trkpt><trkpt lat="45.5994242" lon="11.4487497"><ele>309.0</ele><time>2026-04-19T08:25:49.983Z</time></trkpt><trkpt lat="45.5993698" lon="11.448839"><ele>308.3333333333333</ele><time>2026-04-19T08:25:50.984Z</time></trkpt><trkpt lat="45.5993149" lon="11.4489272"><ele>307.66666666666663</ele><time>2026-04-19T08:25:51.983Z</time></trkpt><trkpt lat="45.5992575" lon="11.4490165"><ele>307.0</ele><time>2026-04-19T08:25:52.983Z</time></trkpt><trkpt lat="45.5991942" lon="11.4491064"><ele>307.0</ele><time>2026-04-19T08:25:53.983Z</time></trkpt><trkpt lat="45.5991324" lon="11.4491916"><ele>307.0</ele><time>2026-04-19T08:25:54.984Z</time></trkpt><trkpt lat="45.5990642" lon="11.4492782"><ele>307.0</ele><time>2026-04-19T08:25:55.983Z</time></trkpt><trkpt lat="45.5989791" lon="11.4493459"><ele>307.0</ele><time>2026-04-19T08:25:56.984Z</time></trkpt><trkpt lat="45.5989019" lon="11.4494164"><ele>307.0</ele><time>2026-04-19T08:25:57.984Z</time></trkpt><trkpt lat="45.5988139" lon="11.4494724"><ele>307.0</ele><time>2026-04-19T08:25:58.982Z</time></trkpt><trkpt lat="45.598721" lon="11.4495074"><ele>307.0</ele><time>2026-04-19T08:25:59.984Z</time></trkpt><trkpt lat="45.5986325" lon="11.4495382"><ele>307.0</ele><time>2026-04-19T08:26:00.984Z</time></trkpt><trkpt lat="45.5985312" lon="11.4495527"><ele>307.0</ele><time>2026-04-19T08:26:01.984Z</time></trkpt><trkpt lat="45.5984321" lon="11.4495708"><ele>307.0</ele><time>2026-04-19T08:26:02.984Z</time></trkpt><trkpt lat="45.5983183" lon="11.4495767"><ele>307.2</ele><time>2026-04-19T08:26:03.984Z</time></trkpt><trkpt lat="45.5982067" lon="11.4495887"><ele>307.4</ele><time>2026-04-19T08:26:04.983Z</time></trkpt><trkpt lat="45.5981044" lon="11.449601"><ele>307.6</ele><time>2026-04-19T08:26:05.984Z</time></trkpt><trkpt lat="45.5980073" lon="11.4496295"><ele>307.8</ele><time>2026-04-19T08:26:06.984Z</time></trkpt><trkpt lat="45.5979175" lon="11.4496456"><ele>308.0</ele><time>2026-04-19T08:26:07.983Z</time></trkpt><trkpt lat="45.5978297" lon="11.4496642"><ele>307.5</ele><time>2026-04-19T08:26:08.984Z</time></trkpt><trkpt lat="45.5977421" lon="11.4496806"><ele>307.0</ele><time>2026-04-19T08:26:09.983Z</time></trkpt><trkpt lat="45.5976619" lon="11.4496982"><ele>306.5</ele><time>2026-04-19T08:26:10.984Z</time></trkpt><trkpt lat="45.5975651" lon="11.449716"><ele>306.0</ele><time>2026-04-19T08:26:11.983Z</time></trkpt><trkpt lat="45.597479" lon="11.4497446"><ele>305.5</ele><time>2026-04-19T08:26:12.984Z</time></trkpt><trkpt lat="45.5974011" lon="11.4497994"><ele>305.0</ele><time>2026-04-19T08:26:13.982Z</time></trkpt><trkpt lat="45.5973266" lon="11.4498637"><ele>305.0</ele><time>2026-04-19T08:26:14.984Z</time></trkpt><trkpt lat="45.5972621" lon="11.4499455"><ele>305.0</ele><time>2026-04-19T08:26:15.982Z</time></trkpt><trkpt lat="45.5971962" lon="11.4500429"><ele>305.0</ele><time>2026-04-19T08:26:16.983Z</time></trkpt><trkpt lat="45.5971317" lon="11.4501404"><ele>305.0</ele><time>2026-04-19T08:26:17.984Z</time></trkpt><trkpt lat="45.5970781" lon="11.4502452"><ele>305.0</ele><time>2026-04-19T08:26:18.984Z</time></trkpt><trkpt lat="45.5970324" lon="11.4503578"><ele>301.0</ele><time>2026-04-19T08:26:19.983Z</time></trkpt><trkpt lat="45.5969893" lon="11.4505322"><ele>297.0</ele><time>2026-04-19T08:26:20.983Z</time></trkpt><trkpt lat="45.5969538" lon="11.4506795"><ele>293.0</ele><time>2026-04-19T08:26:21.983Z</time></trkpt><trkpt lat="45.5969245" lon="11.4508424"><ele>289.0</ele><time>2026-04-19T08:26:22.984Z</time></trkpt><trkpt lat="45.596905" lon="11.4509931"><ele>289.0</ele><time>2026-04-19T08:26:23.984Z</time></trkpt><trkpt lat="45.5968806" lon="11.4511397"><ele>289.0</ele><time>2026-04-19T08:26:24.983Z</time></trkpt><trkpt lat="45.5968594" lon="11.4512762"><ele>289.0</ele><time>2026-04-19T08:26:25.984Z</time></trkpt><trkpt lat="45.5968225" lon="11.4513938"><ele>289.0</ele><time>2026-04-19T08:26:26.984Z</time></trkpt><trkpt lat="45.5967866" lon="11.4515233"><ele>289.0</ele><time>2026-04-19T08:26:27.983Z</time></trkpt><trkpt lat="45.5967452" lon="11.4516084"><ele>289.5</ele><time>2026-04-19T08:26:28.984Z</time></trkpt><trkpt lat="45.5967014" lon="11.4516969"><ele>290.0</ele><time>2026-04-19T08:26:29.983Z</time></trkpt><trkpt lat="45.5966373" lon="11.4517654"><ele>290.5</ele><time>2026-04-19T08:26:30.982Z</time></trkpt><trkpt lat="45.5966046" lon="11.4518546"><ele>291.0</ele><time>2026-04-19T08:26:32.983Z</time></trkpt><trkpt lat="45.5966959" lon="11.4518807"><ele>291.5</ele><time>2026-04-19T08:26:33.984Z</time></trkpt><trkpt lat="45.5968103" lon="11.4519286"><ele>292.0</ele><time>2026-04-19T08:26:35.984Z</time></trkpt><trkpt lat="45.5968769" lon="11.4519329"><ele>292.4</ele><time>2026-04-19T08:26:36.983Z</time></trkpt><trkpt lat="45.5970029" lon="11.4519371"><ele>292.79999999999995</ele><time>2026-04-19T08:26:38.983Z</time></trkpt><trkpt lat="45.5970711" lon="11.4519608"><ele>293.2</ele><time>2026-04-19T08:26:39.983Z</time></trkpt><trkpt lat="45.5970445" lon="11.4520925"><ele>293.59999999999997</ele><time>2026-04-19T08:26:41.984Z</time></trkpt><trkpt lat="45.5969412" lon="11.4521457"><ele>294.0</ele><time>2026-04-19T08:26:43.984Z</time></trkpt><trkpt lat="45.5968523" lon="11.4522304"><ele>293.0</ele><time>2026-04-19T08:26:45.983Z</time></trkpt><trkpt lat="45.5967964" lon="11.4523189"><ele>292.0</ele><time>2026-04-19T08:26:46.984Z</time></trkpt><trkpt lat="45.5967487" lon="11.4524157"><ele>291.0</ele><time>2026-04-19T08:26:47.983Z</time></trkpt><trkpt lat="45.5967094" lon="11.4524968"><ele>290.0</ele><time>2026-04-19T08:26:48.984Z</time></trkpt><trkpt lat="45.5966405" lon="11.4526112"><ele>289.0</ele><time>2026-04-19T08:26:49.984Z</time></trkpt><trkpt lat="45.5965995" lon="11.4527087"><ele>288.0</ele><time>2026-04-19T08:26:50.984Z</time></trkpt><trkpt lat="45.5965497" lon="11.4527995"><ele>288.0</ele><time>2026-04-19T08:26:51.982Z</time></trkpt><trkpt lat="45.5964912" lon="11.4528993"><ele>288.0</ele><time>2026-04-19T08:26:52.982Z</time></trkpt><trkpt lat="45.5964148" lon="11.4529863"><ele>288.0</ele><time>2026-04-19T08:26:53.984Z</time></trkpt><trkpt lat="45.5963409" lon="11.4530738"><ele>288.0</ele><time>2026-04-19T08:26:54.983Z</time></trkpt><trkpt lat="45.5962024" lon="11.4530442"><ele>288.0</ele><time>2026-04-19T08:26:55.983Z</time></trkpt><trkpt lat="45.5961004" lon="11.4530652"><ele>285.0</ele><time>2026-04-19T08:26:56.982Z</time></trkpt><trkpt lat="45.5959889" lon="11.4530992"><ele>282.0</ele><time>2026-04-19T08:26:57.983Z</time></trkpt><trkpt lat="45.5958875" lon="11.4530642"><ele>279.0</ele><time>2026-04-19T08:26:58.983Z</time></trkpt><trkpt lat="45.5957763" lon="11.4530584"><ele>276.0</ele><time>2026-04-19T08:26:59.983Z</time></trkpt><trkpt lat="45.5956713" lon="11.4530596"><ele>273.0</ele><time>2026-04-19T08:27:00.983Z</time></trkpt><trkpt lat="45.5955692" lon="11.453061"><ele>273.0</ele><time>2026-04-19T08:27:01.983Z</time></trkpt><trkpt lat="45.5954544" lon="11.4530752"><ele>273.0</ele><time>2026-04-19T08:27:02.983Z</time></trkpt><trkpt lat="45.595345" lon="11.4531196"><ele>273.0</ele><time>2026-04-19T08:27:03.981Z</time></trkpt><trkpt lat="45.5952406" lon="11.4531617"><ele>273.0</ele><time>2026-04-19T08:27:04.982Z</time></trkpt><trkpt lat="45.5951394" lon="11.4532082"><ele>273.0</ele><time>2026-04-19T08:27:05.983Z</time></trkpt><trkpt lat="45.5950351" lon="11.4532599"><ele>272.0</ele><time>2026-04-19T08:27:06.983Z</time></trkpt><trkpt lat="45.5949213" lon="11.4533136"><ele>271.0</ele><time>2026-04-19T08:27:07.982Z</time></trkpt><trkpt lat="45.5948191" lon="11.4533788"><ele>270.0</ele><time>2026-04-19T08:27:08.982Z</time></trkpt><trkpt lat="45.5947176" lon="11.4534323"><ele>269.0</ele><time>2026-04-19T08:27:09.983Z</time></trkpt><trkpt lat="45.5946166" lon="11.4534843"><ele>268.0</ele><time>2026-04-19T08:27:10.983Z</time></trkpt><trkpt lat="45.5945086" lon="11.4535357"><ele>267.8333333333333</ele><time>2026-04-19T08:27:11.984Z</time></trkpt><trkpt lat="45.5944349" lon="11.4535647"><ele>267.66666666666663</ele><time>2026-04-19T08:27:12.983Z</time></trkpt><trkpt lat="45.5943723" lon="11.4535906"><ele>267.5</ele><time>2026-04-19T08:27:13.981Z</time></trkpt><trkpt lat="45.5942644" lon="11.4536562"><ele>267.3333333333333</ele><time>2026-04-19T08:27:15.982Z</time></trkpt><trkpt lat="45.5943154" lon="11.4537643"><ele>267.1666666666667</ele><time>2026-04-19T08:27:16.983Z</time></trkpt><trkpt lat="45.5943787" lon="11.4538405"><ele>267.0</ele><time>2026-04-19T08:27:17.982Z</time></trkpt><trkpt lat="45.5944221" lon="11.4539277"><ele>265.2</ele><time>2026-04-19T08:27:18.982Z</time></trkpt><trkpt lat="45.5944845" lon="11.4540445"><ele>263.4</ele><time>2026-04-19T08:27:19.983Z</time></trkpt><trkpt lat="45.5945274" lon="11.4541792"><ele>261.6</ele><time>2026-04-19T08:27:20.983Z</time></trkpt><trkpt lat="45.5945344" lon="11.454336"><ele>259.8</ele><time>2026-04-19T08:27:21.983Z</time></trkpt><trkpt lat="45.5945398" lon="11.4544932"><ele>258.0</ele><time>2026-04-19T08:27:22.983Z</time></trkpt><trkpt lat="45.5945369" lon="11.4546552"><ele>255.75</ele><time>2026-04-19T08:27:23.982Z</time></trkpt><trkpt lat="45.5945672" lon="11.4547902"><ele>253.5</ele><time>2026-04-19T08:27:24.983Z</time></trkpt><trkpt lat="45.5946057" lon="11.4549191"><ele>251.25</ele><time>2026-04-19T08:27:25.982Z</time></trkpt><trkpt lat="45.5946508" lon="11.4550412"><ele>249.0</ele><time>2026-04-19T08:27:26.983Z</time></trkpt><trkpt lat="45.5948143" lon="11.4549863"><ele>249.0</ele><time>2026-04-19T08:27:27.983Z</time></trkpt><trkpt lat="45.5949101" lon="11.4550154"><ele>248.99999999999997</ele><time>2026-04-19T08:27:28.982Z</time></trkpt><trkpt lat="45.5950105" lon="11.4550353"><ele>248.99999999999997</ele><time>2026-04-19T08:27:29.982Z</time></trkpt><trkpt lat="45.5951147" lon="11.4550448"><ele>249.0</ele><time>2026-04-19T08:27:30.983Z</time></trkpt><trkpt lat="45.5952141" lon="11.4550614"><ele>249.0</ele><time>2026-04-19T08:27:31.983Z</time></trkpt><trkpt lat="45.5953032" lon="11.4550439"><ele>248.5</ele><time>2026-04-19T08:27:32.983Z</time></trkpt><trkpt lat="45.5953994" lon="11.4550476"><ele>248.0</ele><time>2026-04-19T08:27:33.984Z</time></trkpt><trkpt lat="45.5955336" lon="11.4550272"><ele>247.5</ele><time>2026-04-19T08:27:35.984Z</time></trkpt><trkpt lat="45.5956486" lon="11.455066"><ele>247.0</ele><time>2026-04-19T08:27:36.983Z</time></trkpt><trkpt lat="45.5957532" lon="11.4550924"><ele>247.0</ele><time>2026-04-19T08:27:37.982Z</time></trkpt><trkpt lat="45.5957847" lon="11.4552654"><ele>247.0</ele><time>2026-04-19T08:27:38.984Z</time></trkpt><trkpt lat="45.5958607" lon="11.4553537"><ele>247.0</ele><time>2026-04-19T08:27:39.981Z</time></trkpt><trkpt lat="45.595945" lon="11.455415"><ele>247.0</ele><time>2026-04-19T08:27:40.982Z</time></trkpt><trkpt lat="45.5960376" lon="11.4554659"><ele>247.0</ele><time>2026-04-19T08:27:41.982Z</time></trkpt><trkpt lat="45.5961241" lon="11.4555144"><ele>245.6</ele><time>2026-04-19T08:27:42.983Z</time></trkpt><trkpt lat="45.5962194" lon="11.45556"><ele>244.2</ele><time>2026-04-19T08:27:43.983Z</time></trkpt><trkpt lat="45.5963206" lon="11.455592"><ele>242.8</ele><time>2026-04-19T08:27:44.983Z</time></trkpt><trkpt lat="45.5964169" lon="11.4556419"><ele>241.4</ele><time>2026-04-19T08:27:45.983Z</time></trkpt><trkpt lat="45.5965153" lon="11.455689"><ele>240.0</ele><time>2026-04-19T08:27:46.983Z</time></trkpt><trkpt lat="45.5966143" lon="11.4557248"><ele>240.0</ele><time>2026-04-19T08:27:47.983Z</time></trkpt><trkpt lat="45.5967094" lon="11.4557687"><ele>240.0</ele><time>2026-04-19T08:27:48.983Z</time></trkpt><trkpt lat="45.5968114" lon="11.4557943"><ele>240.0</ele><time>2026-04-19T08:27:49.983Z</time></trkpt><trkpt lat="45.5969085" lon="11.4558442"><ele>240.0</ele><time>2026-04-19T08:27:50.982Z</time></trkpt><trkpt lat="45.5970083" lon="11.4558718"><ele>240.0</ele><time>2026-04-19T08:27:51.983Z</time></trkpt><trkpt lat="45.5970935" lon="11.4559457"><ele>239.6</ele><time>2026-04-19T08:27:52.982Z</time></trkpt><trkpt lat="45.5971252" lon="11.4560952"><ele>239.2</ele><time>2026-04-19T08:27:53.983Z</time></trkpt><trkpt lat="45.5971411" lon="11.4562253"><ele>238.8</ele><time>2026-04-19T08:27:54.982Z</time></trkpt><trkpt lat="45.5971507" lon="11.4563655"><ele>238.4</ele><time>2026-04-19T08:27:55.981Z</time></trkpt><trkpt lat="45.5971587" lon="11.4564852"><ele>238.0</ele><time>2026-04-19T08:27:56.982Z</time></trkpt><trkpt lat="45.5971736" lon="11.4566164"><ele>236.4</ele><time>2026-04-19T08:27:57.982Z</time></trkpt><trkpt lat="45.5971694" lon="11.456766"><ele>234.8</ele><time>2026-04-19T08:27:58.981Z</time></trkpt><trkpt lat="45.5971471" lon="11.4569135"><ele>233.2</ele><time>2026-04-19T08:27:59.982Z</time></trkpt><trkpt lat="45.5970984" lon="11.4570415"><ele>231.6</ele><time>2026-04-19T08:28:00.982Z</time></trkpt><trkpt lat="45.5970339" lon="11.4571607"><ele>230.0</ele><time>2026-04-19T08:28:01.983Z</time></trkpt><trkpt lat="45.596973" lon="11.4572802"><ele>228.25</ele><time>2026-04-19T08:28:02.983Z</time></trkpt><trkpt lat="45.596909" lon="11.4574066"><ele>226.5</ele><time>2026-04-19T08:28:03.983Z</time></trkpt><trkpt lat="45.5968452" lon="11.4575371"><ele>224.75</ele><time>2026-04-19T08:28:04.983Z</time></trkpt><trkpt lat="45.5967952" lon="11.457681"><ele>223.0</ele><time>2026-04-19T08:28:05.983Z</time></trkpt><trkpt lat="45.5968221" lon="11.4578823"><ele>222.25</ele><time>2026-04-19T08:28:06.982Z</time></trkpt><trkpt lat="45.5967833" lon="11.4580362"><ele>221.5</ele><time>2026-04-19T08:28:07.982Z</time></trkpt><trkpt lat="45.5967593" lon="11.4582086"><ele>220.75</ele><time>2026-04-19T08:28:08.983Z</time></trkpt><trkpt lat="45.5967453" lon="11.4583782"><ele>220.0</ele><time>2026-04-19T08:28:09.983Z</time></trkpt><trkpt lat="45.5967417" lon="11.4585452"><ele>220.0</ele><time>2026-04-19T08:28:10.982Z</time></trkpt><trkpt lat="45.5967241" lon="11.4587187"><ele>220.0</ele><time>2026-04-19T08:28:11.982Z</time></trkpt><trkpt lat="45.5967293" lon="11.4588842"><ele>220.0</ele><time>2026-04-19T08:28:12.982Z</time></trkpt><trkpt lat="45.5967365" lon="11.459055"><ele>220.0</ele><time>2026-04-19T08:28:13.983Z</time></trkpt><trkpt lat="45.5967413" lon="11.4592328"><ele>218.0</ele><time>2026-04-19T08:28:14.983Z</time></trkpt><trkpt lat="45.5967447" lon="11.4593974"><ele>216.0</ele><time>2026-04-19T08:28:15.983Z</time></trkpt><trkpt lat="45.5967378" lon="11.459564"><ele>214.0</ele><time>2026-04-19T08:28:16.983Z</time></trkpt><trkpt lat="45.5967274" lon="11.4597144"><ele>212.0</ele><time>2026-04-19T08:28:17.983Z</time></trkpt><trkpt lat="45.5967188" lon="11.4598622"><ele>210.0</ele><time>2026-04-19T08:28:18.983Z</time></trkpt><trkpt lat="45.5967082" lon="11.4599999"><ele>208.8</ele><time>2026-04-19T08:28:19.983Z</time></trkpt><trkpt lat="45.596725" lon="11.4601183"><ele>207.6</ele><time>2026-04-19T08:28:20.982Z</time></trkpt><trkpt lat="45.5967716" lon="11.4602382"><ele>206.39999999999998</ele><time>2026-04-19T08:28:21.982Z</time></trkpt><trkpt lat="45.5968326" lon="11.4603406"><ele>205.2</ele><time>2026-04-19T08:28:22.982Z</time></trkpt><trkpt lat="45.5969078" lon="11.4604445"><ele>204.0</ele><time>2026-04-19T08:28:23.983Z</time></trkpt><trkpt lat="45.5969743" lon="11.4605555"><ele>202.0</ele><time>2026-04-19T08:28:24.982Z</time></trkpt><trkpt lat="45.5970411" lon="11.4606739"><ele>200.0</ele><time>2026-04-19T08:28:25.983Z</time></trkpt><trkpt lat="45.5971043" lon="11.4607734"><ele>198.0</ele><time>2026-04-19T08:28:26.983Z</time></trkpt><trkpt lat="45.5971896" lon="11.4608491"><ele>196.0</ele><time>2026-04-19T08:28:27.982Z</time></trkpt><trkpt lat="45.597266" lon="11.4609181"><ele>194.0</ele><time>2026-04-19T08:28:28.982Z</time></trkpt><trkpt lat="45.5973179" lon="11.4609868"><ele>194.0</ele><time>2026-04-19T08:28:29.985Z</time></trkpt><trkpt lat="45.597356" lon="11.4610835"><ele>194.0</ele><time>2026-04-19T08:28:30.983Z</time></trkpt><trkpt lat="45.5973623" lon="11.4612079"><ele>194.0</ele><time>2026-04-19T08:28:31.983Z</time></trkpt><trkpt lat="45.5974049" lon="11.4612958"><ele>194.0</ele><time>2026-04-19T08:28:32.985Z</time></trkpt><trkpt lat="45.5972626" lon="11.4613957"><ele>194.0</ele><time>2026-04-19T08:28:33.983Z</time></trkpt><trkpt lat="45.5971857" lon="11.4614807"><ele>193.6</ele><time>2026-04-19T08:28:34.983Z</time></trkpt><trkpt lat="45.5971217" lon="11.4615707"><ele>193.2</ele><time>2026-04-19T08:28:35.982Z</time></trkpt><trkpt lat="45.5970186" lon="11.4616568"><ele>192.79999999999998</ele><time>2026-04-19T08:28:36.982Z</time></trkpt><trkpt lat="45.5969316" lon="11.4617478"><ele>192.39999999999998</ele><time>2026-04-19T08:28:37.983Z</time></trkpt><trkpt lat="45.5969364" lon="11.4619219"><ele>192.0</ele><time>2026-04-19T08:28:38.984Z</time></trkpt><trkpt lat="45.5969034" lon="11.4620796"><ele>191.39999999999998</ele><time>2026-04-19T08:28:39.983Z</time></trkpt><trkpt lat="45.5969005" lon="11.4622127"><ele>190.79999999999998</ele><time>2026-04-19T08:28:40.983Z</time></trkpt><trkpt lat="45.5968769" lon="11.4623642"><ele>190.2</ele><time>2026-04-19T08:28:41.983Z</time></trkpt><trkpt lat="45.5968383" lon="11.462518"><ele>189.6</ele><time>2026-04-19T08:28:42.983Z</time></trkpt><trkpt lat="45.5968129" lon="11.4626639"><ele>189.0</ele><time>2026-04-19T08:28:43.983Z</time></trkpt><trkpt lat="45.5967718" lon="11.4628085"><ele>187.2</ele><time>2026-04-19T08:28:44.983Z</time></trkpt><trkpt lat="45.596727" lon="11.4629633"><ele>185.39999999999998</ele><time>2026-04-19T08:28:45.983Z</time></trkpt><trkpt lat="45.5966874" lon="11.4631045"><ele>183.6</ele><time>2026-04-19T08:28:46.984Z</time></trkpt><trkpt lat="45.5966159" lon="11.4632247"><ele>181.8</ele><time>2026-04-19T08:28:47.983Z</time></trkpt><trkpt lat="45.5965661" lon="11.4633484"><ele>180.0</ele><time>2026-04-19T08:28:48.984Z</time></trkpt><trkpt lat="45.5965084" lon="11.4634663"><ele>180.0</ele><time>2026-04-19T08:28:49.983Z</time></trkpt><trkpt lat="45.5964523" lon="11.4635805"><ele>180.0</ele><time>2026-04-19T08:28:50.982Z</time></trkpt><trkpt lat="45.5963965" lon="11.4637065"><ele>180.0</ele><time>2026-04-19T08:28:51.982Z</time></trkpt><trkpt lat="45.5963253" lon="11.4638114"><ele>180.0</ele><time>2026-04-19T08:28:52.984Z</time></trkpt><trkpt lat="45.5962479" lon="11.463917"><ele>180.0</ele><time>2026-04-19T08:28:53.983Z</time></trkpt><trkpt lat="45.5961666" lon="11.464014"><ele>179.0</ele><time>2026-04-19T08:28:54.984Z</time></trkpt><trkpt lat="45.5960762" lon="11.4641035"><ele>178.0</ele><time>2026-04-19T08:28:55.983Z</time></trkpt><trkpt lat="45.5959883" lon="11.4641521"><ele>177.0</ele><time>2026-04-19T08:28:56.983Z</time></trkpt><trkpt lat="45.5959157" lon="11.4642119"><ele>176.0</ele><time>2026-04-19T08:28:57.983Z</time></trkpt><trkpt lat="45.5958492" lon="11.4642602"><ele>175.0</ele><time>2026-04-19T08:28:58.984Z</time></trkpt><trkpt lat="45.5957367" lon="11.4643151"><ele>175.0</ele><time>2026-04-19T08:29:00.983Z</time></trkpt><trkpt lat="45.5958103" lon="11.4643928"><ele>175.0</ele><time>2026-04-19T08:29:01.984Z</time></trkpt><trkpt lat="45.5959463" lon="11.4644677"><ele>175.0</ele><time>2026-04-19T08:29:03.983Z</time></trkpt><trkpt lat="45.5960228" lon="11.46442"><ele>175.0</ele><time>2026-04-19T08:29:04.983Z</time></trkpt><trkpt lat="45.5961052" lon="11.4643929"><ele>175.0</ele><time>2026-04-19T08:29:05.982Z</time></trkpt><trkpt lat="45.596211" lon="11.4643318"><ele>174.2</ele><time>2026-04-19T08:29:07.983Z</time></trkpt><trkpt lat="45.5962857" lon="11.4643095"><ele>173.4</ele><time>2026-04-19T08:29:08.983Z</time></trkpt><trkpt lat="45.5963623" lon="11.4642982"><ele>172.60000000000002</ele><time>2026-04-19T08:29:09.982Z</time></trkpt><trkpt lat="45.5964719" lon="11.4643753"><ele>171.8</ele><time>2026-04-19T08:29:11.983Z</time></trkpt><trkpt lat="45.5964174" lon="11.4644433"><ele>171.0</ele><time>2026-04-19T08:29:12.982Z</time></trkpt><trkpt lat="45.5963009" lon="11.4645048"><ele>171.0</ele><time>2026-04-19T08:29:14.984Z</time></trkpt><trkpt lat="45.5962165" lon="11.4645312"><ele>171.0</ele><time>2026-04-19T08:29:15.982Z</time></trkpt><trkpt lat="45.5961382" lon="11.4645716"><ele>171.0</ele><time>2026-04-19T08:29:16.981Z</time></trkpt><trkpt lat="45.596057" lon="11.4646083"><ele>171.0</ele><time>2026-04-19T08:29:17.983Z</time></trkpt><trkpt lat="45.5959723" lon="11.4646378"><ele>171.0</ele><time>2026-04-19T08:29:18.982Z</time></trkpt><trkpt lat="45.5958934" lon="11.4646774"><ele>171.0</ele><time>2026-04-19T08:29:19.982Z</time></trkpt><trkpt lat="45.5958077" lon="11.4647151"><ele>169.60000000000002</ele><time>2026-04-19T08:29:20.983Z</time></trkpt><trkpt lat="45.5957235" lon="11.4647608"><ele>168.2</ele><time>2026-04-19T08:29:21.983Z</time></trkpt><trkpt lat="45.5956449" lon="11.4648145"><ele>166.8</ele><time>2026-04-19T08:29:22.982Z</time></trkpt><trkpt lat="45.5955653" lon="11.4648935"><ele>165.39999999999998</ele><time>2026-04-19T08:29:23.982Z</time></trkpt><trkpt lat="45.5955005" lon="11.4649837"><ele>164.0</ele><time>2026-04-19T08:29:24.982Z</time></trkpt><trkpt lat="45.5954237" lon="11.4650591"><ele>164.0</ele><time>2026-04-19T08:29:25.982Z</time></trkpt><trkpt lat="45.5953853" lon="11.4652173"><ele>164.0</ele><time>2026-04-19T08:29:26.982Z</time></trkpt><trkpt lat="45.5953537" lon="11.4653584"><ele>164.0</ele><time>2026-04-19T08:29:27.983Z</time></trkpt><trkpt lat="45.595342" lon="11.4655114"><ele>164.0</ele><time>2026-04-19T08:29:28.982Z</time></trkpt><trkpt lat="45.595364" lon="11.4656534"><ele>164.0</ele><time>2026-04-19T08:29:29.983Z</time></trkpt><trkpt lat="45.5954236" lon="11.4657561"><ele>162.79999999999998</ele><time>2026-04-19T08:29:30.983Z</time></trkpt><trkpt lat="45.5955043" lon="11.4658341"><ele>161.6</ele><time>2026-04-19T08:29:31.982Z</time></trkpt><trkpt lat="45.5956" lon="11.4658851"><ele>160.4</ele><time>2026-04-19T08:29:32.982Z</time></trkpt><trkpt lat="45.5956649" lon="11.4659426"><ele>159.2</ele><time>2026-04-19T08:29:33.981Z</time></trkpt><trkpt lat="45.5956985" lon="11.4660701"><ele>158.0</ele><time>2026-04-19T08:29:34.983Z</time></trkpt><trkpt lat="45.595742" lon="11.4661714"><ele>156.6</ele><time>2026-04-19T08:29:35.983Z</time></trkpt><trkpt lat="45.5957466" lon="11.4663012"><ele>155.20000000000002</ele><time>2026-04-19T08:29:36.981Z</time></trkpt><trkpt lat="45.5956317" lon="11.4663451"><ele>153.8</ele><time>2026-04-19T08:29:37.981Z</time></trkpt><trkpt lat="45.5955744" lon="11.4664382"><ele>152.4</ele><time>2026-04-19T08:29:38.983Z</time></trkpt><trkpt lat="45.5954961" lon="11.4664845"><ele>151.0</ele><time>2026-04-19T08:29:39.982Z</time></trkpt><trkpt lat="45.5953798" lon="11.4665134"><ele>152.0</ele><time>2026-04-19T08:29:40.981Z</time></trkpt><trkpt lat="45.5952781" lon="11.4665599"><ele>153.0</ele><time>2026-04-19T08:29:41.982Z</time></trkpt><trkpt lat="45.5951908" lon="11.4666541"><ele>154.0</ele><time>2026-04-19T08:29:42.981Z</time></trkpt><trkpt lat="45.5951155" lon="11.4667935"><ele>155.0</ele><time>2026-04-19T08:29:43.983Z</time></trkpt><trkpt lat="45.5950721" lon="11.4669244"><ele>156.0</ele><time>2026-04-19T08:29:44.983Z</time></trkpt><trkpt lat="45.595036" lon="11.4670652"><ele>154.0</ele><time>2026-04-19T08:29:45.982Z</time></trkpt><trkpt lat="45.5950032" lon="11.4671997"><ele>152.0</ele><time>2026-04-19T08:29:46.983Z</time></trkpt><trkpt lat="45.5949648" lon="11.4673346"><ele>150.0</ele><time>2026-04-19T08:29:47.982Z</time></trkpt><trkpt lat="45.5949383" lon="11.4674689"><ele>148.0</ele><time>2026-04-19T08:29:48.982Z</time></trkpt><trkpt lat="45.5949028" lon="11.4676097"><ele>146.0</ele><time>2026-04-19T08:29:49.983Z</time></trkpt><trkpt lat="45.5948623" lon="11.4677504"><ele>146.0</ele><time>2026-04-19T08:29:50.983Z</time></trkpt><trkpt lat="45.5948158" lon="11.467867"><ele>146.0</ele><time>2026-04-19T08:29:51.982Z</time></trkpt><trkpt lat="45.5947609" lon="11.4679874"><ele>146.0</ele><time>2026-04-19T08:29:52.981Z</time></trkpt><trkpt lat="45.5947184" lon="11.468129"><ele>146.0</ele><time>2026-04-19T08:29:53.983Z</time></trkpt><trkpt lat="45.5946972" lon="11.4682903"><ele>146.0</ele><time>2026-04-19T08:29:54.983Z</time></trkpt><trkpt lat="45.59468" lon="11.46846"><ele>145.0</ele><time>2026-04-19T08:29:55.983Z</time></trkpt><trkpt lat="45.5946662" lon="11.4686289"><ele>144.0</ele><time>2026-04-19T08:29:56.983Z</time></trkpt><trkpt lat="45.5946506" lon="11.4688046"><ele>143.0</ele><time>2026-04-19T08:29:57.982Z</time></trkpt><trkpt lat="45.5946287" lon="11.4689718"><ele>142.0</ele><time>2026-04-19T08:29:58.982Z</time></trkpt><trkpt lat="45.5946119" lon="11.4691481"><ele>140.5</ele><time>2026-04-19T08:29:59.983Z</time></trkpt><trkpt lat="45.5945859" lon="11.4693222"><ele>139.0</ele><time>2026-04-19T08:30:00.982Z</time></trkpt><trkpt lat="45.5945773" lon="11.4694977"><ele>137.5</ele><time>2026-04-19T08:30:01.983Z</time></trkpt><trkpt lat="45.5945514" lon="11.4696695"><ele>136.0</ele><time>2026-04-19T08:30:02.984Z</time></trkpt><trkpt lat="45.594537" lon="11.4698563"><ele>133.75</ele><time>2026-04-19T08:30:03.982Z</time></trkpt><trkpt lat="45.5945337" lon="11.4700413"><ele>131.5</ele><time>2026-04-19T08:30:04.983Z</time></trkpt><trkpt lat="45.594525" lon="11.4702249"><ele>129.25</ele><time>2026-04-19T08:30:05.983Z</time></trkpt><trkpt lat="45.5945298" lon="11.4704078"><ele>127.0</ele><time>2026-04-19T08:30:06.984Z</time></trkpt><trkpt lat="45.5945263" lon="11.4705938"><ele>125.25</ele><time>2026-04-19T08:30:07.983Z</time></trkpt><trkpt lat="45.5945254" lon="11.4707846"><ele>123.5</ele><time>2026-04-19T08:30:08.984Z</time></trkpt><trkpt lat="45.5945238" lon="11.4709765"><ele>121.75</ele><time>2026-04-19T08:30:09.983Z</time></trkpt><trkpt lat="45.5945256" lon="11.4711584"><ele>120.0</ele><time>2026-04-19T08:30:10.983Z</time></trkpt><trkpt lat="45.5945301" lon="11.4713492"><ele>118.0</ele><time>2026-04-19T08:30:11.982Z</time></trkpt><trkpt lat="45.5945568" lon="11.4715424"><ele>116.0</ele><time>2026-04-19T08:30:12.982Z</time></trkpt><trkpt lat="45.5945458" lon="11.4717416"><ele>114.0</ele><time>2026-04-19T08:30:13.983Z</time></trkpt><trkpt lat="45.5945365" lon="11.4719031"><ele>112.0</ele><time>2026-04-19T08:30:14.984Z</time></trkpt><trkpt lat="45.594509" lon="11.4720801"><ele>110.75</ele><time>2026-04-19T08:30:15.981Z</time></trkpt><trkpt lat="45.594454" lon="11.4722538"><ele>109.5</ele><time>2026-04-19T08:30:16.982Z</time></trkpt><trkpt lat="45.5944282" lon="11.4724183"><ele>108.25</ele><time>2026-04-19T08:30:17.983Z</time></trkpt><trkpt lat="45.5944005" lon="11.4725918"><ele>107.0</ele><time>2026-04-19T08:30:18.982Z</time></trkpt><trkpt lat="45.5943728" lon="11.4727675"><ele>104.0</ele><time>2026-04-19T08:30:19.983Z</time></trkpt><trkpt lat="45.5943786" lon="11.4729771"><ele>101.0</ele><time>2026-04-19T08:30:20.983Z</time></trkpt><trkpt lat="45.5943824" lon="11.4731993"><ele>98.0</ele><time>2026-04-19T08:30:21.982Z</time></trkpt><trkpt lat="45.5943646" lon="11.4733827"><ele>95.0</ele><time>2026-04-19T08:30:22.983Z</time></trkpt><trkpt lat="45.5943824" lon="11.4735756"><ele>95.0</ele><time>2026-04-19T08:30:23.983Z</time></trkpt><trkpt lat="45.594381" lon="11.4737615"><ele>95.0</ele><time>2026-04-19T08:30:24.982Z</time></trkpt><trkpt lat="45.5943819" lon="11.4739403"><ele>95.0</ele><time>2026-04-19T08:30:25.983Z</time></trkpt><trkpt lat="45.5944018" lon="11.4741276"><ele>95.0</ele><time>2026-04-19T08:30:26.982Z</time></trkpt><trkpt lat="45.594432" lon="11.4742978"><ele>93.25</ele><time>2026-04-19T08:30:27.983Z</time></trkpt><trkpt lat="45.5943992" lon="11.4744619"><ele>91.5</ele><time>2026-04-19T08:30:28.982Z</time></trkpt><trkpt lat="45.5943811" lon="11.47463"><ele>89.75</ele><time>2026-04-19T08:30:29.983Z</time></trkpt><trkpt lat="45.5943405" lon="11.4748053"><ele>88.0</ele><time>2026-04-19T08:30:30.982Z</time></trkpt><trkpt lat="45.5942874" lon="11.4749852"><ele>86.25</ele><time>2026-04-19T08:30:31.983Z</time></trkpt><trkpt lat="45.5942323" lon="11.4751607"><ele>84.5</ele><time>2026-04-19T08:30:32.982Z</time></trkpt><trkpt lat="45.5941869" lon="11.4753533"><ele>82.75</ele><time>2026-04-19T08:30:33.982Z</time></trkpt><trkpt lat="45.5941524" lon="11.4755486"><ele>81.0</ele><time>2026-04-19T08:30:34.982Z</time></trkpt><trkpt lat="45.5941073" lon="11.4757365"><ele>79.5</ele><time>2026-04-19T08:30:35.982Z</time></trkpt><trkpt lat="45.5940588" lon="11.4759124"><ele>78.0</ele><time>2026-04-19T08:30:36.982Z</time></trkpt><trkpt lat="45.5940275" lon="11.4760984"><ele>76.5</ele><time>2026-04-19T08:30:37.982Z</time></trkpt><trkpt lat="45.5940187" lon="11.4762442"><ele>75.0</ele><time>2026-04-19T08:30:38.982Z</time></trkpt><trkpt lat="45.594015" lon="11.476392"><ele>74.0</ele><time>2026-04-19T08:30:39.983Z</time></trkpt><trkpt lat="45.5939986" lon="11.4765179"><ele>73.0</ele><time>2026-04-19T08:30:40.983Z</time></trkpt><trkpt lat="45.5939839" lon="11.4766451"><ele>72.0</ele><time>2026-04-19T08:30:41.983Z</time></trkpt><trkpt lat="45.5939484" lon="11.4767804"><ele>71.0</ele><time>2026-04-19T08:30:42.983Z</time></trkpt><trkpt lat="45.593907" lon="11.476888"><ele>70.0</ele><time>2026-04-19T08:30:43.983Z</time></trkpt><trkpt lat="45.5938628" lon="11.4769924"><ele>70.0</ele><time>2026-04-19T08:30:44.983Z</time></trkpt><trkpt lat="45.5937898" lon="11.4770862"><ele>70.0</ele><time>2026-04-19T08:30:45.982Z</time></trkpt><trkpt lat="45.5937046" lon="11.4771607"><ele>70.0</ele><time>2026-04-19T08:30:46.982Z</time></trkpt><trkpt lat="45.5936407" lon="11.477268"><ele>70.0</ele><time>2026-04-19T08:30:47.982Z</time></trkpt><trkpt lat="45.5935951" lon="11.4773773"><ele>70.0</ele><time>2026-04-19T08:30:48.983Z</time></trkpt><trkpt lat="45.5935366" lon="11.4774964"><ele>67.5</ele><time>2026-04-19T08:30:49.983Z</time></trkpt><trkpt lat="45.5934796" lon="11.4776177"><ele>65.0</ele><time>2026-04-19T08:30:50.983Z</time></trkpt><trkpt lat="45.5934449" lon="11.4777599"><ele>62.5</ele><time>2026-04-19T08:30:51.983Z</time></trkpt><trkpt lat="45.5933281" lon="11.4778898"><ele>60.0</ele><time>2026-04-19T08:30:52.983Z</time></trkpt><trkpt lat="45.5932513" lon="11.4779826"><ele>59.333333333333336</ele><time>2026-04-19T08:30:53.983Z</time></trkpt><trkpt lat="45.5931905" lon="11.4780664"><ele>58.66666666666667</ele><time>2026-04-19T08:30:54.982Z</time></trkpt><trkpt lat="45.5931336" lon="11.4781615"><ele>58.0</ele><time>2026-04-19T08:30:55.983Z</time></trkpt><trkpt lat="45.5931116" lon="11.4782579"><ele>57.333333333333336</ele><time>2026-04-19T08:30:56.981Z</time></trkpt><trkpt lat="45.593068" lon="11.4783389"><ele>56.66666666666667</ele><time>2026-04-19T08:30:57.984Z</time></trkpt><trkpt lat="45.5930122" lon="11.4783935"><ele>56.0</ele><time>2026-04-19T08:30:59.982Z</time></trkpt><trkpt lat="45.5931056" lon="11.478447"><ele>56.0</ele><time>2026-04-19T08:31:01.982Z</time></trkpt><trkpt lat="45.5932409" lon="11.4784601"><ele>55.99999999999999</ele><time>2026-04-19T08:31:04.983Z</time></trkpt><trkpt lat="45.5933138" lon="11.4784763"><ele>55.99999999999999</ele><time>2026-04-19T08:31:06.983Z</time></trkpt><trkpt lat="45.5934133" lon="11.4785045"><ele>56.0</ele><time>2026-04-19T08:31:08.982Z</time></trkpt><trkpt lat="45.5935131" lon="11.4785149"><ele>56.0</ele><time>2026-04-19T08:31:10.983Z</time></trkpt><trkpt lat="45.5936665" lon="11.4784996"><ele>56.16666666666667</ele><time>2026-04-19T08:31:13.981Z</time></trkpt><trkpt lat="45.5937458" lon="11.4784604"><ele>56.333333333333336</ele><time>2026-04-19T08:31:15.983Z</time></trkpt><trkpt lat="45.5938127" lon="11.4784557"><ele>56.5</ele><time>2026-04-19T08:31:16.982Z</time></trkpt><trkpt lat="45.5939269" lon="11.4784481"><ele>56.66666666666667</ele><time>2026-04-19T08:31:18.983Z</time></trkpt><trkpt lat="45.5940077" lon="11.4784098"><ele>56.833333333333336</ele><time>2026-04-19T08:31:20.981Z</time></trkpt><trkpt lat="45.5940889" lon="11.4783843"><ele>57.0</ele><time>2026-04-19T08:31:22.982Z</time></trkpt><trkpt lat="45.5941761" lon="11.4783641"><ele>57.0</ele><time>2026-04-19T08:31:24.983Z</time></trkpt><trkpt lat="45.5942818" lon="11.4783417"><ele>57.0</ele><time>2026-04-19T08:31:26.983Z</time></trkpt><trkpt lat="45.5943943" lon="11.4783215"><ele>57.0</ele><time>2026-04-19T08:31:28.983Z</time></trkpt><trkpt lat="45.5944952" lon="11.4782904"><ele>57.0</ele><time>2026-04-19T08:31:30.982Z</time></trkpt><trkpt lat="45.5945939" lon="11.478216"><ele>57.0</ele><time>2026-04-19T08:31:32.983Z</time></trkpt><trkpt lat="45.5946935" lon="11.4781158"><ele>57.166666666666664</ele><time>2026-04-19T08:31:34.983Z</time></trkpt><trkpt lat="45.5947423" lon="11.4780584"><ele>57.33333333333333</ele><time>2026-04-19T08:31:35.983Z</time></trkpt><trkpt lat="45.5947919" lon="11.4780021"><ele>57.5</ele><time>2026-04-19T08:31:36.982Z</time></trkpt><trkpt lat="45.5948825" lon="11.4778497"><ele>57.666666666666664</ele><time>2026-04-19T08:31:38.983Z</time></trkpt><trkpt lat="45.5949651" lon="11.4777508"><ele>57.83333333333333</ele><time>2026-04-19T08:31:40.981Z</time></trkpt><trkpt lat="45.595014" lon="11.4776877"><ele>58.0</ele><time>2026-04-19T08:31:41.982Z</time></trkpt><trkpt lat="45.5951267" lon="11.4775845"><ele>58.0</ele><time>2026-04-19T08:31:43.983Z</time></trkpt><trkpt lat="45.5951998" lon="11.4774629"><ele>58.0</ele><time>2026-04-19T08:31:45.983Z</time></trkpt><trkpt lat="45.5952709" lon="11.4774288"><ele>58.0</ele><time>2026-04-19T08:31:46.983Z</time></trkpt><trkpt lat="45.5953477" lon="11.477338"><ele>58.0</ele><time>2026-04-19T08:31:48.983Z</time></trkpt><trkpt lat="45.5954591" lon="11.4771969"><ele>58.0</ele><time>2026-04-19T08:31:51.982Z</time></trkpt><trkpt lat="45.5955444" lon="11.477099"><ele>56.8</ele><time>2026-04-19T08:31:53.982Z</time></trkpt><trkpt lat="45.5956105" lon="11.4770082"><ele>55.599999999999994</ele><time>2026-04-19T08:31:55.983Z</time></trkpt><trkpt lat="45.5956794" lon="11.4769076"><ele>54.400000000000006</ele><time>2026-04-19T08:31:57.983Z</time></trkpt><trkpt lat="45.5957479" lon="11.4768196"><ele>53.2</ele><time>2026-04-19T08:31:59.983Z</time></trkpt><trkpt lat="45.5958188" lon="11.4767287"><ele>52.0</ele><time>2026-04-19T08:32:01.982Z</time></trkpt><trkpt lat="45.5958771" lon="11.4766402"><ele>52.0</ele><time>2026-04-19T08:32:03.983Z</time></trkpt><trkpt lat="45.5959483" lon="11.4765511"><ele>52.0</ele><time>2026-04-19T08:32:05.983Z</time></trkpt><trkpt lat="45.5960325" lon="11.476486"><ele>52.0</ele><time>2026-04-19T08:32:07.984Z</time></trkpt><trkpt lat="45.5961188" lon="11.4764466"><ele>52.0</ele><time>2026-04-19T08:32:09.983Z</time></trkpt><trkpt lat="45.5962046" lon="11.476391"><ele>52.0</ele><time>2026-04-19T08:32:11.983Z</time></trkpt><trkpt lat="45.5963041" lon="11.476369"><ele>51.99999999999999</ele><time>2026-04-19T08:32:13.982Z</time></trkpt><trkpt lat="45.5963673" lon="11.4763555"><ele>52.0</ele><time>2026-04-19T08:32:14.983Z</time></trkpt><trkpt lat="45.5964281" lon="11.4762778"><ele>52.0</ele><time>2026-04-19T08:32:16.982Z</time></trkpt><trkpt lat="45.5964968" lon="11.4762321"><ele>52.0</ele><time>2026-04-19T08:32:18.983Z</time></trkpt><trkpt lat="45.5965921" lon="11.4761945"><ele>51.99999999999999</ele><time>2026-04-19T08:32:20.982Z</time></trkpt><trkpt lat="45.5966671" lon="11.4761148"><ele>52.0</ele><time>2026-04-19T08:32:22.983Z</time></trkpt><trkpt lat="45.596749" lon="11.4760501"><ele>52.166666666666664</ele><time>2026-04-19T08:32:24.983Z</time></trkpt><trkpt lat="45.5968343" lon="11.4759788"><ele>52.33333333333333</ele><time>2026-04-19T08:32:26.983Z</time></trkpt><trkpt lat="45.5969162" lon="11.4759193"><ele>52.5</ele><time>2026-04-19T08:32:28.984Z</time></trkpt><trkpt lat="45.5969821" lon="11.475861"><ele>52.66666666666667</ele><time>2026-04-19T08:32:30.983Z</time></trkpt><trkpt lat="45.5970495" lon="11.4757771"><ele>52.833333333333336</ele><time>2026-04-19T08:32:32.983Z</time></trkpt><trkpt lat="45.5970969" lon="11.4757011"><ele>53.0</ele><time>2026-04-19T08:32:34.983Z</time></trkpt><trkpt lat="45.5971821" lon="11.4756404"><ele>53.0</ele><time>2026-04-19T08:32:36.983Z</time></trkpt><trkpt lat="45.597222" lon="11.4755636"><ele>53.0</ele><time>2026-04-19T08:32:38.984Z</time></trkpt><trkpt lat="45.5972756" lon="11.4754566"><ele>53.0</ele><time>2026-04-19T08:32:40.983Z</time></trkpt><trkpt lat="45.5973347" lon="11.4753422"><ele>53.0</ele><time>2026-04-19T08:32:42.985Z</time></trkpt><trkpt lat="45.597416" lon="11.4752401"><ele>53.0</ele><time>2026-04-19T08:32:44.983Z</time></trkpt><trkpt lat="45.5974857" lon="11.4751563"><ele>53.0</ele><time>2026-04-19T08:32:46.984Z</time></trkpt><trkpt lat="45.5975765" lon="11.4750654"><ele>53.0</ele><time>2026-04-19T08:32:48.982Z</time></trkpt><trkpt lat="45.5976558" lon="11.4750093"><ele>53.0</ele><time>2026-04-19T08:32:50.985Z</time></trkpt><trkpt lat="45.5977309" lon="11.4749555"><ele>53.0</ele><time>2026-04-19T08:32:52.984Z</time></trkpt><trkpt lat="45.597797" lon="11.4748997"><ele>53.0</ele><time>2026-04-19T08:32:54.981Z</time></trkpt><trkpt lat="45.59788" lon="11.4748514"><ele>53.0</ele><time>2026-04-19T08:32:56.983Z</time></trkpt><trkpt lat="45.5979607" lon="11.474812"><ele>53.0</ele><time>2026-04-19T08:32:58.983Z</time></trkpt><trkpt lat="45.5980382" lon="11.4747675"><ele>53.0</ele><time>2026-04-19T08:33:00.984Z</time></trkpt><trkpt lat="45.5981389" lon="11.4747115"><ele>53.0</ele><time>2026-04-19T08:33:02.984Z</time></trkpt><trkpt lat="45.5982421" lon="11.4746737"><ele>53.0</ele><time>2026-04-19T08:33:04.984Z</time></trkpt><trkpt lat="45.5983385" lon="11.4746259"><ele>53.0</ele><time>2026-04-19T08:33:06.983Z</time></trkpt><trkpt lat="45.5984361" lon="11.4745639"><ele>53.0</ele><time>2026-04-19T08:33:08.984Z</time></trkpt><trkpt lat="45.5985309" lon="11.474486"><ele>53.0</ele><time>2026-04-19T08:33:10.984Z</time></trkpt><trkpt lat="45.5986171" lon="11.4743942"><ele>53.0</ele><time>2026-04-19T08:33:12.984Z</time></trkpt><trkpt lat="45.5987048" lon="11.4743002"><ele>53.0</ele><time>2026-04-19T08:33:14.983Z</time></trkpt><trkpt lat="45.5987909" lon="11.4742036"><ele>53.0</ele><time>2026-04-19T08:33:16.984Z</time></trkpt><trkpt lat="45.5988731" lon="11.4741033"><ele>53.0</ele><time>2026-04-19T08:33:18.984Z</time></trkpt><trkpt lat="45.5989579" lon="11.4740086"><ele>53.0</ele><time>2026-04-19T08:33:20.982Z</time></trkpt><trkpt lat="45.5990416" lon="11.4739237"><ele>53.0</ele><time>2026-04-19T08:33:22.984Z</time></trkpt><trkpt lat="45.599117" lon="11.4738415"><ele>53.0</ele><time>2026-04-19T08:33:24.983Z</time></trkpt><trkpt lat="45.5991888" lon="11.4737512"><ele>53.2</ele><time>2026-04-19T08:33:26.984Z</time></trkpt><trkpt lat="45.599278" lon="11.4736568"><ele>53.4</ele><time>2026-04-19T08:33:28.984Z</time></trkpt><trkpt lat="45.5993622" lon="11.4735702"><ele>53.60000000000001</ele><time>2026-04-19T08:33:30.984Z</time></trkpt><trkpt lat="45.5994385" lon="11.4735026"><ele>53.800000000000004</ele><time>2026-04-19T08:33:32.984Z</time></trkpt><trkpt lat="45.5995008" lon="11.4734109"><ele>54.0</ele><time>2026-04-19T08:33:34.984Z</time></trkpt><trkpt lat="45.5995223" lon="11.4733008"><ele>54.2</ele><time>2026-04-19T08:33:36.984Z</time></trkpt><trkpt lat="45.5995394" lon="11.4732011"><ele>54.400000000000006</ele><time>2026-04-19T08:33:38.984Z</time></trkpt><trkpt lat="45.5996012" lon="11.4731064"><ele>54.6</ele><time>2026-04-19T08:33:40.982Z</time></trkpt><trkpt lat="45.5996854" lon="11.4730179"><ele>54.8</ele><time>2026-04-19T08:33:42.983Z</time></trkpt><trkpt lat="45.5997657" lon="11.4729348"><ele>55.0</ele><time>2026-04-19T08:33:44.982Z</time></trkpt><trkpt lat="45.599846" lon="11.4728553"><ele>55.0</ele><time>2026-04-19T08:33:46.983Z</time></trkpt><trkpt lat="45.5999288" lon="11.4727647"><ele>55.0</ele><time>2026-04-19T08:33:48.983Z</time></trkpt><trkpt lat="45.600021" lon="11.4726621"><ele>55.0</ele><time>2026-04-19T08:33:50.983Z</time></trkpt><trkpt lat="45.6001167" lon="11.4725658"><ele>55.0</ele><time>2026-04-19T08:33:52.983Z</time></trkpt><trkpt lat="45.6002088" lon="11.4724807"><ele>55.0</ele><time>2026-04-19T08:33:54.984Z</time></trkpt><trkpt lat="45.6003029" lon="11.4723797"><ele>54.8</ele><time>2026-04-19T08:33:56.983Z</time></trkpt><trkpt lat="45.6003904" lon="11.4722708"><ele>54.6</ele><time>2026-04-19T08:33:58.984Z</time></trkpt><trkpt lat="45.6004809" lon="11.4721577"><ele>54.400000000000006</ele><time>2026-04-19T08:34:00.983Z</time></trkpt><trkpt lat="45.6005465" lon="11.4721056"><ele>54.2</ele><time>2026-04-19T08:34:01.984Z</time></trkpt><trkpt lat="45.6006156" lon="11.4720882"><ele>54.0</ele><time>2026-04-19T08:34:02.983Z</time></trkpt><trkpt lat="45.6006745" lon="11.4720186"><ele>54.0</ele><time>2026-04-19T08:34:03.983Z</time></trkpt><trkpt lat="45.6007478" lon="11.4719016"><ele>54.0</ele><time>2026-04-19T08:34:05.983Z</time></trkpt><trkpt lat="45.6008055" lon="11.4718496"><ele>54.0</ele><time>2026-04-19T08:34:06.982Z</time></trkpt><trkpt lat="45.6008376" lon="11.4717705"><ele>54.0</ele><time>2026-04-19T08:34:07.984Z</time></trkpt><trkpt lat="45.6009161" lon="11.4716747"><ele>54.0</ele><time>2026-04-19T08:34:09.983Z</time></trkpt><trkpt lat="45.6009889" lon="11.4715736"><ele>54.0</ele><time>2026-04-19T08:34:11.983Z</time></trkpt><trkpt lat="45.6010506" lon="11.4714453"><ele>54.0</ele><time>2026-04-19T08:34:13.983Z</time></trkpt><trkpt lat="45.601107" lon="11.4713094"><ele>54.0</ele><time>2026-04-19T08:34:15.984Z</time></trkpt><trkpt lat="45.60112" lon="11.4712212"><ele>54.0</ele><time>2026-04-19T08:34:16.983Z</time></trkpt><trkpt lat="45.6010882" lon="11.4710522"><ele>54.0</ele><time>2026-04-19T08:34:18.984Z</time></trkpt><trkpt lat="45.6010871" lon="11.470961"><ele>54.0</ele><time>2026-04-19T08:34:19.984Z</time></trkpt><trkpt lat="45.6010525" lon="11.4708731"><ele>54.0</ele><time>2026-04-19T08:34:20.984Z</time></trkpt><trkpt lat="45.6009944" lon="11.4707129"><ele>53.800000000000004</ele><time>2026-04-19T08:34:22.984Z</time></trkpt><trkpt lat="45.6008976" lon="11.4706123"><ele>53.60000000000001</ele><time>2026-04-19T08:34:24.984Z</time></trkpt><trkpt lat="45.6008584" lon="11.4704644"><ele>53.4</ele><time>2026-04-19T08:34:26.982Z</time></trkpt><trkpt lat="45.6008009" lon="11.4703279"><ele>53.2</ele><time>2026-04-19T08:34:28.983Z</time></trkpt><trkpt lat="45.6007541" lon="11.4701941"><ele>53.0</ele><time>2026-04-19T08:34:30.983Z</time></trkpt><trkpt lat="45.6007022" lon="11.470072"><ele>53.4</ele><time>2026-04-19T08:34:32.983Z</time></trkpt><trkpt lat="45.6006535" lon="11.4699414"><ele>53.8</ele><time>2026-04-19T08:34:34.982Z</time></trkpt><trkpt lat="45.6006256" lon="11.4698159"><ele>54.2</ele><time>2026-04-19T08:34:36.984Z</time></trkpt><trkpt lat="45.6006162" lon="11.4696716"><ele>54.6</ele><time>2026-04-19T08:34:38.983Z</time></trkpt><trkpt lat="45.6006216" lon="11.4695436"><ele>55.0</ele><time>2026-04-19T08:34:40.984Z</time></trkpt><trkpt lat="45.6006579" lon="11.469405"><ele>55.0</ele><time>2026-04-19T08:34:42.984Z</time></trkpt><trkpt lat="45.6007164" lon="11.4692568"><ele>55.0</ele><time>2026-04-19T08:34:44.984Z</time></trkpt><trkpt lat="45.6007788" lon="11.469119"><ele>55.0</ele><time>2026-04-19T08:34:46.984Z</time></trkpt><trkpt lat="45.6008352" lon="11.4690102"><ele>55.0</ele><time>2026-04-19T08:34:48.984Z</time></trkpt><trkpt lat="45.6008942" lon="11.4688822"><ele>55.0</ele><time>2026-04-19T08:34:50.983Z</time></trkpt><trkpt lat="45.6009481" lon="11.4687523"><ele>55.33333333333333</ele><time>2026-04-19T08:34:52.984Z</time></trkpt><trkpt lat="45.6009983" lon="11.468599"><ele>55.666666666666664</ele><time>2026-04-19T08:34:54.984Z</time></trkpt><trkpt lat="45.601062" lon="11.468459"><ele>56.0</ele><time>2026-04-19T08:34:56.984Z</time></trkpt><trkpt lat="45.6011079" lon="11.4683974"><ele>56.33333333333333</ele><time>2026-04-19T08:34:57.983Z</time></trkpt><trkpt lat="45.6011587" lon="11.4683434"><ele>56.666666666666664</ele><time>2026-04-19T08:34:58.982Z</time></trkpt><trkpt lat="45.6012166" lon="11.4682942"><ele>57.0</ele><time>2026-04-19T08:34:59.984Z</time></trkpt><trkpt lat="45.6012758" lon="11.4682499"><ele>57.0</ele><time>2026-04-19T08:35:00.983Z</time></trkpt><trkpt lat="45.6013684" lon="11.4682237"><ele>57.0</ele><time>2026-04-19T08:35:01.984Z</time></trkpt><trkpt lat="45.6014444" lon="11.4681915"><ele>57.0</ele><time>2026-04-19T08:35:02.983Z</time></trkpt><trkpt lat="45.601538" lon="11.4680837"><ele>57.0</ele><time>2026-04-19T08:35:04.982Z</time></trkpt><trkpt lat="45.6015937" lon="11.4680396"><ele>57.0</ele><time>2026-04-19T08:35:05.984Z</time></trkpt><trkpt lat="45.6017033" lon="11.4679474"><ele>57.0</ele><time>2026-04-19T08:35:07.984Z</time></trkpt><trkpt lat="45.601806" lon="11.4678825"><ele>57.0</ele><time>2026-04-19T08:35:09.984Z</time></trkpt><trkpt lat="45.6019113" lon="11.4678076"><ele>57.0</ele><time>2026-04-19T08:35:11.984Z</time></trkpt><trkpt lat="45.6020328" lon="11.4677313"><ele>57.0</ele><time>2026-04-19T08:35:13.983Z</time></trkpt><trkpt lat="45.6021063" lon="11.467676"><ele>57.0</ele><time>2026-04-19T08:35:14.983Z</time></trkpt><trkpt lat="45.6022015" lon="11.4675921"><ele>57.0</ele><time>2026-04-19T08:35:16.983Z</time></trkpt><trkpt lat="45.60231" lon="11.4675129"><ele>57.0</ele><time>2026-04-19T08:35:18.983Z</time></trkpt><trkpt lat="45.6024237" lon="11.4674313"><ele>57.0</ele><time>2026-04-19T08:35:20.983Z</time></trkpt><trkpt lat="45.6024916" lon="11.467374"><ele>57.0</ele><time>2026-04-19T08:35:21.983Z</time></trkpt><trkpt lat="45.6025739" lon="11.4673056"><ele>57.0</ele><time>2026-04-19T08:35:23.983Z</time></trkpt><trkpt lat="45.6026721" lon="11.4672257"><ele>57.0</ele><time>2026-04-19T08:35:25.983Z</time></trkpt><trkpt lat="45.6027234" lon="11.4671721"><ele>57.0</ele><time>2026-04-19T08:35:26.984Z</time></trkpt><trkpt lat="45.6028279" lon="11.4670672"><ele>57.0</ele><time>2026-04-19T08:35:28.983Z</time></trkpt><trkpt lat="45.6028954" lon="11.4670236"><ele>57.0</ele><time>2026-04-19T08:35:29.983Z</time></trkpt><trkpt lat="45.60296" lon="11.4669578"><ele>57.0</ele><time>2026-04-19T08:35:30.984Z</time></trkpt><trkpt lat="45.603053" lon="11.4668687"><ele>57.2</ele><time>2026-04-19T08:35:32.984Z</time></trkpt><trkpt lat="45.60311" lon="11.4668256"><ele>57.400000000000006</ele><time>2026-04-19T08:35:33.982Z</time></trkpt><trkpt lat="45.6032058" lon="11.4667294"><ele>57.599999999999994</ele><time>2026-04-19T08:35:35.984Z</time></trkpt><trkpt lat="45.6033088" lon="11.4666262"><ele>57.8</ele><time>2026-04-19T08:35:37.983Z</time></trkpt><trkpt lat="45.6033766" lon="11.4665648"><ele>58.0</ele><time>2026-04-19T08:35:38.984Z</time></trkpt><trkpt lat="45.6034423" lon="11.4665345"><ele>58.0</ele><time>2026-04-19T08:35:39.984Z</time></trkpt><trkpt lat="45.6035514" lon="11.4664524"><ele>58.0</ele><time>2026-04-19T08:35:41.984Z</time></trkpt><trkpt lat="45.6036517" lon="11.4663743"><ele>58.0</ele><time>2026-04-19T08:35:43.983Z</time></trkpt><trkpt lat="45.6037521" lon="11.4663028"><ele>58.0</ele><time>2026-04-19T08:35:45.984Z</time></trkpt><trkpt lat="45.6038525" lon="11.4662309"><ele>58.4</ele><time>2026-04-19T08:35:47.984Z</time></trkpt><trkpt lat="45.6039478" lon="11.4661381"><ele>58.8</ele><time>2026-04-19T08:35:49.984Z</time></trkpt><trkpt lat="45.6040479" lon="11.4660545"><ele>59.2</ele><time>2026-04-19T08:35:51.982Z</time></trkpt><trkpt lat="45.604162" lon="11.465976"><ele>59.6</ele><time>2026-04-19T08:35:53.983Z</time></trkpt><trkpt lat="45.6042374" lon="11.4659512"><ele>60.0</ele><time>2026-04-19T08:35:54.984Z</time></trkpt><trkpt lat="45.6043091" lon="11.4658654"><ele>60.0</ele><time>2026-04-19T08:35:56.983Z</time></trkpt><trkpt lat="45.604412" lon="11.4657941"><ele>60.0</ele><time>2026-04-19T08:35:58.984Z</time></trkpt><trkpt lat="45.6045051" lon="11.4657107"><ele>60.0</ele><time>2026-04-19T08:36:00.982Z</time></trkpt><trkpt lat="45.6046252" lon="11.4656812"><ele>60.0</ele><time>2026-04-19T08:36:02.982Z</time></trkpt><trkpt lat="45.6046901" lon="11.4655572"><ele>60.0</ele><time>2026-04-19T08:36:04.984Z</time></trkpt><trkpt lat="45.604769" lon="11.4654383"><ele>60.0</ele><time>2026-04-19T08:36:06.984Z</time></trkpt><trkpt lat="45.6048696" lon="11.4653761"><ele>60.0</ele><time>2026-04-19T08:36:08.984Z</time></trkpt><trkpt lat="45.604948" lon="11.4653356"><ele>60.0</ele><time>2026-04-19T08:36:10.983Z</time></trkpt><trkpt lat="45.6050199" lon="11.4652979"><ele>60.0</ele><time>2026-04-19T08:36:13.983Z</time></trkpt><trkpt lat="45.6050965" lon="11.4652451"><ele>60.0</ele><time>2026-04-19T08:36:15.983Z</time></trkpt><trkpt lat="45.6051642" lon="11.4651986"><ele>60.0</ele><time>2026-04-19T08:36:17.982Z</time></trkpt><trkpt lat="45.6052331" lon="11.4651495"><ele>60.0</ele><time>2026-04-19T08:36:19.983Z</time></trkpt><trkpt lat="45.6052937" lon="11.4651163"><ele>60.0</ele><time>2026-04-19T08:36:21.983Z</time></trkpt><trkpt lat="45.6053624" lon="11.4650631"><ele>60.0</ele><time>2026-04-19T08:36:23.983Z</time></trkpt><trkpt lat="45.6054279" lon="11.4649888"><ele>60.0</ele><time>2026-04-19T08:36:25.982Z</time></trkpt><trkpt lat="45.6055138" lon="11.4649285"><ele>59.8</ele><time>2026-04-19T08:36:27.983Z</time></trkpt><trkpt lat="45.6055918" lon="11.464893"><ele>59.6</ele><time>2026-04-19T08:36:29.982Z</time></trkpt><trkpt lat="45.6056999" lon="11.4648209"><ele>59.400000000000006</ele><time>2026-04-19T08:36:31.983Z</time></trkpt><trkpt lat="45.6057796" lon="11.464754"><ele>59.2</ele><time>2026-04-19T08:36:33.982Z</time></trkpt><trkpt lat="45.6058749" lon="11.4646761"><ele>59.0</ele><time>2026-04-19T08:36:35.983Z</time></trkpt><trkpt lat="45.6059629" lon="11.4646132"><ele>58.800000000000004</ele><time>2026-04-19T08:36:37.982Z</time></trkpt><trkpt lat="45.6060597" lon="11.4645436"><ele>58.60000000000001</ele><time>2026-04-19T08:36:39.982Z</time></trkpt><trkpt lat="45.606147" lon="11.4644827"><ele>58.4</ele><time>2026-04-19T08:36:41.983Z</time></trkpt><trkpt lat="45.6062344" lon="11.464412"><ele>58.2</ele><time>2026-04-19T08:36:43.982Z</time></trkpt><trkpt lat="45.6063323" lon="11.4643105"><ele>58.0</ele><time>2026-04-19T08:36:45.983Z</time></trkpt><trkpt lat="45.6064252" lon="11.4642203"><ele>58.0</ele><time>2026-04-19T08:36:47.983Z</time></trkpt><trkpt lat="45.6065166" lon="11.4641474"><ele>58.0</ele><time>2026-04-19T08:36:49.983Z</time></trkpt><trkpt lat="45.6066051" lon="11.4640697"><ele>58.0</ele><time>2026-04-19T08:36:51.982Z</time></trkpt><trkpt lat="45.6066954" lon="11.4639846"><ele>58.0</ele><time>2026-04-19T08:36:53.983Z</time></trkpt><trkpt lat="45.6067883" lon="11.4639043"><ele>58.0</ele><time>2026-04-19T08:36:55.982Z</time></trkpt><trkpt lat="45.6068892" lon="11.4638312"><ele>57.8</ele><time>2026-04-19T08:36:57.981Z</time></trkpt><trkpt lat="45.6069844" lon="11.4637589"><ele>57.599999999999994</ele><time>2026-04-19T08:36:59.983Z</time></trkpt><trkpt lat="45.6070782" lon="11.4636853"><ele>57.400000000000006</ele><time>2026-04-19T08:37:01.982Z</time></trkpt><trkpt lat="45.6071795" lon="11.4636215"><ele>57.2</ele><time>2026-04-19T08:37:03.981Z</time></trkpt><trkpt lat="45.607282" lon="11.463544"><ele>57.0</ele><time>2026-04-19T08:37:05.983Z</time></trkpt><trkpt lat="45.6073461" lon="11.4634873"><ele>57.333333333333336</ele><time>2026-04-19T08:37:06.983Z</time></trkpt><trkpt lat="45.6074078" lon="11.4634678"><ele>57.66666666666667</ele><time>2026-04-19T08:37:07.983Z</time></trkpt><trkpt lat="45.6074631" lon="11.4634089"><ele>58.0</ele><time>2026-04-19T08:37:08.982Z</time></trkpt><trkpt lat="45.6075565" lon="11.4633489"><ele>58.333333333333336</ele><time>2026-04-19T08:37:10.982Z</time></trkpt><trkpt lat="45.6076563" lon="11.4632666"><ele>58.66666666666667</ele><time>2026-04-19T08:37:12.982Z</time></trkpt><trkpt lat="45.6077356" lon="11.4631921"><ele>59.0</ele><time>2026-04-19T08:37:14.982Z</time></trkpt><trkpt lat="45.6078352" lon="11.4631196"><ele>59.0</ele><time>2026-04-19T08:37:16.982Z</time></trkpt><trkpt lat="45.6079313" lon="11.4630547"><ele>59.0</ele><time>2026-04-19T08:37:18.982Z</time></trkpt><trkpt lat="45.608031" lon="11.4629867"><ele>59.0</ele><time>2026-04-19T08:37:20.983Z</time></trkpt><trkpt lat="45.6081396" lon="11.4628892"><ele>59.0</ele><time>2026-04-19T08:37:22.983Z</time></trkpt><trkpt lat="45.6082488" lon="11.4628171"><ele>59.6</ele><time>2026-04-19T08:37:24.982Z</time></trkpt><trkpt lat="45.608306" lon="11.462772"><ele>60.2</ele><time>2026-04-19T08:37:25.984Z</time></trkpt><trkpt lat="45.6083966" lon="11.4627238"><ele>60.800000000000004</ele><time>2026-04-19T08:37:27.983Z</time></trkpt><trkpt lat="45.6084999" lon="11.4626374"><ele>61.400000000000006</ele><time>2026-04-19T08:37:29.984Z</time></trkpt><trkpt lat="45.6085381" lon="11.462552"><ele>62.0</ele><time>2026-04-19T08:37:31.983Z</time></trkpt><trkpt lat="45.6086308" lon="11.4624748"><ele>62.0</ele><time>2026-04-19T08:37:33.983Z</time></trkpt><trkpt lat="45.6086903" lon="11.4623768"><ele>62.0</ele><time>2026-04-19T08:37:35.984Z</time></trkpt><trkpt lat="45.6087985" lon="11.4623526"><ele>62.0</ele><time>2026-04-19T08:37:37.984Z</time></trkpt><trkpt lat="45.6088913" lon="11.4622709"><ele>62.0</ele><time>2026-04-19T08:37:39.982Z</time></trkpt><trkpt lat="45.608992" lon="11.4621988"><ele>62.0</ele><time>2026-04-19T08:37:41.983Z</time></trkpt><trkpt lat="45.6090648" lon="11.4621109"><ele>62.2</ele><time>2026-04-19T08:37:43.984Z</time></trkpt><trkpt lat="45.6091609" lon="11.4620263"><ele>62.400000000000006</ele><time>2026-04-19T08:37:45.983Z</time></trkpt><trkpt lat="45.6092329" lon="11.4620244"><ele>62.599999999999994</ele><time>2026-04-19T08:37:46.985Z</time></trkpt><trkpt lat="45.6093172" lon="11.4619628"><ele>62.8</ele><time>2026-04-19T08:37:48.983Z</time></trkpt><trkpt lat="45.6094125" lon="11.4618962"><ele>63.0</ele><time>2026-04-19T08:37:50.984Z</time></trkpt><trkpt lat="45.6094793" lon="11.4618152"><ele>63.599999999999994</ele><time>2026-04-19T08:37:52.984Z</time></trkpt><trkpt lat="45.6095527" lon="11.4617628"><ele>64.19999999999999</ele><time>2026-04-19T08:37:54.984Z</time></trkpt><trkpt lat="45.6096234" lon="11.4617289"><ele>64.8</ele><time>2026-04-19T08:37:55.983Z</time></trkpt><trkpt lat="45.6096984" lon="11.4616552"><ele>65.39999999999999</ele><time>2026-04-19T08:37:57.984Z</time></trkpt><trkpt lat="45.6097978" lon="11.4615864"><ele>66.0</ele><time>2026-04-19T08:37:59.984Z</time></trkpt><trkpt lat="45.6098873" lon="11.4615355"><ele>66.0</ele><time>2026-04-19T08:38:00.981Z</time></trkpt><trkpt lat="45.609945" lon="11.4614995"><ele>66.0</ele><time>2026-04-19T08:38:01.983Z</time></trkpt><trkpt lat="45.6100114" lon="11.4614137"><ele>66.0</ele><time>2026-04-19T08:38:03.983Z</time></trkpt><trkpt lat="45.6100741" lon="11.4613555"><ele>66.0</ele><time>2026-04-19T08:38:04.983Z</time></trkpt><trkpt lat="45.6101693" lon="11.4613176"><ele>66.0</ele><time>2026-04-19T08:38:06.984Z</time></trkpt><trkpt lat="45.610247" lon="11.4613226"><ele>66.0</ele><time>2026-04-19T08:38:08.984Z</time></trkpt><trkpt lat="45.6103047" lon="11.4612832"><ele>65.39999999999999</ele><time>2026-04-19T08:38:09.984Z</time></trkpt><trkpt lat="45.6104014" lon="11.4612177"><ele>64.8</ele><time>2026-04-19T08:38:11.984Z</time></trkpt><trkpt lat="45.6104925" lon="11.4611047"><ele>64.19999999999999</ele><time>2026-04-19T08:38:13.985Z</time></trkpt><trkpt lat="45.6105899" lon="11.4610205"><ele>63.599999999999994</ele><time>2026-04-19T08:38:15.985Z</time></trkpt><trkpt lat="45.6106512" lon="11.4609691"><ele>63.0</ele><time>2026-04-19T08:38:17.984Z</time></trkpt><trkpt lat="45.6107318" lon="11.4609004"><ele>63.0</ele><time>2026-04-19T08:38:19.984Z</time></trkpt><trkpt lat="45.610838" lon="11.460849"><ele>63.0</ele><time>2026-04-19T08:38:21.983Z</time></trkpt><trkpt lat="45.610929" lon="11.4607866"><ele>63.0</ele><time>2026-04-19T08:38:23.983Z</time></trkpt><trkpt lat="45.6110163" lon="11.4607046"><ele>63.0</ele><time>2026-04-19T08:38:25.984Z</time></trkpt><trkpt lat="45.6111108" lon="11.4606563"><ele>63.0</ele><time>2026-04-19T08:38:27.984Z</time></trkpt><trkpt lat="45.6112094" lon="11.4605692"><ele>63.4</ele><time>2026-04-19T08:38:29.984Z</time></trkpt><trkpt lat="45.6113008" lon="11.460509"><ele>63.8</ele><time>2026-04-19T08:38:31.983Z</time></trkpt><trkpt lat="45.6113566" lon="11.4604342"><ele>64.2</ele><time>2026-04-19T08:38:32.984Z</time></trkpt><trkpt lat="45.6114659" lon="11.460372"><ele>64.6</ele><time>2026-04-19T08:38:34.983Z</time></trkpt><trkpt lat="45.6115564" lon="11.4602881"><ele>65.0</ele><time>2026-04-19T08:38:36.982Z</time></trkpt><trkpt lat="45.6116457" lon="11.4602125"><ele>65.0</ele><time>2026-04-19T08:38:38.984Z</time></trkpt><trkpt lat="45.6117334" lon="11.4601699"><ele>65.0</ele><time>2026-04-19T08:38:40.984Z</time></trkpt><trkpt lat="45.6118327" lon="11.4600924"><ele>65.0</ele><time>2026-04-19T08:38:42.984Z</time></trkpt><trkpt lat="45.611901" lon="11.4600399"><ele>65.0</ele><time>2026-04-19T08:38:44.984Z</time></trkpt><trkpt lat="45.6120041" lon="11.460018"><ele>65.0</ele><time>2026-04-19T08:38:46.984Z</time></trkpt><trkpt lat="45.6121077" lon="11.460018"><ele>65.4</ele><time>2026-04-19T08:38:48.982Z</time></trkpt><trkpt lat="45.6121994" lon="11.4599943"><ele>65.8</ele><time>2026-04-19T08:38:50.983Z</time></trkpt><trkpt lat="45.6122939" lon="11.4599873"><ele>66.2</ele><time>2026-04-19T08:38:52.984Z</time></trkpt><trkpt lat="45.6123839" lon="11.4599545"><ele>66.6</ele><time>2026-04-19T08:38:54.983Z</time></trkpt><trkpt lat="45.6124554" lon="11.459881"><ele>67.0</ele><time>2026-04-19T08:38:56.984Z</time></trkpt><trkpt lat="45.6125215" lon="11.4598102"><ele>67.0</ele><time>2026-04-19T08:38:58.984Z</time></trkpt><trkpt lat="45.6125853" lon="11.4597461"><ele>67.0</ele><time>2026-04-19T08:39:00.984Z</time></trkpt><trkpt lat="45.6126317" lon="11.4596772"><ele>67.0</ele><time>2026-04-19T08:39:02.982Z</time></trkpt><trkpt lat="45.6126773" lon="11.4596121"><ele>67.0</ele><time>2026-04-19T08:39:04.983Z</time></trkpt><trkpt lat="45.6127196" lon="11.459721"><ele>67.0</ele><time>2026-04-19T08:39:11.983Z</time></trkpt><trkpt lat="45.6127296" lon="11.4598436"><ele>67.0</ele><time>2026-04-19T08:39:14.983Z</time></trkpt><trkpt lat="45.6127317" lon="11.459963"><ele>67.0</ele><time>2026-04-19T08:39:17.984Z</time></trkpt><trkpt lat="45.6127723" lon="11.4600385"><ele>67.0</ele><time>2026-04-19T08:39:19.984Z</time></trkpt><trkpt lat="45.6128699" lon="11.4601402"><ele>67.0</ele><time>2026-04-19T08:39:21.983Z</time></trkpt><trkpt lat="45.6129292" lon="11.4602008"><ele>67.0</ele><time>2026-04-19T08:39:22.984Z</time></trkpt><trkpt lat="45.6129851" lon="11.4602652"><ele>67.0</ele><time>2026-04-19T08:39:23.983Z</time></trkpt><trkpt lat="45.6130316" lon="11.4603363"><ele>67.0</ele><time>2026-04-19T08:39:24.984Z</time></trkpt><trkpt lat="45.6130738" lon="11.4604052"><ele>66.66666666666666</ele><time>2026-04-19T08:39:25.984Z</time></trkpt><trkpt lat="45.613142" lon="11.4605194"><ele>66.33333333333333</ele><time>2026-04-19T08:39:27.982Z</time></trkpt><trkpt lat="45.6131815" lon="11.4606236"><ele>66.0</ele><time>2026-04-19T08:39:29.984Z</time></trkpt><trkpt lat="45.6132358" lon="11.4607059"><ele>65.66666666666667</ele><time>2026-04-19T08:39:31.982Z</time></trkpt><trkpt lat="45.6133173" lon="11.460697"><ele>65.33333333333334</ele><time>2026-04-19T08:39:33.984Z</time></trkpt><trkpt lat="45.613397" lon="11.4606164"><ele>65.0</ele><time>2026-04-19T08:39:35.983Z</time></trkpt><trkpt lat="45.61348" lon="11.46048"><ele>65.0</ele><time>2026-04-19T08:39:37.983Z</time></trkpt><trkpt lat="45.6135177" lon="11.4604072"><ele>65.0</ele><time>2026-04-19T08:39:38.984Z</time></trkpt><trkpt lat="45.6135556" lon="11.4603348"><ele>65.0</ele><time>2026-04-19T08:39:39.984Z</time></trkpt><trkpt lat="45.6136311" lon="11.4602146"><ele>65.0</ele><time>2026-04-19T08:39:41.984Z</time></trkpt><trkpt lat="45.6137059" lon="11.4600988"><ele>65.0</ele><time>2026-04-19T08:39:43.983Z</time></trkpt><trkpt lat="45.6137746" lon="11.4599974"><ele>65.0</ele><time>2026-04-19T08:39:45.983Z</time></trkpt><trkpt lat="45.6138333" lon="11.459897"><ele>65.0</ele><time>2026-04-19T08:39:47.983Z</time></trkpt><trkpt lat="45.6138815" lon="11.4597956"><ele>65.0</ele><time>2026-04-19T08:39:49.984Z</time></trkpt><trkpt lat="45.6139413" lon="11.4596893"><ele>65.0</ele><time>2026-04-19T08:39:51.983Z</time></trkpt><trkpt lat="45.6140296" lon="11.4596002"><ele>65.0</ele><time>2026-04-19T08:39:53.984Z</time></trkpt><trkpt lat="45.614128" lon="11.4595305"><ele>65.0</ele><time>2026-04-19T08:39:55.983Z</time></trkpt><trkpt lat="45.6142225" lon="11.4594666"><ele>65.4</ele><time>2026-04-19T08:39:57.983Z</time></trkpt><trkpt lat="45.6143095" lon="11.4593822"><ele>65.8</ele><time>2026-04-19T08:39:59.984Z</time></trkpt><trkpt lat="45.6143947" lon="11.4592967"><ele>66.2</ele><time>2026-04-19T08:40:01.983Z</time></trkpt><trkpt lat="45.6145073" lon="11.4592203"><ele>66.6</ele><time>2026-04-19T08:40:04.983Z</time></trkpt><trkpt lat="45.6145694" lon="11.4591619"><ele>67.0</ele><time>2026-04-19T08:40:05.984Z</time></trkpt><trkpt lat="45.6146247" lon="11.4591105"><ele>67.0</ele><time>2026-04-19T08:40:06.983Z</time></trkpt><trkpt lat="45.6146918" lon="11.4590564"><ele>67.0</ele><time>2026-04-19T08:40:07.984Z</time></trkpt><trkpt lat="45.614791" lon="11.4589895"><ele>67.0</ele><time>2026-04-19T08:40:09.984Z</time></trkpt><trkpt lat="45.6148999" lon="11.4589457"><ele>67.0</ele><time>2026-04-19T08:40:11.984Z</time></trkpt><trkpt lat="45.6150034" lon="11.458919"><ele>67.0</ele><time>2026-04-19T08:40:13.983Z</time></trkpt><trkpt lat="45.6150942" lon="11.4588859"><ele>67.0</ele><time>2026-04-19T08:40:15.984Z</time></trkpt><trkpt lat="45.615188" lon="11.458831"><ele>67.0</ele><time>2026-04-19T08:40:17.984Z</time></trkpt><trkpt lat="45.6152812" lon="11.4587814"><ele>67.0</ele><time>2026-04-19T08:40:19.984Z</time></trkpt><trkpt lat="45.6153683" lon="11.4587293"><ele>67.0</ele><time>2026-04-19T08:40:21.983Z</time></trkpt><trkpt lat="45.6154527" lon="11.4586731"><ele>67.0</ele><time>2026-04-19T08:40:23.983Z</time></trkpt><trkpt lat="45.615551" lon="11.4586101"><ele>67.2</ele><time>2026-04-19T08:40:25.983Z</time></trkpt><trkpt lat="45.6156477" lon="11.4585566"><ele>67.4</ele><time>2026-04-19T08:40:27.982Z</time></trkpt><trkpt lat="45.6157374" lon="11.4585087"><ele>67.6</ele><time>2026-04-19T08:40:29.983Z</time></trkpt><trkpt lat="45.615824" lon="11.4584595"><ele>67.8</ele><time>2026-04-19T08:40:31.982Z</time></trkpt><trkpt lat="45.6159212" lon="11.4584189"><ele>68.0</ele><time>2026-04-19T08:40:33.983Z</time></trkpt><trkpt lat="45.6160266" lon="11.458385"><ele>68.0</ele><time>2026-04-19T08:40:35.984Z</time></trkpt><trkpt lat="45.6161203" lon="11.4583525"><ele>68.0</ele><time>2026-04-19T08:40:37.984Z</time></trkpt><trkpt lat="45.6162139" lon="11.4583302"><ele>68.0</ele><time>2026-04-19T08:40:39.983Z</time></trkpt><trkpt lat="45.6163064" lon="11.4583015"><ele>68.0</ele><time>2026-04-19T08:40:41.983Z</time></trkpt><trkpt lat="45.6164062" lon="11.4582601"><ele>68.0</ele><time>2026-04-19T08:40:43.983Z</time></trkpt><trkpt lat="45.6165128" lon="11.4582202"><ele>68.0</ele><time>2026-04-19T08:40:45.983Z</time></trkpt><trkpt lat="45.6166155" lon="11.4581872"><ele>68.0</ele><time>2026-04-19T08:40:47.983Z</time></trkpt><trkpt lat="45.6167143" lon="11.4581535"><ele>68.0</ele><time>2026-04-19T08:40:49.983Z</time></trkpt><trkpt lat="45.6168066" lon="11.4581026"><ele>68.0</ele><time>2026-04-19T08:40:51.983Z</time></trkpt><trkpt lat="45.6169004" lon="11.4580472"><ele>68.0</ele><time>2026-04-19T08:40:53.984Z</time></trkpt><trkpt lat="45.6169964" lon="11.4579991"><ele>68.2</ele><time>2026-04-19T08:40:55.983Z</time></trkpt><trkpt lat="45.6170987" lon="11.4579506"><ele>68.4</ele><time>2026-04-19T08:40:57.983Z</time></trkpt><trkpt lat="45.6171924" lon="11.4579085"><ele>68.60000000000001</ele><time>2026-04-19T08:40:59.983Z</time></trkpt><trkpt lat="45.6172783" lon="11.4578661"><ele>68.8</ele><time>2026-04-19T08:41:01.984Z</time></trkpt><trkpt lat="45.6173801" lon="11.457817"><ele>69.0</ele><time>2026-04-19T08:41:03.983Z</time></trkpt><trkpt lat="45.617492" lon="11.4577815"><ele>69.0</ele><time>2026-04-19T08:41:05.983Z</time></trkpt><trkpt lat="45.6175752" lon="11.4577607"><ele>69.0</ele><time>2026-04-19T08:41:07.984Z</time></trkpt><trkpt lat="45.6176706" lon="11.4577199"><ele>69.0</ele><time>2026-04-19T08:41:09.983Z</time></trkpt><trkpt lat="45.6177695" lon="11.457663"><ele>69.0</ele><time>2026-04-19T08:41:11.984Z</time></trkpt><trkpt lat="45.6178624" lon="11.4575994"><ele>69.0</ele><time>2026-04-19T08:41:13.984Z</time></trkpt><trkpt lat="45.6179458" lon="11.4575466"><ele>68.75</ele><time>2026-04-19T08:41:15.983Z</time></trkpt><trkpt lat="45.6180434" lon="11.4575121"><ele>68.5</ele><time>2026-04-19T08:41:17.984Z</time></trkpt><trkpt lat="45.6181259" lon="11.457489"><ele>68.25</ele><time>2026-04-19T08:41:19.984Z</time></trkpt><trkpt lat="45.6181995" lon="11.457491"><ele>68.0</ele><time>2026-04-19T08:41:25.012Z</time></trkpt><trkpt lat="45.6183852" lon="11.457591"><ele>68.0</ele><time>2026-04-19T08:41:25.983Z</time></trkpt><trkpt lat="45.6184721" lon="11.4577143"><ele>68.0</ele><time>2026-04-19T08:41:27.984Z</time></trkpt><trkpt lat="45.6185501" lon="11.4578232"><ele>68.0</ele><time>2026-04-19T08:41:29.984Z</time></trkpt><trkpt lat="45.6186157" lon="11.4579301"><ele>68.0</ele><time>2026-04-19T08:41:31.983Z</time></trkpt><trkpt lat="45.6186755" lon="11.458033"><ele>68.0</ele><time>2026-04-19T08:41:33.984Z</time></trkpt><trkpt lat="45.6187405" lon="11.4581018"><ele>68.2</ele><time>2026-04-19T08:41:35.983Z</time></trkpt><trkpt lat="45.6188305" lon="11.4581574"><ele>68.4</ele><time>2026-04-19T08:41:37.984Z</time></trkpt><trkpt lat="45.6189211" lon="11.4581274"><ele>68.60000000000001</ele><time>2026-04-19T08:41:39.983Z</time></trkpt><trkpt lat="45.6189864" lon="11.4580564"><ele>68.8</ele><time>2026-04-19T08:41:41.983Z</time></trkpt><trkpt lat="45.6190631" lon="11.4579605"><ele>69.0</ele><time>2026-04-19T08:41:43.984Z</time></trkpt><trkpt lat="45.6191595" lon="11.4578612"><ele>69.0</ele><time>2026-04-19T08:41:45.984Z</time></trkpt><trkpt lat="45.6192454" lon="11.4577802"><ele>69.0</ele><time>2026-04-19T08:41:47.984Z</time></trkpt><trkpt lat="45.6193392" lon="11.4576818"><ele>69.0</ele><time>2026-04-19T08:41:49.984Z</time></trkpt><trkpt lat="45.6193923" lon="11.4576192"><ele>69.0</ele><time>2026-04-19T08:41:50.984Z</time></trkpt><trkpt lat="45.6194373" lon="11.4575505"><ele>69.0</ele><time>2026-04-19T08:41:51.983Z</time></trkpt><trkpt lat="45.6194819" lon="11.45748"><ele>69.0</ele><time>2026-04-19T08:41:52.983Z</time></trkpt><trkpt lat="45.6195265" lon="11.4574119"><ele>68.25</ele><time>2026-04-19T08:41:53.983Z</time></trkpt><trkpt lat="45.6196133" lon="11.4572892"><ele>67.5</ele><time>2026-04-19T08:41:55.982Z</time></trkpt><trkpt lat="45.6197008" lon="11.4571742"><ele>66.75</ele><time>2026-04-19T08:41:57.984Z</time></trkpt><trkpt lat="45.6197777" lon="11.4570638"><ele>66.0</ele><time>2026-04-19T08:41:59.983Z</time></trkpt><trkpt lat="45.6198488" lon="11.4569576"><ele>65.8</ele><time>2026-04-19T08:42:01.984Z</time></trkpt><trkpt lat="45.6199201" lon="11.4568474"><ele>65.6</ele><time>2026-04-19T08:42:03.984Z</time></trkpt><trkpt lat="45.6199932" lon="11.4567373"><ele>65.4</ele><time>2026-04-19T08:42:05.983Z</time></trkpt><trkpt lat="45.620069" lon="11.4566542"><ele>65.2</ele><time>2026-04-19T08:42:07.983Z</time></trkpt><trkpt lat="45.6201565" lon="11.4565655"><ele>65.0</ele><time>2026-04-19T08:42:09.983Z</time></trkpt><trkpt lat="45.6202469" lon="11.4564536"><ele>65.0</ele><time>2026-04-19T08:42:11.984Z</time></trkpt><trkpt lat="45.6203266" lon="11.4563368"><ele>65.0</ele><time>2026-04-19T08:42:13.983Z</time></trkpt><trkpt lat="45.6204038" lon="11.4562138"><ele>65.0</ele><time>2026-04-19T08:42:15.984Z</time></trkpt><trkpt lat="45.620481" lon="11.456096"><ele>65.0</ele><time>2026-04-19T08:42:17.984Z</time></trkpt><trkpt lat="45.6205654" lon="11.4559825"><ele>65.0</ele><time>2026-04-19T08:42:19.983Z</time></trkpt><trkpt lat="45.6206449" lon="11.455869"><ele>65.0</ele><time>2026-04-19T08:42:21.984Z</time></trkpt><trkpt lat="45.6207199" lon="11.4557556"><ele>65.0</ele><time>2026-04-19T08:42:23.983Z</time></trkpt><trkpt lat="45.6207786" lon="11.4556253"><ele>65.0</ele><time>2026-04-19T08:42:25.984Z</time></trkpt><trkpt lat="45.6208366" lon="11.4555105"><ele>65.0</ele><time>2026-04-19T08:42:27.983Z</time></trkpt><trkpt lat="45.6209239" lon="11.4554144"><ele>65.6</ele><time>2026-04-19T08:42:29.984Z</time></trkpt><trkpt lat="45.6209858" lon="11.4552989"><ele>66.2</ele><time>2026-04-19T08:42:31.983Z</time></trkpt><trkpt lat="45.6210156" lon="11.4551649"><ele>66.8</ele><time>2026-04-19T08:42:33.983Z</time></trkpt><trkpt lat="45.6210156" lon="11.4550042"><ele>67.4</ele><time>2026-04-19T08:42:35.983Z</time></trkpt><trkpt lat="45.6209974" lon="11.4548315"><ele>68.0</ele><time>2026-04-19T08:42:37.983Z</time></trkpt><trkpt lat="45.6209752" lon="11.4546676"><ele>68.25</ele><time>2026-04-19T08:42:39.983Z</time></trkpt><trkpt lat="45.6209572" lon="11.4545036"><ele>68.5</ele><time>2026-04-19T08:42:41.984Z</time></trkpt><trkpt lat="45.620955" lon="11.4543535"><ele>68.75</ele><time>2026-04-19T08:42:43.982Z</time></trkpt><trkpt lat="45.6209645" lon="11.4541969"><ele>69.0</ele><time>2026-04-19T08:42:45.984Z</time></trkpt><trkpt lat="45.6209691" lon="11.4540209"><ele>69.0</ele><time>2026-04-19T08:42:47.984Z</time></trkpt><trkpt lat="45.6209732" lon="11.4538499"><ele>69.0</ele><time>2026-04-19T08:42:49.984Z</time></trkpt><trkpt lat="45.6209933" lon="11.4536916"><ele>69.0</ele><time>2026-04-19T08:42:51.984Z</time></trkpt><trkpt lat="45.6210302" lon="11.4535437"><ele>69.0</ele><time>2026-04-19T08:42:53.983Z</time></trkpt><trkpt lat="45.6210951" lon="11.4533958"><ele>68.75</ele><time>2026-04-19T08:42:55.983Z</time></trkpt><trkpt lat="45.621164" lon="11.4532615"><ele>68.5</ele><time>2026-04-19T08:42:57.983Z</time></trkpt><trkpt lat="45.6212359" lon="11.4531363"><ele>68.25</ele><time>2026-04-19T08:42:59.983Z</time></trkpt><trkpt lat="45.6213025" lon="11.453001"><ele>68.0</ele><time>2026-04-19T08:43:01.983Z</time></trkpt><trkpt lat="45.6213745" lon="11.4528563"><ele>68.0</ele><time>2026-04-19T08:43:03.982Z</time></trkpt><trkpt lat="45.6214198" lon="11.4527516"><ele>68.0</ele><time>2026-04-19T08:43:04.984Z</time></trkpt><trkpt lat="45.6214581" lon="11.4526503"><ele>68.0</ele><time>2026-04-19T08:43:05.984Z</time></trkpt><trkpt lat="45.6215169" lon="11.4525427"><ele>68.0</ele><time>2026-04-19T08:43:07.984Z</time></trkpt><trkpt lat="45.6215907" lon="11.4524154"><ele>68.0</ele><time>2026-04-19T08:43:09.983Z</time></trkpt><trkpt lat="45.6216588" lon="11.4522819"><ele>68.0</ele><time>2026-04-19T08:43:11.984Z</time></trkpt><trkpt lat="45.6217365" lon="11.4521658"><ele>68.0</ele><time>2026-04-19T08:43:13.983Z</time></trkpt><trkpt lat="45.6217678" lon="11.4520676"><ele>68.0</ele><time>2026-04-19T08:43:14.984Z</time></trkpt><trkpt lat="45.621796" lon="11.4519273"><ele>68.0</ele><time>2026-04-19T08:43:16.983Z</time></trkpt><trkpt lat="45.6218371" lon="11.4518037"><ele>68.0</ele><time>2026-04-19T08:43:18.983Z</time></trkpt><trkpt lat="45.6218813" lon="11.4517358"><ele>68.4</ele><time>2026-04-19T08:43:19.983Z</time></trkpt><trkpt lat="45.6219272" lon="11.4515884"><ele>68.8</ele><time>2026-04-19T08:43:21.984Z</time></trkpt><trkpt lat="45.6219275" lon="11.4514979"><ele>69.2</ele><time>2026-04-19T08:43:22.983Z</time></trkpt><trkpt lat="45.6219116" lon="11.4513422"><ele>69.6</ele><time>2026-04-19T08:43:24.984Z</time></trkpt><trkpt lat="45.6219156" lon="11.4511912"><ele>70.0</ele><time>2026-04-19T08:43:26.984Z</time></trkpt><trkpt lat="45.6219294" lon="11.4510494"><ele>70.0</ele><time>2026-04-19T08:43:28.983Z</time></trkpt><trkpt lat="45.6219583" lon="11.4508964"><ele>70.0</ele><time>2026-04-19T08:43:30.983Z</time></trkpt><trkpt lat="45.6220149" lon="11.450755"><ele>70.0</ele><time>2026-04-19T08:43:32.983Z</time></trkpt><trkpt lat="45.6220907" lon="11.4506389"><ele>70.0</ele><time>2026-04-19T08:43:34.983Z</time></trkpt><trkpt lat="45.6221892" lon="11.4505341"><ele>70.16666666666666</ele><time>2026-04-19T08:43:36.984Z</time></trkpt><trkpt lat="45.6222483" lon="11.4504899"><ele>70.33333333333333</ele><time>2026-04-19T08:43:37.984Z</time></trkpt><trkpt lat="45.6223067" lon="11.4504499"><ele>70.5</ele><time>2026-04-19T08:43:38.983Z</time></trkpt><trkpt lat="45.6223726" lon="11.4504218"><ele>70.66666666666667</ele><time>2026-04-19T08:43:39.983Z</time></trkpt><trkpt lat="45.6224517" lon="11.4503662"><ele>70.83333333333334</ele><time>2026-04-19T08:43:40.983Z</time></trkpt><trkpt lat="45.6225282" lon="11.4503148"><ele>71.0</ele><time>2026-04-19T08:43:41.984Z</time></trkpt><trkpt lat="45.6226008" lon="11.4502716"><ele>71.0</ele><time>2026-04-19T08:43:42.984Z</time></trkpt><trkpt lat="45.6226623" lon="11.4502147"><ele>71.0</ele><time>2026-04-19T08:43:43.984Z</time></trkpt><trkpt lat="45.6227183" lon="11.4501665"><ele>71.0</ele><time>2026-04-19T08:43:44.984Z</time></trkpt><trkpt lat="45.6228261" lon="11.4500769"><ele>71.0</ele><time>2026-04-19T08:43:46.984Z</time></trkpt><trkpt lat="45.6228851" lon="11.4500365"><ele>71.0</ele><time>2026-04-19T08:43:47.984Z</time></trkpt><trkpt lat="45.6229943" lon="11.4499615"><ele>71.0</ele><time>2026-04-19T08:43:49.983Z</time></trkpt><trkpt lat="45.623049" lon="11.4499087"><ele>71.0</ele><time>2026-04-19T08:43:50.983Z</time></trkpt><trkpt lat="45.623107" lon="11.4498599"><ele>71.0</ele><time>2026-04-19T08:43:51.983Z</time></trkpt><trkpt lat="45.6231747" lon="11.4498411"><ele>71.0</ele><time>2026-04-19T08:43:52.984Z</time></trkpt><trkpt lat="45.6232746" lon="11.4497549"><ele>71.0</ele><time>2026-04-19T08:43:54.984Z</time></trkpt><trkpt lat="45.6233471" lon="11.449715"><ele>71.0</ele><time>2026-04-19T08:43:55.983Z</time></trkpt><trkpt lat="45.6234464" lon="11.4496282"><ele>71.0</ele><time>2026-04-19T08:43:57.983Z</time></trkpt><trkpt lat="45.6235594" lon="11.4495532"><ele>71.0</ele><time>2026-04-19T08:43:59.984Z</time></trkpt><trkpt lat="45.6236178" lon="11.4495171"><ele>71.0</ele><time>2026-04-19T08:44:00.982Z</time></trkpt><trkpt lat="45.6237167" lon="11.4494473"><ele>71.0</ele><time>2026-04-19T08:44:02.984Z</time></trkpt><trkpt lat="45.6237726" lon="11.4493991"><ele>71.0</ele><time>2026-04-19T08:44:03.984Z</time></trkpt><trkpt lat="45.6238773" lon="11.44934"><ele>71.0</ele><time>2026-04-19T08:44:05.983Z</time></trkpt><trkpt lat="45.6239647" lon="11.4492541"><ele>71.0</ele><time>2026-04-19T08:44:07.983Z</time></trkpt><trkpt lat="45.6240625" lon="11.4491658"><ele>71.0</ele><time>2026-04-19T08:44:09.983Z</time></trkpt><trkpt lat="45.6241612" lon="11.4490827"><ele>71.0</ele><time>2026-04-19T08:44:11.983Z</time></trkpt><trkpt lat="45.6242308" lon="11.4490572"><ele>71.0</ele><time>2026-04-19T08:44:12.982Z</time></trkpt><trkpt lat="45.6242939" lon="11.4490288"><ele>71.0</ele><time>2026-04-19T08:44:13.984Z</time></trkpt><trkpt lat="45.6243903" lon="11.4489455"><ele>71.0</ele><time>2026-04-19T08:44:15.984Z</time></trkpt><trkpt lat="45.6244883" lon="11.4488643"><ele>71.0</ele><time>2026-04-19T08:44:17.984Z</time></trkpt><trkpt lat="45.6245496" lon="11.448832"><ele>71.0</ele><time>2026-04-19T08:44:18.984Z</time></trkpt><trkpt lat="45.6246659" lon="11.4487672"><ele>71.0</ele><time>2026-04-19T08:44:20.984Z</time></trkpt><trkpt lat="45.6247585" lon="11.4486639"><ele>71.14285714285714</ele><time>2026-04-19T08:44:22.984Z</time></trkpt><trkpt lat="45.6248195" lon="11.4486112"><ele>71.28571428571428</ele><time>2026-04-19T08:44:23.983Z</time></trkpt><trkpt lat="45.6248889" lon="11.448567"><ele>71.42857142857143</ele><time>2026-04-19T08:44:24.983Z</time></trkpt><trkpt lat="45.6249161" lon="11.4484811"><ele>71.57142857142857</ele><time>2026-04-19T08:44:25.983Z</time></trkpt><trkpt lat="45.6249651" lon="11.4484055"><ele>71.71428571428572</ele><time>2026-04-19T08:44:26.983Z</time></trkpt><trkpt lat="45.6250235" lon="11.4483534"><ele>71.85714285714286</ele><time>2026-04-19T08:44:27.983Z</time></trkpt><trkpt lat="45.6250624" lon="11.448277"><ele>72.0</ele><time>2026-04-19T08:44:28.984Z</time></trkpt><trkpt lat="45.6251037" lon="11.4481907"><ele>72.0</ele><time>2026-04-19T08:44:29.983Z</time></trkpt><trkpt lat="45.6251815" lon="11.4480824"><ele>72.0</ele><time>2026-04-19T08:44:31.983Z</time></trkpt><trkpt lat="45.6252766" lon="11.4479554"><ele>72.0</ele><time>2026-04-19T08:44:33.983Z</time></trkpt><trkpt lat="45.6253268" lon="11.447877"><ele>72.0</ele><time>2026-04-19T08:44:34.984Z</time></trkpt><trkpt lat="45.6254256" lon="11.4477697"><ele>72.0</ele><time>2026-04-19T08:44:36.983Z</time></trkpt><trkpt lat="45.6255188" lon="11.4476533"><ele>72.16666666666667</ele><time>2026-04-19T08:44:38.983Z</time></trkpt><trkpt lat="45.6255773" lon="11.4475867"><ele>72.33333333333333</ele><time>2026-04-19T08:44:39.984Z</time></trkpt><trkpt lat="45.6256279" lon="11.4475171"><ele>72.5</ele><time>2026-04-19T08:44:40.984Z</time></trkpt><trkpt lat="45.6256657" lon="11.4474318"><ele>72.66666666666666</ele><time>2026-04-19T08:44:41.983Z</time></trkpt><trkpt lat="45.625747" lon="11.4473115"><ele>72.83333333333333</ele><time>2026-04-19T08:44:43.983Z</time></trkpt><trkpt lat="45.6258018" lon="11.4472658"><ele>73.0</ele><time>2026-04-19T08:44:44.982Z</time></trkpt><trkpt lat="45.6258575" lon="11.4472041"><ele>73.16666666666666</ele><time>2026-04-19T08:44:45.984Z</time></trkpt><trkpt lat="45.6259368" lon="11.4470922"><ele>73.33333333333333</ele><time>2026-04-19T08:44:47.984Z</time></trkpt><trkpt lat="45.6259915" lon="11.4470275"><ele>73.5</ele><time>2026-04-19T08:44:48.983Z</time></trkpt><trkpt lat="45.6260516" lon="11.446985"><ele>73.66666666666667</ele><time>2026-04-19T08:44:49.984Z</time></trkpt><trkpt lat="45.6261233" lon="11.4469227"><ele>73.83333333333334</ele><time>2026-04-19T08:44:50.983Z</time></trkpt><trkpt lat="45.6261787" lon="11.4468753"><ele>74.0</ele><time>2026-04-19T08:44:51.984Z</time></trkpt><trkpt lat="45.6262325" lon="11.4468243"><ele>74.0</ele><time>2026-04-19T08:44:52.982Z</time></trkpt><trkpt lat="45.626319" lon="11.4467577"><ele>74.0</ele><time>2026-04-19T08:44:54.983Z</time></trkpt><trkpt lat="45.62641" lon="11.446654"><ele>74.0</ele><time>2026-04-19T08:44:56.983Z</time></trkpt><trkpt lat="45.6265108" lon="11.4466412"><ele>74.0</ele><time>2026-04-19T08:44:58.984Z</time></trkpt><trkpt lat="45.6266217" lon="11.4466213"><ele>74.0</ele><time>2026-04-19T08:45:00.984Z</time></trkpt><trkpt lat="45.6267257" lon="11.4465539"><ele>74.0</ele><time>2026-04-19T08:45:02.982Z</time></trkpt><trkpt lat="45.6267811" lon="11.4464924"><ele>74.0</ele><time>2026-04-19T08:45:03.985Z</time></trkpt><trkpt lat="45.6268362" lon="11.4464347"><ele>74.0</ele><time>2026-04-19T08:45:04.983Z</time></trkpt><trkpt lat="45.6268861" lon="11.4463772"><ele>74.0</ele><time>2026-04-19T08:45:05.983Z</time></trkpt><trkpt lat="45.6269852" lon="11.4462594"><ele>74.0</ele><time>2026-04-19T08:45:07.983Z</time></trkpt><trkpt lat="45.6270376" lon="11.4461877"><ele>74.0</ele><time>2026-04-19T08:45:08.984Z</time></trkpt><trkpt lat="45.6270859" lon="11.446119"><ele>74.33333333333334</ele><time>2026-04-19T08:45:09.984Z</time></trkpt><trkpt lat="45.6271286" lon="11.4460418"><ele>74.66666666666667</ele><time>2026-04-19T08:45:10.984Z</time></trkpt><trkpt lat="45.6271704" lon="11.4459675"><ele>75.0</ele><time>2026-04-19T08:45:11.984Z</time></trkpt><trkpt lat="45.6272185" lon="11.4458906"><ele>75.33333333333333</ele><time>2026-04-19T08:45:12.983Z</time></trkpt><trkpt lat="45.6272743" lon="11.445754"><ele>75.66666666666666</ele><time>2026-04-19T08:45:14.984Z</time></trkpt><trkpt lat="45.6273275" lon="11.4456281"><ele>76.0</ele><time>2026-04-19T08:45:16.984Z</time></trkpt><trkpt lat="45.6273622" lon="11.4455148"><ele>76.0</ele><time>2026-04-19T08:45:18.983Z</time></trkpt><trkpt lat="45.6274309" lon="11.4454805"><ele>76.0</ele><time>2026-04-19T08:45:22.983Z</time></trkpt><trkpt lat="45.6275093" lon="11.4455429"><ele>76.0</ele><time>2026-04-19T08:45:25.982Z</time></trkpt><trkpt lat="45.6275718" lon="11.4455305"><ele>76.0</ele><time>2026-04-19T08:45:30.983Z</time></trkpt><trkpt lat="45.6276354" lon="11.4454259"><ele>76.0</ele><time>2026-04-19T08:45:33.983Z</time></trkpt><trkpt lat="45.6276587" lon="11.445337"><ele>76.0</ele><time>2026-04-19T08:45:35.984Z</time></trkpt><trkpt lat="45.6276908" lon="11.4452473"><ele>76.0</ele><time>2026-04-19T08:45:37.984Z</time></trkpt><trkpt lat="45.6277241" lon="11.4451441"><ele>76.0</ele><time>2026-04-19T08:45:39.982Z</time></trkpt><trkpt lat="45.6277536" lon="11.4450327"><ele>76.0</ele><time>2026-04-19T08:45:41.984Z</time></trkpt><trkpt lat="45.6277955" lon="11.4448981"><ele>76.0</ele><time>2026-04-19T08:45:43.984Z</time></trkpt><trkpt lat="45.6278352" lon="11.4448074"><ele>76.0</ele><time>2026-04-19T08:45:44.985Z</time></trkpt><trkpt lat="45.6278706" lon="11.4446809"><ele>76.0</ele><time>2026-04-19T08:45:45.983Z</time></trkpt><trkpt lat="45.6278991" lon="11.4445871"><ele>76.16666666666666</ele><time>2026-04-19T08:45:46.984Z</time></trkpt><trkpt lat="45.6279262" lon="11.4445015"><ele>76.33333333333333</ele><time>2026-04-19T08:45:47.983Z</time></trkpt><trkpt lat="45.6279315" lon="11.4444104"><ele>76.5</ele><time>2026-04-19T08:45:48.984Z</time></trkpt><trkpt lat="45.6279097" lon="11.444297"><ele>76.66666666666667</ele><time>2026-04-19T08:45:49.982Z</time></trkpt><trkpt lat="45.6279102" lon="11.4441886"><ele>76.83333333333334</ele><time>2026-04-19T08:45:50.984Z</time></trkpt><trkpt lat="45.6278852" lon="11.4440515"><ele>77.0</ele><time>2026-04-19T08:45:51.982Z</time></trkpt><trkpt lat="45.6278777" lon="11.4439199"><ele>77.0</ele><time>2026-04-19T08:45:52.983Z</time></trkpt><trkpt lat="45.6279096" lon="11.4438182"><ele>77.0</ele><time>2026-04-19T08:45:53.983Z</time></trkpt><trkpt lat="45.6279309" lon="11.4437167"><ele>77.0</ele><time>2026-04-19T08:45:54.984Z</time></trkpt><trkpt lat="45.627971" lon="11.4436059"><ele>77.0</ele><time>2026-04-19T08:45:55.982Z</time></trkpt><trkpt lat="45.6279975" lon="11.4435123"><ele>77.0</ele><time>2026-04-19T08:45:56.984Z</time></trkpt><trkpt lat="45.6280182" lon="11.4434061"><ele>77.0</ele><time>2026-04-19T08:45:57.983Z</time></trkpt><trkpt lat="45.6280484" lon="11.4432948"><ele>76.85714285714286</ele><time>2026-04-19T08:45:58.984Z</time></trkpt><trkpt lat="45.6280652" lon="11.4431996"><ele>76.71428571428572</ele><time>2026-04-19T08:45:59.983Z</time></trkpt><trkpt lat="45.6281035" lon="11.4430963"><ele>76.57142857142857</ele><time>2026-04-19T08:46:00.984Z</time></trkpt><trkpt lat="45.6281279" lon="11.4430007"><ele>76.42857142857143</ele><time>2026-04-19T08:46:01.983Z</time></trkpt><trkpt lat="45.6281661" lon="11.442923"><ele>76.28571428571429</ele><time>2026-04-19T08:46:02.984Z</time></trkpt><trkpt lat="45.6282058" lon="11.4428509"><ele>76.14285714285714</ele><time>2026-04-19T08:46:03.984Z</time></trkpt><trkpt lat="45.6281994" lon="11.4427414"><ele>76.0</ele><time>2026-04-19T08:46:04.983Z</time></trkpt><trkpt lat="45.6282624" lon="11.4425892"><ele>76.33333333333333</ele><time>2026-04-19T08:46:06.983Z</time></trkpt><trkpt lat="45.6283157" lon="11.4425344"><ele>76.66666666666666</ele><time>2026-04-19T08:46:07.982Z</time></trkpt><trkpt lat="45.6283634" lon="11.4424596"><ele>77.0</ele><time>2026-04-19T08:46:08.984Z</time></trkpt><trkpt lat="45.6284166" lon="11.4424018"><ele>77.33333333333333</ele><time>2026-04-19T08:46:09.983Z</time></trkpt><trkpt lat="45.6284887" lon="11.4422719"><ele>77.66666666666667</ele><time>2026-04-19T08:46:11.983Z</time></trkpt><trkpt lat="45.6285576" lon="11.4421779"><ele>78.0</ele><time>2026-04-19T08:46:12.984Z</time></trkpt><trkpt lat="45.628615" lon="11.4421373"><ele>78.16666666666667</ele><time>2026-04-19T08:46:13.983Z</time></trkpt><trkpt lat="45.6286656" lon="11.442071"><ele>78.33333333333333</ele><time>2026-04-19T08:46:14.984Z</time></trkpt><trkpt lat="45.6287177" lon="11.441951"><ele>78.5</ele><time>2026-04-19T08:46:16.983Z</time></trkpt><trkpt lat="45.6287759" lon="11.4418566"><ele>78.66666666666666</ele><time>2026-04-19T08:46:18.984Z</time></trkpt><trkpt lat="45.6288275" lon="11.4417921"><ele>78.83333333333333</ele><time>2026-04-19T08:46:19.984Z</time></trkpt><trkpt lat="45.6288811" lon="11.4417386"><ele>79.0</ele><time>2026-04-19T08:46:21.984Z</time></trkpt><trkpt lat="45.6289468" lon="11.4416735"><ele>79.0</ele><time>2026-04-19T08:46:23.983Z</time></trkpt><trkpt lat="45.6289649" lon="11.441568"><ele>79.0</ele><time>2026-04-19T08:46:26.984Z</time></trkpt><trkpt lat="45.6289557" lon="11.4414405"><ele>79.0</ele><time>2026-04-19T08:46:28.983Z</time></trkpt><trkpt lat="45.628939" lon="11.4412981"><ele>79.0</ele><time>2026-04-19T08:46:30.983Z</time></trkpt><trkpt lat="45.6289325" lon="11.4411504"><ele>79.0</ele><time>2026-04-19T08:46:32.983Z</time></trkpt><trkpt lat="45.6289655" lon="11.4410175"><ele>79.2</ele><time>2026-04-19T08:46:34.984Z</time></trkpt><trkpt lat="45.6289602" lon="11.4408814"><ele>79.4</ele><time>2026-04-19T08:46:36.984Z</time></trkpt><trkpt lat="45.6289451" lon="11.4407319"><ele>79.6</ele><time>2026-04-19T08:46:38.983Z</time></trkpt><trkpt lat="45.6289159" lon="11.4405754"><ele>79.8</ele><time>2026-04-19T08:46:40.983Z</time></trkpt><trkpt lat="45.6288818" lon="11.4404247"><ele>80.0</ele><time>2026-04-19T08:46:42.983Z</time></trkpt><trkpt lat="45.6288622" lon="11.4402628"><ele>79.8</ele><time>2026-04-19T08:46:44.982Z</time></trkpt><trkpt lat="45.6288616" lon="11.4400952"><ele>79.6</ele><time>2026-04-19T08:46:46.982Z</time></trkpt><trkpt lat="45.6289009" lon="11.4399044"><ele>79.4</ele><time>2026-04-19T08:46:48.981Z</time></trkpt><trkpt lat="45.6289128" lon="11.4397884"><ele>79.2</ele><time>2026-04-19T08:46:49.983Z</time></trkpt><trkpt lat="45.6289441" lon="11.4397083"><ele>79.0</ele><time>2026-04-19T08:46:50.982Z</time></trkpt><trkpt lat="45.628964" lon="11.4396224"><ele>79.0</ele><time>2026-04-19T08:46:51.982Z</time></trkpt><trkpt lat="45.6290185" lon="11.4394632"><ele>79.0</ele><time>2026-04-19T08:46:53.983Z</time></trkpt><trkpt lat="45.6290801" lon="11.4394268"><ele>79.0</ele><time>2026-04-19T08:46:54.982Z</time></trkpt><trkpt lat="45.629153" lon="11.4394271"><ele>79.0</ele><time>2026-04-19T08:46:55.982Z</time></trkpt><trkpt lat="45.6292718" lon="11.4394045"><ele>79.0</ele><time>2026-04-19T08:46:57.982Z</time></trkpt><trkpt lat="45.6293757" lon="11.4393986"><ele>79.0</ele><time>2026-04-19T08:46:59.982Z</time></trkpt><trkpt lat="45.6294515" lon="11.4394312"><ele>79.0</ele><time>2026-04-19T08:47:00.982Z</time></trkpt><trkpt lat="45.6295638" lon="11.4394022"><ele>79.0</ele><time>2026-04-19T08:47:02.982Z</time></trkpt><trkpt lat="45.6296804" lon="11.4393681"><ele>79.0</ele><time>2026-04-19T08:47:04.982Z</time></trkpt><trkpt lat="45.6298156" lon="11.4393013"><ele>79.0</ele><time>2026-04-19T08:47:06.982Z</time></trkpt><trkpt lat="45.6298864" lon="11.4391937"><ele>79.0</ele><time>2026-04-19T08:47:08.981Z</time></trkpt><trkpt lat="45.6299602" lon="11.4390795"><ele>79.0</ele><time>2026-04-19T08:47:10.983Z</time></trkpt><trkpt lat="45.6300392" lon="11.4389836"><ele>79.0</ele><time>2026-04-19T08:47:12.982Z</time></trkpt><trkpt lat="45.6301446" lon="11.4388731"><ele>79.0</ele><time>2026-04-19T08:47:14.982Z</time></trkpt><trkpt lat="45.6302478" lon="11.4388491"><ele>79.0</ele><time>2026-04-19T08:47:16.983Z</time></trkpt><trkpt lat="45.6303134" lon="11.4388071"><ele>79.0</ele><time>2026-04-19T08:47:17.982Z</time></trkpt><trkpt lat="45.6304225" lon="11.4387908"><ele>79.0</ele><time>2026-04-19T08:47:19.982Z</time></trkpt><trkpt lat="45.6305437" lon="11.4387817"><ele>79.0</ele><time>2026-04-19T08:47:21.984Z</time></trkpt><trkpt lat="45.630626" lon="11.4387856"><ele>79.0</ele><time>2026-04-19T08:47:22.983Z</time></trkpt><trkpt lat="45.6307397" lon="11.4387699"><ele>79.0</ele><time>2026-04-19T08:47:24.984Z</time></trkpt><trkpt lat="45.6308459" lon="11.4387017"><ele>79.0</ele><time>2026-04-19T08:47:26.985Z</time></trkpt><trkpt lat="45.6309123" lon="11.4386693"><ele>79.0</ele><time>2026-04-19T08:47:27.983Z</time></trkpt><trkpt lat="45.6309699" lon="11.4386079"><ele>79.0</ele><time>2026-04-19T08:47:29.985Z</time></trkpt><trkpt lat="45.6310111" lon="11.4384958"><ele>79.0</ele><time>2026-04-19T08:47:31.984Z</time></trkpt><trkpt lat="45.631077" lon="11.4383724"><ele>79.0</ele><time>2026-04-19T08:47:33.982Z</time></trkpt><trkpt lat="45.6311182" lon="11.4382729"><ele>79.0</ele><time>2026-04-19T08:47:34.984Z</time></trkpt><trkpt lat="45.631164" lon="11.4381121"><ele>79.0</ele><time>2026-04-19T08:47:36.983Z</time></trkpt><trkpt lat="45.631197" lon="11.4380164"><ele>79.0</ele><time>2026-04-19T08:47:37.984Z</time></trkpt><trkpt lat="45.6312262" lon="11.4379119"><ele>79.0</ele><time>2026-04-19T08:47:39.983Z</time></trkpt><trkpt lat="45.6312808" lon="11.4377693"><ele>79.0</ele><time>2026-04-19T08:47:41.984Z</time></trkpt><trkpt lat="45.6312841" lon="11.4376535"><ele>79.0</ele><time>2026-04-19T08:47:42.983Z</time></trkpt><trkpt lat="45.631284" lon="11.437504"><ele>79.0</ele><time>2026-04-19T08:47:44.982Z</time></trkpt><trkpt lat="45.6313004" lon="11.4374041"><ele>79.0</ele><time>2026-04-19T08:47:45.984Z</time></trkpt><trkpt lat="45.6313231" lon="11.4373199"><ele>79.0</ele><time>2026-04-19T08:47:46.983Z</time></trkpt><trkpt lat="45.6313354" lon="11.4372068"><ele>79.0</ele><time>2026-04-19T08:47:47.983Z</time></trkpt><trkpt lat="45.631361" lon="11.4370515"><ele>79.2</ele><time>2026-04-19T08:47:49.983Z</time></trkpt><trkpt lat="45.6313928" lon="11.4368945"><ele>79.4</ele><time>2026-04-19T08:47:51.983Z</time></trkpt><trkpt lat="45.6314115" lon="11.4367214"><ele>79.6</ele><time>2026-04-19T08:47:53.984Z</time></trkpt><trkpt lat="45.6314295" lon="11.4365733"><ele>79.8</ele><time>2026-04-19T08:47:55.983Z</time></trkpt><trkpt lat="45.6314414" lon="11.4364261"><ele>80.0</ele><time>2026-04-19T08:47:57.982Z</time></trkpt><trkpt lat="45.6314429" lon="11.4362995"><ele>80.0</ele><time>2026-04-19T08:47:59.982Z</time></trkpt><trkpt lat="45.6314303" lon="11.4361487"><ele>80.0</ele><time>2026-04-19T08:48:01.984Z</time></trkpt><trkpt lat="45.6314221" lon="11.4360065"><ele>80.0</ele><time>2026-04-19T08:48:03.983Z</time></trkpt><trkpt lat="45.6314164" lon="11.4358576"><ele>80.0</ele><time>2026-04-19T08:48:05.982Z</time></trkpt><trkpt lat="45.6314384" lon="11.4357026"><ele>80.0</ele><time>2026-04-19T08:48:07.984Z</time></trkpt><trkpt lat="45.6314525" lon="11.4355532"><ele>80.4</ele><time>2026-04-19T08:48:09.984Z</time></trkpt><trkpt lat="45.6315435" lon="11.4354503"><ele>80.8</ele><time>2026-04-19T08:48:11.984Z</time></trkpt><trkpt lat="45.6315981" lon="11.4353981"><ele>81.19999999999999</ele><time>2026-04-19T08:48:12.983Z</time></trkpt><trkpt lat="45.6316682" lon="11.4352972"><ele>81.6</ele><time>2026-04-19T08:48:14.984Z</time></trkpt><trkpt lat="45.6317384" lon="11.4352232"><ele>82.0</ele><time>2026-04-19T08:48:16.983Z</time></trkpt><trkpt lat="45.6318367" lon="11.4351244"><ele>82.0</ele><time>2026-04-19T08:48:18.982Z</time></trkpt><trkpt lat="45.6319317" lon="11.4350645"><ele>82.0</ele><time>2026-04-19T08:48:20.982Z</time></trkpt><trkpt lat="45.6320106" lon="11.4349661"><ele>82.0</ele><time>2026-04-19T08:48:22.983Z</time></trkpt><trkpt lat="45.632107" lon="11.4348916"><ele>82.0</ele><time>2026-04-19T08:48:24.984Z</time></trkpt><trkpt lat="45.6322018" lon="11.4348036"><ele>82.0</ele><time>2026-04-19T08:48:26.984Z</time></trkpt><trkpt lat="45.6322898" lon="11.4347127"><ele>82.0</ele><time>2026-04-19T08:48:28.984Z</time></trkpt><trkpt lat="45.6323687" lon="11.4346179"><ele>82.0</ele><time>2026-04-19T08:48:30.984Z</time></trkpt><trkpt lat="45.6324699" lon="11.43453"><ele>82.0</ele><time>2026-04-19T08:48:32.984Z</time></trkpt><trkpt lat="45.6325714" lon="11.4344385"><ele>82.0</ele><time>2026-04-19T08:48:34.984Z</time></trkpt><trkpt lat="45.6326917" lon="11.4343115"><ele>82.0</ele><time>2026-04-19T08:48:37.982Z</time></trkpt><trkpt lat="45.6327835" lon="11.4342365"><ele>82.0</ele><time>2026-04-19T08:48:39.983Z</time></trkpt><trkpt lat="45.6328738" lon="11.4341632"><ele>82.0</ele><time>2026-04-19T08:48:41.982Z</time></trkpt><trkpt lat="45.6329318" lon="11.4341238"><ele>82.0</ele><time>2026-04-19T08:48:42.985Z</time></trkpt><trkpt lat="45.6330143" lon="11.4340703"><ele>82.0</ele><time>2026-04-19T08:48:44.985Z</time></trkpt><trkpt lat="45.6330759" lon="11.4340131"><ele>82.0</ele><time>2026-04-19T08:48:46.983Z</time></trkpt><trkpt lat="45.6331869" lon="11.4339099"><ele>82.0</ele><time>2026-04-19T08:48:48.983Z</time></trkpt><trkpt lat="45.6332713" lon="11.4338452"><ele>82.0</ele><time>2026-04-19T08:48:50.984Z</time></trkpt><trkpt lat="45.633356" lon="11.4337696"><ele>82.0</ele><time>2026-04-19T08:48:52.983Z</time></trkpt><trkpt lat="45.6334272" lon="11.4336897"><ele>82.0</ele><time>2026-04-19T08:48:53.983Z</time></trkpt><trkpt lat="45.6334957" lon="11.43365"><ele>82.0</ele><time>2026-04-19T08:48:54.982Z</time></trkpt><trkpt lat="45.6335933" lon="11.4335852"><ele>82.19999999999999</ele><time>2026-04-19T08:48:56.981Z</time></trkpt><trkpt lat="45.6336506" lon="11.4335332"><ele>82.4</ele><time>2026-04-19T08:48:57.983Z</time></trkpt><trkpt lat="45.633729" lon="11.4334484"><ele>82.6</ele><time>2026-04-19T08:48:59.983Z</time></trkpt><trkpt lat="45.6337956" lon="11.4333991"><ele>82.80000000000001</ele><time>2026-04-19T08:49:00.984Z</time></trkpt><trkpt lat="45.6339" lon="11.4333428"><ele>83.0</ele><time>2026-04-19T08:49:02.984Z</time></trkpt><trkpt lat="45.6340028" lon="11.4332757"><ele>83.0</ele><time>2026-04-19T08:49:04.984Z</time></trkpt><trkpt lat="45.6340935" lon="11.4331756"><ele>83.0</ele><time>2026-04-19T08:49:06.983Z</time></trkpt><trkpt lat="45.63412" lon="11.433023"><ele>83.0</ele><time>2026-04-19T08:49:08.983Z</time></trkpt><trkpt lat="45.6340958" lon="11.4328797"><ele>83.0</ele><time>2026-04-19T08:49:10.983Z</time></trkpt><trkpt lat="45.6341276" lon="11.432723"><ele>83.0</ele><time>2026-04-19T08:49:12.984Z</time></trkpt><trkpt lat="45.6341396" lon="11.4326218"><ele>83.2</ele><time>2026-04-19T08:49:13.984Z</time></trkpt><trkpt lat="45.6341447" lon="11.4324236"><ele>83.4</ele><time>2026-04-19T08:49:15.984Z</time></trkpt><trkpt lat="45.6340774" lon="11.4323201"><ele>83.60000000000001</ele><time>2026-04-19T08:49:16.984Z</time></trkpt><trkpt lat="45.6340416" lon="11.4322041"><ele>83.80000000000001</ele><time>2026-04-19T08:49:18.984Z</time></trkpt><trkpt lat="45.6340312" lon="11.4320491"><ele>84.0</ele><time>2026-04-19T08:49:20.983Z</time></trkpt><trkpt lat="45.6340099" lon="11.4319158"><ele>84.0</ele><time>2026-04-19T08:49:22.984Z</time></trkpt><trkpt lat="45.6340198" lon="11.4317943"><ele>84.0</ele><time>2026-04-19T08:49:24.984Z</time></trkpt><trkpt lat="45.6339623" lon="11.4316765"><ele>84.0</ele><time>2026-04-19T08:49:26.983Z</time></trkpt><trkpt lat="45.6339131" lon="11.4315611"><ele>84.0</ele><time>2026-04-19T08:49:28.984Z</time></trkpt><trkpt lat="45.6338589" lon="11.4314383"><ele>84.0</ele><time>2026-04-19T08:49:30.984Z</time></trkpt><trkpt lat="45.6338216" lon="11.43133"><ele>83.83333333333333</ele><time>2026-04-19T08:49:32.985Z</time></trkpt><trkpt lat="45.6337952" lon="11.4312041"><ele>83.66666666666667</ele><time>2026-04-19T08:49:34.983Z</time></trkpt><trkpt lat="45.6337468" lon="11.4310762"><ele>83.5</ele><time>2026-04-19T08:49:35.985Z</time></trkpt><trkpt lat="45.6337139" lon="11.4309137"><ele>83.33333333333334</ele><time>2026-04-19T08:49:37.984Z</time></trkpt><trkpt lat="45.6336847" lon="11.4308302"><ele>83.16666666666667</ele><time>2026-04-19T08:49:38.983Z</time></trkpt><trkpt lat="45.6336612" lon="11.4307424"><ele>83.0</ele><time>2026-04-19T08:49:39.984Z</time></trkpt><trkpt lat="45.6336357" lon="11.4306479"><ele>83.0</ele><time>2026-04-19T08:49:40.982Z</time></trkpt><trkpt lat="45.6336033" lon="11.4305516"><ele>83.0</ele><time>2026-04-19T08:49:41.984Z</time></trkpt><trkpt lat="45.6335489" lon="11.4304123"><ele>83.0</ele><time>2026-04-19T08:49:43.984Z</time></trkpt><trkpt lat="45.6334688" lon="11.4302783"><ele>83.0</ele><time>2026-04-19T08:49:45.984Z</time></trkpt><trkpt lat="45.633417" lon="11.4301174"><ele>83.0</ele><time>2026-04-19T08:49:47.983Z</time></trkpt><trkpt lat="45.6333662" lon="11.4300087"><ele>83.0</ele><time>2026-04-19T08:49:49.984Z</time></trkpt><trkpt lat="45.6333273" lon="11.4298826"><ele>83.0</ele><time>2026-04-19T08:49:51.982Z</time></trkpt><trkpt lat="45.633292" lon="11.4297546"><ele>83.0</ele><time>2026-04-19T08:49:53.984Z</time></trkpt><trkpt lat="45.6332486" lon="11.429678"><ele>83.0</ele><time>2026-04-19T08:49:54.984Z</time></trkpt><trkpt lat="45.633207" lon="11.4295537"><ele>83.0</ele><time>2026-04-19T08:49:56.983Z</time></trkpt><trkpt lat="45.6332417" lon="11.4294773"><ele>83.0</ele><time>2026-04-19T08:49:57.985Z</time></trkpt><trkpt lat="45.6332237" lon="11.4293392"><ele>83.0</ele><time>2026-04-19T08:49:59.985Z</time></trkpt><trkpt lat="45.6332199" lon="11.4292141"><ele>83.0</ele><time>2026-04-19T08:50:01.983Z</time></trkpt><trkpt lat="45.6331829" lon="11.429078"><ele>83.0</ele><time>2026-04-19T08:50:03.984Z</time></trkpt><trkpt lat="45.6331496" lon="11.4289245"><ele>83.0</ele><time>2026-04-19T08:50:05.983Z</time></trkpt><trkpt lat="45.6331326" lon="11.4288346"><ele>83.0</ele><time>2026-04-19T08:50:06.984Z</time></trkpt><trkpt lat="45.6331045" lon="11.4286891"><ele>83.0</ele><time>2026-04-19T08:50:08.984Z</time></trkpt><trkpt lat="45.6330758" lon="11.4285448"><ele>83.0</ele><time>2026-04-19T08:50:10.983Z</time></trkpt><trkpt lat="45.6330642" lon="11.4283895"><ele>83.0</ele><time>2026-04-19T08:50:12.983Z</time></trkpt><trkpt lat="45.6330397" lon="11.4282378"><ele>83.0</ele><time>2026-04-19T08:50:14.984Z</time></trkpt><trkpt lat="45.6330324" lon="11.4280702"><ele>83.0</ele><time>2026-04-19T08:50:16.984Z</time></trkpt><trkpt lat="45.6330049" lon="11.4278763"><ele>83.0</ele><time>2026-04-19T08:50:18.984Z</time></trkpt><trkpt lat="45.6329886" lon="11.4277584"><ele>83.0</ele><time>2026-04-19T08:50:20.984Z</time></trkpt><trkpt lat="45.6329728" lon="11.4276551"><ele>83.0</ele><time>2026-04-19T08:50:21.983Z</time></trkpt><trkpt lat="45.6329649" lon="11.4275643"><ele>83.0</ele><time>2026-04-19T08:50:22.982Z</time></trkpt><trkpt lat="45.6329716" lon="11.4274147"><ele>83.0</ele><time>2026-04-19T08:50:24.983Z</time></trkpt><trkpt lat="45.6329631" lon="11.4272714"><ele>83.0</ele><time>2026-04-19T08:50:26.983Z</time></trkpt><trkpt lat="45.6329572" lon="11.4271457"><ele>83.33333333333334</ele><time>2026-04-19T08:50:28.984Z</time></trkpt><trkpt lat="45.6329435" lon="11.4269774"><ele>83.66666666666667</ele><time>2026-04-19T08:50:30.983Z</time></trkpt><trkpt lat="45.632946" lon="11.4268646"><ele>84.0</ele><time>2026-04-19T08:50:32.984Z</time></trkpt><trkpt lat="45.6329613" lon="11.4267411"><ele>84.33333333333333</ele><time>2026-04-19T08:50:34.983Z</time></trkpt><trkpt lat="45.6329681" lon="11.4266296"><ele>84.66666666666666</ele><time>2026-04-19T08:50:36.984Z</time></trkpt><trkpt lat="45.6329785" lon="11.4265357"><ele>85.0</ele><time>2026-04-19T08:50:38.983Z</time></trkpt><trkpt lat="45.6329872" lon="11.4264312"><ele>85.0</ele><time>2026-04-19T08:50:40.984Z</time></trkpt><trkpt lat="45.6329971" lon="11.4263249"><ele>85.0</ele><time>2026-04-19T08:50:42.983Z</time></trkpt><trkpt lat="45.6330054" lon="11.4261868"><ele>85.0</ele><time>2026-04-19T08:50:44.983Z</time></trkpt><trkpt lat="45.6330146" lon="11.4260512"><ele>85.0</ele><time>2026-04-19T08:50:46.983Z</time></trkpt><trkpt lat="45.6330299" lon="11.4259474"><ele>85.0</ele><time>2026-04-19T08:50:48.984Z</time></trkpt><trkpt lat="45.6330475" lon="11.4258375"><ele>85.0</ele><time>2026-04-19T08:50:51.982Z</time></trkpt><trkpt lat="45.6330544" lon="11.4257317"><ele>85.4</ele><time>2026-04-19T08:50:53.983Z</time></trkpt><trkpt lat="45.6330943" lon="11.4256136"><ele>85.8</ele><time>2026-04-19T08:50:56.984Z</time></trkpt><trkpt lat="45.6331342" lon="11.4255158"><ele>86.19999999999999</ele><time>2026-04-19T08:50:58.984Z</time></trkpt><trkpt lat="45.6331853" lon="11.4254101"><ele>86.6</ele><time>2026-04-19T08:51:00.984Z</time></trkpt><trkpt lat="45.6332318" lon="11.4252761"><ele>87.0</ele><time>2026-04-19T08:51:02.983Z</time></trkpt><trkpt lat="45.6332446" lon="11.4251514"><ele>87.33333333333333</ele><time>2026-04-19T08:51:04.984Z</time></trkpt><trkpt lat="45.6332221" lon="11.4250271"><ele>87.66666666666667</ele><time>2026-04-19T08:51:06.984Z</time></trkpt><trkpt lat="45.6331976" lon="11.4249191"><ele>88.0</ele><time>2026-04-19T08:51:08.983Z</time></trkpt><trkpt lat="45.6331758" lon="11.4248245"><ele>88.33333333333334</ele><time>2026-04-19T08:51:10.984Z</time></trkpt><trkpt lat="45.6331613" lon="11.4247011"><ele>88.66666666666667</ele><time>2026-04-19T08:51:13.984Z</time></trkpt><trkpt lat="45.6332014" lon="11.4245992"><ele>89.0</ele><time>2026-04-19T08:51:16.983Z</time></trkpt><trkpt lat="45.6332678" lon="11.4245039"><ele>89.14285714285714</ele><time>2026-04-19T08:51:19.983Z</time></trkpt><trkpt lat="45.6333338" lon="11.4244633"><ele>89.28571428571428</ele><time>2026-04-19T08:51:21.983Z</time></trkpt><trkpt lat="45.6333972" lon="11.4244361"><ele>89.42857142857142</ele><time>2026-04-19T08:51:23.984Z</time></trkpt><trkpt lat="45.6334675" lon="11.4244108"><ele>89.57142857142857</ele><time>2026-04-19T08:51:25.982Z</time></trkpt><trkpt lat="45.6335361" lon="11.4243785"><ele>89.71428571428572</ele><time>2026-04-19T08:51:27.984Z</time></trkpt><trkpt lat="45.6335995" lon="11.424331"><ele>89.85714285714285</ele><time>2026-04-19T08:51:29.984Z</time></trkpt><trkpt lat="45.633667" lon="11.4242812"><ele>90.0</ele><time>2026-04-19T08:51:31.983Z</time></trkpt><trkpt lat="45.6337452" lon="11.4242289"><ele>90.0</ele><time>2026-04-19T08:51:33.983Z</time></trkpt><trkpt lat="45.6338204" lon="11.4241639"><ele>90.0</ele><time>2026-04-19T08:51:35.983Z</time></trkpt><trkpt lat="45.6338846" lon="11.4241028"><ele>90.0</ele><time>2026-04-19T08:51:37.984Z</time></trkpt><trkpt lat="45.6339406" lon="11.424044"><ele>90.0</ele><time>2026-04-19T08:51:39.983Z</time></trkpt><trkpt lat="45.6340087" lon="11.4239785"><ele>90.0</ele><time>2026-04-19T08:51:41.983Z</time></trkpt><trkpt lat="45.634086" lon="11.4239243"><ele>90.0</ele><time>2026-04-19T08:51:43.983Z</time></trkpt><trkpt lat="45.6341658" lon="11.4238808"><ele>90.0</ele><time>2026-04-19T08:51:45.984Z</time></trkpt><trkpt lat="45.6342341" lon="11.4238441"><ele>90.0</ele><time>2026-04-19T08:51:47.984Z</time></trkpt><trkpt lat="45.634332" lon="11.4237623"><ele>90.0</ele><time>2026-04-19T08:51:51.984Z</time></trkpt><trkpt lat="45.6344003" lon="11.4237287"><ele>90.0</ele><time>2026-04-19T08:51:54.984Z</time></trkpt><trkpt lat="45.6344884" lon="11.4236863"><ele>90.0</ele><time>2026-04-19T08:51:57.984Z</time></trkpt><trkpt lat="45.6345477" lon="11.4236493"><ele>90.0</ele><time>2026-04-19T08:51:59.984Z</time></trkpt><trkpt lat="45.6346155" lon="11.423604"><ele>90.0</ele><time>2026-04-19T08:52:01.984Z</time></trkpt><trkpt lat="45.6346833" lon="11.4235552"><ele>90.0</ele><time>2026-04-19T08:52:03.984Z</time></trkpt><trkpt lat="45.6347762" lon="11.4234931"><ele>90.0</ele><time>2026-04-19T08:52:05.984Z</time></trkpt><trkpt lat="45.6348628" lon="11.4234354"><ele>90.0</ele><time>2026-04-19T08:52:07.983Z</time></trkpt><trkpt lat="45.6349399" lon="11.4233658"><ele>90.0</ele><time>2026-04-19T08:52:09.983Z</time></trkpt><trkpt lat="45.6349773" lon="11.423257"><ele>90.0</ele><time>2026-04-19T08:52:11.983Z</time></trkpt><trkpt lat="45.6349862" lon="11.4231548"><ele>90.0</ele><time>2026-04-19T08:52:13.984Z</time></trkpt><trkpt lat="45.6350015" lon="11.4230619"><ele>90.0</ele><time>2026-04-19T08:52:15.984Z</time></trkpt><trkpt lat="45.6350049" lon="11.4229525"><ele>90.0</ele><time>2026-04-19T08:52:17.984Z</time></trkpt><trkpt lat="45.6349982" lon="11.4228539"><ele>90.0</ele><time>2026-04-19T08:52:19.983Z</time></trkpt><trkpt lat="45.6349787" lon="11.4227615"><ele>90.0</ele><time>2026-04-19T08:52:21.984Z</time></trkpt><trkpt lat="45.6349626" lon="11.4226641"><ele>90.0</ele><time>2026-04-19T08:52:23.983Z</time></trkpt><trkpt lat="45.634954" lon="11.4225706"><ele>90.33333333333333</ele><time>2026-04-19T08:52:25.984Z</time></trkpt><trkpt lat="45.6349325" lon="11.4224534"><ele>90.66666666666667</ele><time>2026-04-19T08:52:28.983Z</time></trkpt><trkpt lat="45.6348952" lon="11.4223469"><ele>91.0</ele><time>2026-04-19T08:52:31.984Z</time></trkpt><trkpt lat="45.6348758" lon="11.4222532"><ele>91.33333333333334</ele><time>2026-04-19T08:52:34.984Z</time></trkpt><trkpt lat="45.6348527" lon="11.4221571"><ele>91.66666666666667</ele><time>2026-04-19T08:52:37.982Z</time></trkpt><trkpt lat="45.6348297" lon="11.4220442"><ele>92.0</ele><time>2026-04-19T08:52:41.984Z</time></trkpt><trkpt lat="45.6348085" lon="11.4219478"><ele>92.71428571428572</ele><time>2026-04-19T08:52:45.984Z</time></trkpt><trkpt lat="45.6347904" lon="11.421833"><ele>93.42857142857142</ele><time>2026-04-19T08:52:49.982Z</time></trkpt><trkpt lat="45.6347611" lon="11.4217277"><ele>94.14285714285714</ele><time>2026-04-19T08:52:53.984Z</time></trkpt><trkpt lat="45.6347434" lon="11.4216357"><ele>94.85714285714286</ele><time>2026-04-19T08:52:57.983Z</time></trkpt><trkpt lat="45.6347529" lon="11.4215337"><ele>95.57142857142858</ele><time>2026-04-19T08:53:02.984Z</time></trkpt><trkpt lat="45.634718" lon="11.4214478"><ele>96.28571428571428</ele><time>2026-04-19T08:53:08.984Z</time></trkpt><trkpt lat="45.63468" lon="11.4213595"><ele>97.0</ele><time>2026-04-19T08:53:13.983Z</time></trkpt><trkpt lat="45.6346516" lon="11.4212786"><ele>97.85714285714285</ele><time>2026-04-19T08:53:17.984Z</time></trkpt><trkpt lat="45.6346329" lon="11.421188"><ele>98.71428571428572</ele><time>2026-04-19T08:53:21.983Z</time></trkpt><trkpt lat="45.634622" lon="11.4210751"><ele>99.57142857142857</ele><time>2026-04-19T08:53:25.984Z</time></trkpt><trkpt lat="45.6346157" lon="11.4209801"><ele>100.42857142857142</ele><time>2026-04-19T08:53:28.983Z</time></trkpt><trkpt lat="45.6345992" lon="11.4208827"><ele>101.28571428571428</ele><time>2026-04-19T08:53:32.983Z</time></trkpt><trkpt lat="45.6345775" lon="11.4207854"><ele>102.14285714285714</ele><time>2026-04-19T08:53:37.983Z</time></trkpt><trkpt lat="45.6345562" lon="11.4206786"><ele>103.0</ele><time>2026-04-19T08:53:42.983Z</time></trkpt><trkpt lat="45.6345408" lon="11.4205867"><ele>102.99999999999999</ele><time>2026-04-19T08:53:46.982Z</time></trkpt><trkpt lat="45.6345169" lon="11.4204908"><ele>103.0</ele><time>2026-04-19T08:53:53.984Z</time></trkpt><trkpt lat="45.6344997" lon="11.420391"><ele>103.0</ele><time>2026-04-19T08:53:59.983Z</time></trkpt><trkpt lat="45.6344651" lon="11.4202996"><ele>103.0</ele><time>2026-04-19T08:54:05.983Z</time></trkpt><trkpt lat="45.6344284" lon="11.4202088"><ele>103.0</ele><time>2026-04-19T08:54:11.983Z</time></trkpt><trkpt lat="45.6344104" lon="11.4201137"><ele>102.99999999999999</ele><time>2026-04-19T08:54:16.983Z</time></trkpt><trkpt lat="45.6343849" lon="11.42001"><ele>103.0</ele><time>2026-04-19T08:54:21.984Z</time></trkpt><trkpt lat="45.634377" lon="11.4199185"><ele>104.28571428571428</ele><time>2026-04-19T08:54:25.984Z</time></trkpt><trkpt lat="45.6343363" lon="11.4198455"><ele>105.57142857142857</ele><time>2026-04-19T08:54:30.984Z</time></trkpt><trkpt lat="45.6343023" lon="11.4197635"><ele>106.85714285714286</ele><time>2026-04-19T08:54:35.983Z</time></trkpt><trkpt lat="45.6342777" lon="11.4196786"><ele>108.14285714285714</ele><time>2026-04-19T08:54:41.983Z</time></trkpt><trkpt lat="45.6342484" lon="11.4195702"><ele>109.42857142857143</ele><time>2026-04-19T08:54:48.984Z</time></trkpt><trkpt lat="45.6342316" lon="11.419467"><ele>110.71428571428571</ele><time>2026-04-19T08:54:52.983Z</time></trkpt><trkpt lat="45.634235" lon="11.4193644"><ele>112.0</ele><time>2026-04-19T08:54:57.983Z</time></trkpt><trkpt lat="45.6342574" lon="11.4192777"><ele>113.14285714285714</ele><time>2026-04-19T08:55:03.984Z</time></trkpt><trkpt lat="45.634289" lon="11.419199"><ele>114.28571428571428</ele><time>2026-04-19T08:55:09.983Z</time></trkpt><trkpt lat="45.6343078" lon="11.4191055"><ele>115.42857142857143</ele><time>2026-04-19T08:55:15.984Z</time></trkpt><trkpt lat="45.6343368" lon="11.4190223"><ele>116.57142857142857</ele><time>2026-04-19T08:55:19.984Z</time></trkpt><trkpt lat="45.6343966" lon="11.4189494"><ele>117.71428571428571</ele><time>2026-04-19T08:55:24.983Z</time></trkpt><trkpt lat="45.6344561" lon="11.4188973"><ele>118.85714285714286</ele><time>2026-04-19T08:55:29.982Z</time></trkpt><trkpt lat="45.634509" lon="11.4188169"><ele>120.0</ele><time>2026-04-19T08:55:35.984Z</time></trkpt><trkpt lat="45.6345484" lon="11.4187218"><ele>121.14285714285714</ele><time>2026-04-19T08:55:39.983Z</time></trkpt><trkpt lat="45.6345783" lon="11.4186184"><ele>122.28571428571428</ele><time>2026-04-19T08:55:42.983Z</time></trkpt><trkpt lat="45.6346041" lon="11.4185061"><ele>123.42857142857142</ele><time>2026-04-19T08:55:46.984Z</time></trkpt><trkpt lat="45.6346425" lon="11.4184077"><ele>124.57142857142857</ele><time>2026-04-19T08:55:50.983Z</time></trkpt><trkpt lat="45.6346789" lon="11.4183137"><ele>125.7142857142857</ele><time>2026-04-19T08:55:55.983Z</time></trkpt><trkpt lat="45.6347085" lon="11.4182319"><ele>126.85714285714285</ele><time>2026-04-19T08:56:00.983Z</time></trkpt><trkpt lat="45.6347337" lon="11.4181444"><ele>128.0</ele><time>2026-04-19T08:56:04.983Z</time></trkpt><trkpt lat="45.634766" lon="11.418056"><ele>129.42857142857142</ele><time>2026-04-19T08:56:09.983Z</time></trkpt><trkpt lat="45.6347943" lon="11.4179745"><ele>130.85714285714283</ele><time>2026-04-19T08:56:13.983Z</time></trkpt><trkpt lat="45.6348334" lon="11.4178808"><ele>132.28571428571428</ele><time>2026-04-19T08:56:18.982Z</time></trkpt><trkpt lat="45.6348666" lon="11.4177966"><ele>133.71428571428572</ele><time>2026-04-19T08:56:22.984Z</time></trkpt><trkpt lat="45.6348968" lon="11.4177135"><ele>135.14285714285717</ele><time>2026-04-19T08:56:26.984Z</time></trkpt><trkpt lat="45.6349049" lon="11.417622"><ele>136.57142857142858</ele><time>2026-04-19T08:56:32.984Z</time></trkpt><trkpt lat="45.6348747" lon="11.417542"><ele>138.0</ele><time>2026-04-19T08:56:38.983Z</time></trkpt><trkpt lat="45.6348097" lon="11.4175028"><ele>138.0</ele><time>2026-04-19T08:56:43.983Z</time></trkpt><trkpt lat="45.6347444" lon="11.4174677"><ele>138.0</ele><time>2026-04-19T08:56:48.984Z</time></trkpt><trkpt lat="45.6346713" lon="11.4174357"><ele>138.0</ele><time>2026-04-19T08:56:54.984Z</time></trkpt><trkpt lat="45.6346041" lon="11.4174077"><ele>138.0</ele><time>2026-04-19T08:56:58.983Z</time></trkpt><trkpt lat="45.6345379" lon="11.4173896"><ele>138.0</ele><time>2026-04-19T08:57:02.984Z</time></trkpt><trkpt lat="45.6344716" lon="11.4173659"><ele>138.0</ele><time>2026-04-19T08:57:07.982Z</time></trkpt><trkpt lat="45.634416" lon="11.4173192"><ele>138.0</ele><time>2026-04-19T08:57:12.984Z</time></trkpt><trkpt lat="45.6343465" lon="11.417294"><ele>137.42857142857144</ele><time>2026-04-19T08:57:18.984Z</time></trkpt><trkpt lat="45.6343048" lon="11.4172201"><ele>136.85714285714286</ele><time>2026-04-19T08:57:23.983Z</time></trkpt><trkpt lat="45.6342892" lon="11.4171252"><ele>136.28571428571428</ele><time>2026-04-19T08:57:31.984Z</time></trkpt><trkpt lat="45.6343075" lon="11.4170315"><ele>135.71428571428572</ele><time>2026-04-19T08:57:38.984Z</time></trkpt><trkpt lat="45.6343178" lon="11.416923"><ele>135.14285714285714</ele><time>2026-04-19T08:57:44.983Z</time></trkpt><trkpt lat="45.634302" lon="11.416835"><ele>134.57142857142858</ele><time>2026-04-19T08:57:50.984Z</time></trkpt><trkpt lat="45.6343193" lon="11.416744"><ele>134.0</ele><time>2026-04-19T08:57:56.983Z</time></trkpt><trkpt lat="45.6343093" lon="11.4166546"><ele>135.42857142857144</ele><time>2026-04-19T08:58:01.983Z</time></trkpt><trkpt lat="45.6342935" lon="11.416566"><ele>136.85714285714286</ele><time>2026-04-19T08:58:06.984Z</time></trkpt><trkpt lat="45.6342827" lon="11.4164667"><ele>138.28571428571428</ele><time>2026-04-19T08:58:13.984Z</time></trkpt><trkpt lat="45.6342792" lon="11.4163585"><ele>139.71428571428572</ele><time>2026-04-19T08:58:20.984Z</time></trkpt><trkpt lat="45.634269" lon="11.4162616"><ele>141.14285714285714</ele><time>2026-04-19T08:58:25.984Z</time></trkpt><trkpt lat="45.6342792" lon="11.4161672"><ele>142.57142857142858</ele><time>2026-04-19T08:58:29.984Z</time></trkpt><trkpt lat="45.6343007" lon="11.4160688"><ele>144.0</ele><time>2026-04-19T08:58:34.983Z</time></trkpt><trkpt lat="45.6343403" lon="11.4159972"><ele>145.2857142857143</ele><time>2026-04-19T08:58:39.983Z</time></trkpt><trkpt lat="45.6343686" lon="11.4159121"><ele>146.57142857142858</ele><time>2026-04-19T08:58:46.983Z</time></trkpt><trkpt lat="45.634351" lon="11.4158143"><ele>147.85714285714286</ele><time>2026-04-19T08:58:51.984Z</time></trkpt><trkpt lat="45.6343738" lon="11.4157065"><ele>149.14285714285717</ele><time>2026-04-19T08:58:54.982Z</time></trkpt><trkpt lat="45.6343791" lon="11.4156137"><ele>150.42857142857144</ele><time>2026-04-19T08:58:57.983Z</time></trkpt><trkpt lat="45.6343677" lon="11.4155166"><ele>151.71428571428572</ele><time>2026-04-19T08:59:02.984Z</time></trkpt><trkpt lat="45.6343217" lon="11.4154431"><ele>153.0</ele><time>2026-04-19T08:59:25.983Z</time></trkpt><trkpt lat="45.6343114" lon="11.4153448"><ele>153.0</ele><time>2026-04-19T08:59:35.984Z</time></trkpt><trkpt lat="45.6342495" lon="11.4153127"><ele>153.0</ele><time>2026-04-19T09:02:22.983Z</time></trkpt><trkpt lat="45.6343077" lon="11.4153596"><ele>153.0</ele><time>2026-04-19T09:02:55.984Z</time></trkpt><trkpt lat="45.6342785" lon="11.4152765"><ele>153.0</ele><time>2026-04-19T09:11:21.982Z</time></trkpt><trkpt lat="45.6342667" lon="11.4154186"><ele>153.0</ele><time>2026-04-19T09:11:51.984Z</time></trkpt><trkpt lat="45.6343311" lon="11.4154132"><ele>153.0</ele><time>2026-04-19T09:12:12.983Z</time></trkpt><trkpt lat="45.6343909" lon="11.4153794"><ele>153.0</ele><time>2026-04-19T09:12:18.984Z</time></trkpt><trkpt lat="45.6343989" lon="11.4154703"><ele>153.0</ele><time>2026-04-19T09:13:01.984Z</time></trkpt><trkpt lat="45.6343697" lon="11.4153527"><ele>153.0</ele><time>2026-04-19T09:13:16.983Z</time></trkpt><trkpt lat="45.6344386" lon="11.4154495"><ele>153.0</ele><time>2026-04-19T09:14:16.984Z</time></trkpt><trkpt lat="45.6344386" lon="11.4154495"><ele>153.0</ele><time>2026-04-19T09:14:16.984Z</time></trkpt><trkpt lat="45.6344386" lon="11.4154495"><ele>153.0</ele><time>2026-04-19T09:14:16.984Z</time></trkpt><trkpt lat="45.6344386" lon="11.4154495"><ele>153.0</ele><time>2026-04-19T09:14:16.984Z</time></trkpt><trkpt lat="45.6344386" lon="11.4154495"><ele>153.0</ele><time>2026-04-19T09:14:16.984Z</time></trkpt><trkpt lat="45.6344386" lon="11.4154495"><ele>153.0</ele><time>2026-04-19T09:14:16.984Z</time></trkpt></trkseg></trk></gpx>